[[{"header":{"parameterUnit":"m.s-1","parameterCategory":1,"la1":30.6,"la2":28.766,"lo1":-90.7593,"lo2":-88.6598,"dx":0.0162,"dy":0.0183,"nx":116,"ny":114,"refTime":"2023-01-02T18:00:00:Z","depth":0,"parameterNumber":2,"parameterNumberName":"U-component_of_WINDS"},"data":[0.0,0.0,0.0,0.0,0.0,0.0,0.0,0.0,0.0,0.0,0.0,0.0,0.0,0.0,0.0,0.0,0.0,0.0,0.0,0.0,0.0,0.0,0.0,0.0,0.0,0.0,0.0,0.0,0.0,0.0,0.0,0.0,0.0,0.0,0.0,0.0,0.0,0.0,0.0,0.0,0.0,0.0,0.0,0.0,0.0,0.0,0.0,0.0,0.0,0.0,0.0,0.0,0.0,0.0,0.0,0.0,0.0,0.0,0.0,0.0,0.0,0.0,0.0,0.0,0.0,0.0,0.0,0.0,0.0,0.0,0.0,0.0,0.0,0.0,0.0,0.0,0.0,0.0,0.0,0.0,0.0,0.0,0.0,0.0,0.0,0.0,0.0,0.0,0.0,0.0,0.0,0.0,0.0,0.0,0.0,0.0,0.0,0.0,0.0,0.0,0.0,0.0,0.0,0.0,0.0,0.0,0.0,0.0,0.0,0.0,0.0,0.0,0.0,0.0,0.0,0.0,0.0,0.0,0.0,0.0,0.0,0.0,0.0,0.0,0.0,0.0,0.0,0.0,0.0,0.0,0.0,0.0,0.0,0.0,0.0,0.0,0.0,0.0,0.0,0.0,0.0,0.0,0.0,0.0,0.0,0.0,0.0,0.0,0.0,0.0,0.0,0.0,0.0,0.0,0.0,0.0,0.0,0.0,0.0,0.0,0.0,0.0,0.0,0.0,0.0,0.0,0.0,0.0,0.0,0.0,0.0,0.0,0.0,0.0,0.0,0.0,0.0,0.0,0.0,0.0,0.0,0.0,0.0,0.0,0.0,0.0,0.0,0.0,0.0,0.0,0.0,0.0,0.0,0.0,0.0,0.0,0.0,0.0,0.0,0.0,0.0,0.0,0.0,0.0,0.0,0.0,0.0,0.0,0.0,0.0,0.0,0.0,0.0,0.0,0.0,0.0,0.0,0.0,0.0,0.0,0.0,0.0,0.0,0.0,0.0,0.0,0.0,0.0,0.0,0.0,0.0,0.0,0.0,0.0,0.0,0.0,0.0,0.0,0.0,0.0,0.0,0.0,0.0,0.0,0.0,0.0,0.0,0.0,0.0,0.0,0.0,0.0,0.0,0.0,0.0,0.0,0.0,0.0,0.0,0.0,0.0,0.0,0.0,0.0,0.0,0.0,0.0,0.0,0.0,0.0,0.0,0.0,0.0,0.0,0.0,0.0,0.0,0.0,0.0,0.0,0.0,0.0,0.0,0.0,0.0,0.0,0.0,0.0,0.0,0.0,0.0,0.0,0.0,0.0,0.0,0.0,0.0,0.0,0.0,0.0,0.0,0.0,0.0,0.0,0.0,0.0,0.0,0.0,0.0,0.0,0.0,0.0,0.0,0.0,0.0,0.0,0.0,0.0,0.0,0.0,0.0,0.0,0.0,0.0,0.0,0.0,0.0,0.0,0.0,0.0,0.0,0.0,0.0,0.0,0.0,0.0,0.0,0.0,0.0,0.0,0.0,0.0,0.0,0.0,0.0,0.0,0.0,0.0,0.0,0.0,0.0,0.0,0.0,0.0,0.0,0.0,0.0,0.0,0.0,0.0,0.0,0.0,0.0,0.0,0.0,0.0,0.0,0.0,0.0,0.0,0.0,0.0,0.0,0.0,0.0,0.0,0.0,0.0,0.0,0.0,0.0,0.0,0.0,0.0,0.0,0.0,0.0,0.0,0.0,0.0,0.0,0.0,0.0,0.0,0.0,0.0,0.0,0.0,0.0,0.0,0.0,0.0,0.0,0.0,0.0,0.0,0.0,0.0,0.0,0.0,0.0,0.0,0.0,0.0,0.0,0.0,0.0,0.0,0.0,0.0,0.0,0.0,0.0,0.0,0.0,0.0,0.0,0.0,0.0,0.0,0.0,0.0,0.0,0.0,0.0,0.0,0.0,0.0,0.0,0.0,0.0,0.0,0.0,0.0,0.0,0.0,0.0,0.0,0.0,0.0,0.0,0.0,0.0,0.0,0.0,0.0,0.0,0.0,0.0,0.0,0.0,0.0,0.0,0.0,0.0,0.0,0.0,0.0,0.0,0.0,0.0,0.0,0.0,0.0,0.0,0.0,0.0,0.0,0.0,0.0,0.0,0.0,0.0,0.0,0.0,0.0,0.0,0.0,0.0,0.0,0.0,0.0,0.0,0.0,0.0,0.0,0.0,0.0,0.0,0.0,0.0,0.0,0.0,0.0,0.0,0.0,0.0,0.0,0.0,0.0,0.0,0.0,0.0,0.0,0.0,0.0,0.0,0.0,0.0,0.0,0.0,0.0,0.0,0.0,0.0,0.0,0.0,0.0,0.0,0.0,0.0,0.0,0.0,0.0,0.0,0.0,0.0,0.0,0.0,0.0,0.0,0.0,0.0,0.0,0.0,0.0,0.0,0.0,0.0,0.0,0.0,0.0,0.0,0.0,0.0,0.0,0.0,0.0,0.0,0.0,0.0,0.0,0.0,0.0,0.0,0.0,0.0,0.0,0.0,0.0,0.0,0.0,0.0,0.0,0.0,0.0,0.0,0.0,0.0,0.0,0.0,0.0,0.0,0.0,0.0,0.0,0.0,0.0,0.0,0.0,0.0,0.0,0.0,0.0,0.0,0.0,0.0,0.0,0.0,0.0,0.0,0.0,0.0,0.0,0.0,0.0,0.0,0.0,0.0,0.0,0.0,0.0,0.0,0.0,0.0,0.0,0.0,0.0,0.0,0.0,0.0,0.0,0.0,0.0,0.0,0.0,0.0,0.0,0.0,0.0,0.0,0.0,0.0,0.0,0.0,0.0,0.0,0.0,0.0,0.0,0.0,0.0,0.0,0.0,0.0,0.0,0.0,0.0,0.0,0.0,0.0,0.0,0.0,0.0,0.0,0.0,0.0,0.0,0.0,0.0,0.0,0.0,0.0,0.0,0.0,0.0,0.0,0.0,0.0,0.0,0.0,0.0,0.0,0.0,0.0,0.0,0.0,0.0,0.0,0.0,0.0,0.0,0.0,0.0,0.0,0.0,0.0,0.0,0.0,0.0,0.0,0.0,0.0,0.0,0.0,0.0,0.0,0.0,0.0,0.0,0.0,0.0,0.0,0.0,0.0,0.0,0.0,0.0,0.0,0.0,0.0,0.0,0.0,0.0,0.0,0.0,0.0,0.0,0.0,0.0,0.0,0.0,0.0,0.0,0.0,0.0,0.0,0.0,0.0,0.0,0.0,0.0,0.0,0.0,0.0,0.0,0.0,0.0,0.0,0.0,0.0,0.0,0.0,0.0,0.0,0.0,0.0,0.0,0.0,0.0,0.0,0.0,0.0,0.0,0.0,0.0,0.0,0.0,0.0,0.0,0.0,0.0,0.0,0.0,0.0,0.0,0.0,0.0,0.0,0.0,0.0,0.0,0.0,0.0,0.0,0.0,0.0,0.0,0.0,0.0,0.0,0.0,0.0,0.0,0.0,0.0,0.0,0.0,0.0,0.0,0.0,0.0,0.0,0.0,0.0,0.0,0.0,0.0,0.0,0.0,0.0,0.0,0.0,0.0,0.0,0.0,0.0,0.0,0.0,0.0,0.0,0.0,0.0,0.0,0.0,0.0,0.0,0.0,0.0,0.0,0.0,0.0,0.0,0.0,0.0,0.0,0.0,0.0,0.0,0.0,0.0,0.0,0.0,0.0,0.0,0.0,0.0,0.0,0.0,0.0,0.0,0.0,0.0,0.0,0.0,0.0,0.0,0.0,0.0,0.0,0.0,0.0,0.0,0.0,0.0,0.0,0.0,0.0,0.0,0.0,0.0,0.0,0.0,0.0,0.0,0.0,0.0,0.0,0.0,0.0,0.0,0.0,0.0,0.0,0.0,0.0,0.0,0.0,0.0,0.0,0.0,0.0,0.0,0.0,0.0,0.0,0.0,0.0,0.0,0.0,0.0,0.0,0.0,0.0,0.0,0.0,0.0,0.0,0.0,0.0,0.0,0.0,0.0,0.0,0.0,0.0,0.0,0.0,0.0,0.0,0.0,0.0,0.0,0.0,0.0,0.0,0.0,0.0,0.0,0.0,0.0,0.0,0.0,0.0,0.0,0.0,0.0,0.0,0.0,0.0,0.0,0.0,0.0,0.0,0.0,0.0,0.0,0.0,0.0,0.0,0.0,0.0,0.0,0.0,0.0,0.0,0.0,0.0,0.0,0.0,0.0,0.0,0.0,0.0,0.0,0.0,0.0,0.0,0.0,0.0,0.0,0.0,0.0,0.0,0.0,0.0,0.0,0.0,0.0,0.0,0.0,0.0,0.0,0.0,0.0,0.0,0.0,0.0,0.0,0.0,0.0,0.0,0.0,0.0,0.0,0.0,0.0,0.0,0.0,0.0,0.0,0.0,0.0,0.0,0.0,0.0,0.0,0.0,0.0,0.0,0.0,0.0,0.0,0.0,0.0,0.0,0.0,0.0,0.0,0.0,0.0,0.0,0.0,0.0,0.0,0.0,0.0,0.0,0.0,0.0,0.0,0.0,0.0,0.0,0.0,0.0,0.0,0.0,0.0,0.0,0.0,0.0,0.0,0.0,0.0,0.0,0.0,0.0,0.0,0.0,0.0,0.0,0.0,0.0,0.0,0.0,0.0,0.0,0.0,0.0,0.0,0.0,0.0,0.0,0.0,0.0,0.0,0.0,0.0,0.0,0.0,0.0,0.0,0.0,0.0,0.0,0.0,0.0,0.0,0.0,0.0,0.0,0.0,0.0,0.0,0.0,0.0,0.0,0.0,0.0,0.0,0.0,0.0,0.0,0.0,0.0,0.0,0.0,0.0,0.0,0.0,0.0,0.0,0.0,0.0,0.0,0.0,0.0,0.0,0.0,0.0,0.0,0.0,0.0,0.0,0.0,0.0,0.0,0.0,0.0,0.0,0.0,0.0,0.0,0.0,0.0,0.0,0.0,0.0,0.0,0.0,0.0,0.0,0.0,0.0,0.0,0.0,0.0,0.0,0.0,0.0,0.0,0.0,0.0,0.0,0.0,0.0,0.0,0.0,0.0,0.0,0.0,0.0,0.0,0.0,0.0,0.0,0.0,0.0,0.0,0.0,0.0,0.0,0.0,0.0,0.0,0.0,0.0,0.0,0.0,0.0,0.0,0.0,0.0,0.0,0.0,0.0,0.0,0.0,0.0,0.0,0.0,0.0,0.0,0.0,0.0,0.0,0.0,0.0,0.0,0.0,0.0,0.0,0.0,0.0,0.0,0.0,0.0,0.0,0.0,0.0,0.0,0.0,0.0,0.0,0.0,0.0,0.0,0.0,0.0,0.0,0.0,0.0,0.0,0.0,0.0,0.0,0.0,0.0,0.0,0.0,0.0,0.0,0.0,0.0,0.0,0.0,0.0,0.0,0.0,0.0,0.0,0.0,0.0,0.0,0.0,0.0,0.0,0.0,0.0,0.0,0.0,0.0,0.0,0.0,0.0,0.0,0.0,0.0,0.0,0.0,0.0,0.0,0.0,0.0,0.0,0.0,0.0,0.0,0.0,0.0,0.0,0.0,0.0,0.0,0.0,0.0,0.0,0.0,0.0,0.0,0.0,0.0,0.0,0.0,0.0,0.0,0.0,0.0,0.0,0.0,0.0,0.0,0.0,0.0,0.0,0.0,0.0,0.0,0.0,0.0,0.0,0.0,0.0,0.0,0.0,0.0,0.0,0.0,0.0,0.0,0.0,0.0,0.0,0.0,0.0,0.0,0.0,0.0,0.0,0.0,0.0,0.0,0.0,0.0,0.0,0.0,0.0,0.0,0.0,0.0,0.0,0.0,0.0,0.0,0.0,0.0,0.0,0.0,0.0,0.0,0.0,0.0,0.0,0.0,0.0,0.0,0.0,0.0,0.0,0.0,0.0,0.0,0.0,0.0,0.0,0.0,0.0,0.0,0.0,0.0,0.0,0.0,0.0,0.0,0.0,0.0,0.0,0.0,0.0,0.0,0.0,0.0,0.0,0.0,0.0,0.0,0.0,0.0,0.0,0.0,0.0,0.0,0.0,0.0,0.0,0.0,0.0,0.0,0.0,0.0,0.0,0.0,0.0,0.0,0.0,0.0,0.0,0.0,0.0,-0.8135,-0.698,0.0,0.0,0.0,0.0,0.0,0.0,0.0,0.0,0.0,0.0,0.0,0.0,0.0,0.0,0.0,0.0,0.0,0.0,0.0,0.0,0.0,0.0,0.0,-0.8096,-0.8104,-0.8094,-0.8096,0.0,0.0,0.0,0.0,0.0,0.0,0.0,0.0,0.0,-0.8034,-0.8387,-0.9353,-0.9974,-1.0283,-0.9576,-0.8932,-0.8349,0.0,0.0,0.0,0.0,0.0,0.0,0.0,0.0,0.0,0.0,0.0,0.0,0.0,0.0,0.0,0.0,0.0,0.0,0.0,0.0,0.0,0.0,0.0,0.0,0.0,0.0,0.0,0.0,0.0,0.0,0.0,0.0,0.0,0.0,0.0,0.0,0.0,0.0,0.0,0.0,0.0,0.0,0.0,0.0,0.0,0.0,0.0,0.0,0.0,0.0,0.0,0.0,0.0,0.0,0.0,0.0,0.0,0.0,0.0,0.0,0.0,0.0,0.0,0.0,0.0,0.0,0.0,0.0,0.0,0.0,-0.9305,-0.8004,0.0,0.0,0.0,0.0,0.0,0.0,0.0,0.0,0.0,0.0,0.0,0.0,0.0,0.0,0.0,0.0,0.0,0.0,0.0,0.0,0.0,-0.8279,-0.8279,-0.8387,-0.8441,-0.8441,-0.8443,-0.8444,-0.8437,-0.8204,0.0,0.0,0.0,0.0,0.0,-0.8837,-0.9227,-0.9227,-1.0638,-1.1734,-1.2493,-1.2493,-1.1935,-1.0917,-1.0428,0.0,0.0,0.0,0.0,0.0,0.0,0.0,0.0,0.0,0.0,0.0,0.0,0.0,0.0,0.0,0.0,0.0,0.0,0.0,0.0,0.0,0.0,0.0,0.0,0.0,0.0,0.0,0.0,0.0,0.0,0.0,0.0,0.0,0.0,0.0,0.0,0.0,0.0,0.0,0.0,0.0,0.0,0.0,0.0,0.0,0.0,0.0,0.0,0.0,0.0,0.0,0.0,0.0,0.0,0.0,0.0,0.0,0.0,0.0,0.0,0.0,0.0,0.0,-1.2899,-1.2872,-1.2782,-1.2397,-1.1975,-1.151,-1.0793,-0.9496,-0.7879,-0.7835,0.0,0.0,0.0,0.0,0.0,0.0,0.0,0.0,0.0,0.0,0.0,0.0,0.0,0.0,0.0,0.0,0.0,0.0,0.0,-0.8965,-0.8965,-0.9481,-0.9835,-0.9835,-0.9832,-0.9806,-0.975,-0.9135,0.0,0.0,0.0,0.0,-0.877,-0.9935,-1.0553,-1.0553,-1.2467,-1.4049,-1.5274,-1.5274,-1.5184,-1.4929,-1.2594,-1.1176,-1.0538,0.0,0.0,0.0,0.0,0.0,0.0,0.0,0.0,0.0,0.0,0.0,0.0,0.0,0.0,0.0,0.0,0.0,0.0,0.0,0.0,0.0,0.0,0.0,0.0,0.0,0.0,0.0,0.0,0.0,0.0,0.0,0.0,0.0,0.0,0.0,0.0,0.0,0.0,0.0,0.0,0.0,-0.9283,-0.9369,0.0,0.0,0.0,0.0,0.0,0.0,0.0,0.0,0.0,0.0,0.0,0.0,0.0,-1.2713,-1.368,-1.3738,-1.4035,-1.4569,-1.4575,-1.4363,-1.3966,-1.3907,-1.3406,-1.2599,-1.2476,0.0,-0.9781,-0.928,0.0,0.0,0.0,0.0,0.0,0.0,0.0,0.0,0.0,0.0,0.0,0.0,0.0,0.0,0.0,0.0,0.0,0.0,0.0,0.0,0.0,-1.0445,-1.0798,-1.1235,-1.1185,-1.0963,-1.0642,-1.027,0.0,0.0,0.0,-0.9669,-1.0019,-1.1303,-1.2681,-1.4128,-1.5009,-1.592,-1.6877,-1.6877,-1.6877,-1.6817,-1.5636,-1.4141,-1.2497,-1.2497,0.0,0.0,0.0,0.0,0.0,0.0,0.0,0.0,0.0,0.0,0.0,0.0,0.0,0.0,0.0,0.0,0.0,0.0,0.0,0.0,0.0,0.0,0.0,0.0,0.0,0.0,0.0,0.0,0.0,0.0,0.0,0.0,0.0,0.0,0.0,0.0,0.0,0.0,0.0,-0.9811,-1.0267,-1.1143,-1.1242,-1.1454,0.0,0.0,0.0,0.0,0.0,0.0,0.0,0.0,0.0,-1.3836,-1.4094,-1.4367,-1.4594,-1.4872,-1.511,-1.5361,-1.5129,-1.4894,-1.4703,-1.4395,-1.39,-1.3247,-1.3441,-1.2816,-1.1603,-1.0847,-1.0266,-0.9803,0.0,0.0,0.0,0.0,-0.845,-0.8193,0.0,0.0,0.0,0.0,0.0,0.0,0.0,0.0,0.0,0.0,0.0,0.0,-1.1502,-1.1882,-1.2361,-1.3121,-1.2902,-1.2549,-1.2132,-1.1729,-1.1323,-1.0893,-1.079,-1.1071,-1.1691,-1.3165,-1.509,-1.7458,-1.7458,-1.7891,-1.8715,-1.8715,-1.8715,-1.8715,-1.8715,-1.7175,-1.4544,-1.4544,-1.327,-1.1209,0.0,0.0,0.0,0.0,0.0,0.0,0.0,0.0,0.0,0.0,0.0,0.0,0.0,0.0,0.0,0.0,0.0,0.0,0.0,0.0,0.0,0.0,0.0,0.0,0.0,0.0,0.0,0.0,0.0,0.0,0.0,0.0,0.0,0.0,0.0,0.0,0.0,-1.1026,-1.166,-1.29,-1.2931,-1.3179,0.0,0.0,0.0,0.0,0.0,0.0,-1.3979,-1.4944,-1.5305,-1.4898,-1.5424,-1.5679,-1.5605,-1.596,-1.6195,-1.6346,-1.6041,-1.5741,-1.5475,-1.5069,-1.4556,-1.3969,-1.4224,-1.3963,-1.3265,-1.2217,-1.1481,-1.1014,-1.0865,-1.0715,-1.0525,-1.003,-0.9673,-0.9355,0.0,0.0,0.0,0.0,0.0,0.0,0.0,0.0,0.0,0.0,0.0,-1.2178,-1.2994,-1.416,-1.5176,-1.5836,-1.5316,-1.4895,-1.4816,-1.3615,-1.2905,-1.2958,-1.2886,-1.3179,-1.3925,-1.5744,-1.7631,-1.9558,-1.9558,-2.0213,-2.15,-2.15,-2.15,-2.15,-2.15,-1.9657,-1.6547,-1.6547,-1.5312,-1.3302,-1.2697,0.0,0.0,0.0,0.0,0.0,0.0,0.0,0.0,0.0,0.0,0.0,0.0,0.0,0.0,0.0,0.0,0.0,0.0,0.0,0.0,0.0,0.0,0.0,0.0,0.0,0.0,0.0,0.0,0.0,0.0,0.0,0.0,0.0,0.0,0.0,0.0,0.0,0.0,-1.4252,-1.4365,0.0,0.0,0.0,0.0,-1.5335,-1.5402,-1.5544,-1.5847,-1.5928,-1.5947,-1.5933,-1.5971,-1.6392,-1.7272,-1.731,-1.7564,-1.8078,-1.8056,-1.7508,-1.6522,-1.6507,-1.5916,-1.4925,-1.4956,-1.4935,-1.4764,-1.3196,-1.2183,-1.1644,-1.1644,-1.1286,-1.0774,-1.0752,-1.0119,-0.9303,0.0,0.0,0.0,-0.8094,-0.8094,-0.8248,-0.8672,-0.895,-0.9581,-1.0921,-1.2061,-1.3371,-1.4962,-1.5877,-1.6675,-1.7394,-1.715,-1.68,-1.6389,-1.5901,-1.5455,-1.5041,-1.5051,-1.556,-1.6589,-1.7979,-1.9231,-2.0348,-2.0767,-2.1216,-2.1695,-2.1695,-2.1695,-2.1695,-2.1695,-2.1036,-1.9851,-1.9001,-1.7232,-1.4915,-1.4285,-1.3134,0.0,0.0,0.0,0.0,0.0,0.0,0.0,0.0,0.0,0.0,0.0,0.0,0.0,0.0,0.0,0.0,0.0,0.0,0.0,0.0,0.0,0.0,0.0,0.0,0.0,0.0,0.0,0.0,0.0,0.0,0.0,0.0,0.0,0.0,0.0,0.0,0.0,-1.5604,-1.5582,0.0,-1.596,-1.5672,-1.556,-1.58,-1.5977,-1.6131,-1.6242,-1.6863,-1.7217,-1.7213,-1.7434,-1.7705,-1.8042,-1.7949,-1.8003,-1.8204,-1.7906,-1.7351,-1.6614,-1.6564,-1.5957,-1.5018,-1.5227,-1.5106,-1.4684,-1.4022,-1.3731,-1.368,-1.3457,-1.2997,-1.2432,-1.1997,-1.1334,-1.0593,0.0,0.0,0.0,-0.8094,-0.8094,-0.8325,-0.8996,-0.9481,-1.0358,-1.1984,-1.3348,-1.4781,-1.6363,-1.7272,-1.8068,-1.8773,-1.8588,-1.8251,-1.7807,-1.7578,-1.7272,-1.6828,-1.7041,-1.7654,-1.8638,-1.9589,-2.0505,-2.138,-2.1814,-2.2128,-2.2338,-2.2338,-2.2338,-2.2338,-2.2338,-2.2218,-2.1984,-2.1085,-1.9324,-1.7033,-1.5991,-1.4907,-1.3742,0.0,0.0,0.0,0.0,0.0,0.0,0.0,0.0,0.0,0.0,0.0,0.0,0.0,0.0,0.0,0.0,0.0,0.0,0.0,0.0,0.0,0.0,0.0,0.0,0.0,0.0,0.0,0.0,0.0,0.0,0.0,0.0,0.0,0.0,-1.4977,-1.5457,-1.6685,-1.6576,-1.6548,-1.6904,-1.6604,-1.6489,-1.6689,-1.687,-1.7042,-1.7225,-1.7835,-1.8161,-1.8138,-1.8305,-1.8469,-1.8587,-1.8504,-1.8568,-1.8719,-1.824,-1.7703,-1.7105,-1.6857,-1.6267,-1.5484,-1.5701,-1.5577,-1.5182,-1.5001,-1.5001,-1.5097,-1.4248,-1.3567,-1.2968,-1.2297,-1.1676,-1.1084,0.0,0.0,-0.8094,-0.8094,-0.8125,-0.8356,-0.9027,-1.0272,-1.142,-1.2154,-1.4513,-1.6414,-1.7162,-1.8374,-1.9397,-2.0054,-1.9621,-1.9268,-1.9137,-1.859,-1.8268,-1.8283,-1.8849,-1.9438,-2.0051,-2.0593,-2.1458,-2.2688,-2.2733,-2.3062,-2.3625,-2.3625,-2.3625,-2.3625,-2.361,-2.3287,-2.2718,-2.2703,-2.158,-1.9642,-1.7893,-1.7016,-1.647,0.0,0.0,0.0,0.0,0.0,0.0,0.0,0.0,0.0,0.0,0.0,0.0,0.0,0.0,0.0,0.0,0.0,0.0,0.0,0.0,0.0,0.0,0.0,0.0,0.0,0.0,0.0,0.0,0.0,0.0,0.0,0.0,0.0,-1.4616,-1.5877,-1.697,-1.7455,-1.7357,-1.7391,-1.7781,-1.7487,-1.7499,-1.8074,-1.8127,-1.8349,-1.8885,-1.8776,-1.8686,-1.8631,-1.8501,-1.8625,-1.902,-1.902,-1.9284,-1.9798,-1.9265,-1.8709,-1.8093,-1.7506,-1.6916,-1.6413,-1.6423,-1.6433,-1.6394,-1.607,-1.5925,-1.5748,-1.396,-1.2921,-1.234,-1.168,-1.1086,-1.0616,-0.8094,-0.8094,-0.8094,-0.8094,-0.8503,-0.9057,-0.9727,-1.1004,-1.2323,-1.3498,-1.5549,-1.7163,-1.7854,-1.9161,-2.0037,-2.0237,-2.0118,-1.9976,-1.9825,-1.9757,-1.9914,-2.0286,-2.0429,-2.0786,-2.1432,-2.1923,-2.2374,-2.2776,-2.3646,-2.4156,-2.4321,-2.4321,-2.4321,-2.4291,-2.3819,-2.3505,-2.331,-2.2897,-2.2373,-2.1714,-1.9778,-1.8487,-1.7563,0.0,0.0,0.0,0.0,0.0,0.0,0.0,0.0,0.0,0.0,0.0,0.0,0.0,0.0,0.0,0.0,0.0,0.0,0.0,0.0,0.0,0.0,0.0,0.0,0.0,0.0,0.0,0.0,0.0,0.0,0.0,-1.5403,-1.6081,-1.6191,-1.6382,-1.6857,-1.7815,-1.7876,-1.8039,-1.8543,-1.8494,-1.8506,-1.8675,-1.8598,-1.8594,-1.875,-1.8939,-1.9049,-1.9037,-1.9282,-1.9459,-1.9585,-1.9585,-1.966,-1.9798,-1.9643,-1.9056,-1.8093,-1.7929,-1.7307,-1.6423,-1.6726,-1.6772,-1.6704,-1.6971,-1.6931,-1.6525,-1.4815,-1.3761,-1.3114,-1.2435,-1.182,-1.1357,-0.8094,-0.8094,-0.8094,-0.8094,-0.8657,-0.9327,-1.0004,-1.1528,-1.3001,-1.4067,-1.6194,-1.7777,-1.8161,-1.9454,-2.0304,-2.0304,-2.0304,-2.027,-2.0185,-2.0531,-2.0975,-2.1581,-2.1549,-2.1793,-2.2423,-2.2908,-2.329,-2.3561,-2.4545,-2.5023,-2.5023,-2.5023,-2.4874,-2.459,-2.4186,-2.3864,-2.358,-2.3242,-2.2942,-2.2598,-2.143,-2.0247,-1.9027,-1.7418,-1.7028,-1.7037,-1.4778,-1.4196,-1.427,-1.2706,0.0,0.0,0.0,0.0,0.0,0.0,0.0,0.0,0.0,0.0,0.0,0.0,0.0,0.0,0.0,0.0,0.0,0.0,0.0,0.0,0.0,0.0,0.0,0.0,-1.6243,-1.7057,-1.7309,-1.7205,-1.7434,-1.8336,-1.844,-1.8558,-1.8872,-1.8865,-1.8946,-1.9264,-1.9089,-1.9122,-1.9439,-1.9505,-1.9535,-1.9535,-1.9699,-1.9798,-1.9798,-1.9775,-1.9767,-1.9767,-1.9449,-1.8965,-1.83,-1.8054,-1.7556,-1.6964,-1.7182,-1.7235,-1.7164,-1.7008,-1.6992,-1.6921,0.0,0.0,0.0,0.0,-1.227,-1.1952,-0.8094,-0.8094,-0.8094,-0.8094,-0.8719,-0.9404,-1.0019,-1.1928,-1.3529,-1.4129,-1.6471,-1.813,-1.8192,-1.9392,-2.0227,-2.0289,-2.0304,-2.0335,-2.0412,-2.0965,-2.1609,-2.2344,-2.2329,-2.2583,-2.3213,-2.3679,-2.4168,-2.4747,-2.539,-2.5719,-2.5719,-2.5719,-2.5375,-2.4709,-2.4634,-2.4216,-2.3595,-2.3595,-2.3281,-2.2793,-2.2718,-2.1934,-2.0563,-1.8271,-1.7856,-1.8229,-1.6319,-1.5885,-1.6066,-1.5013,0.0,0.0,0.0,0.0,0.0,0.0,0.0,0.0,0.0,0.0,0.0,0.0,0.0,0.0,0.0,0.0,0.0,0.0,0.0,0.0,0.0,0.0,0.0,0.0,-1.6902,-1.7525,-1.8192,-1.8283,-1.8466,-1.895,-1.8992,-1.9005,-1.9094,-1.8967,-1.9164,-1.9841,-1.9636,-1.977,-2.041,-2.0144,0.0,0.0,0.0,-1.9924,-1.9987,-1.9855,-1.9793,-1.9777,-1.905,-1.8665,-1.8564,-1.8048,-1.776,-1.7709,-1.7729,-1.775,-1.7677,-1.6648,-1.6517,-1.6814,-1.5398,-1.4648,-1.4197,-1.2949,-1.2485,-1.2424,-0.8102,-0.8094,-0.8094,-0.8094,-0.9104,-0.9958,-1.0081,-1.2328,-1.4052,-1.419,-1.6056,-1.7608,-1.8146,-1.8961,-1.9703,-2.0258,-2.0304,-2.0535,-2.1073,-2.1121,-2.1678,-2.2887,-2.2928,-2.3468,-2.4596,-2.4594,-2.4935,-2.5574,-2.6126,-2.6408,-2.6408,-2.6408,-2.6048,-2.5367,-2.4844,-2.4216,-2.3595,-2.3595,-2.3535,-2.337,-2.2897,-2.2224,-2.1406,-2.037,-2.0078,-1.999,-1.8269,-1.7855,-1.7956,-1.6693,-1.5846,-1.5168,-1.4243,-1.2878,0.0,0.0,0.0,0.0,0.0,0.0,0.0,0.0,0.0,0.0,0.0,0.0,0.0,0.0,0.0,0.0,0.0,0.0,0.0,-1.7556,-1.7831,-1.8283,-1.9329,-1.9473,-1.9512,-1.9616,-1.9534,-1.9705,-2.0294,-2.0224,-2.0201,-2.0343,-2.018,-2.0067,-2.008,-1.9914,-2.005,-2.0542,-2.0528,-2.0742,-2.1154,-2.0625,-2.0344,-2.0344,-1.9662,0.0,-1.8594,-1.8484,-1.8159,-1.7719,-1.7922,-1.8034,-1.7968,-1.7402,-1.6444,-1.5298,-1.483,-1.3933,-1.2882,-1.2586,-1.2485,-1.2453,-0.809,-0.8096,-0.8094,-0.8094,-0.9204,-1.0103,-1.0103,-1.2143,-1.3821,-1.416,-1.567,-1.6947,-1.7638,-1.867,-1.9425,-1.9765,-2.0119,-2.058,-2.1257,-2.1541,-2.2129,-2.3065,-2.3488,-2.4063,-2.488,-2.5221,-2.565,-2.6204,-2.6801,-2.7106,-2.7106,-2.7106,-2.6557,-2.56,-2.5247,-2.453,-2.3595,-2.3595,-2.3595,-2.3565,-2.3266,-2.2936,-2.2512,-2.1361,-2.1045,-2.1008,-1.9644,-1.9398,-1.951,-1.831,-1.762,-1.711,-1.6272,-1.4945,-1.3579,0.0,0.0,0.0,0.0,0.0,0.0,0.0,0.0,0.0,0.0,0.0,0.0,0.0,0.0,-1.5632,-1.6245,0.0,-1.7525,-1.8362,-1.8754,-1.9146,-1.9721,-2.0048,-2.0255,-2.0255,-2.0182,-2.0274,-2.0586,-2.0448,-2.0347,-2.0347,-2.0131,-2.013,-2.0434,-2.0317,-2.0515,-2.1081,-2.1106,-2.1066,-2.1002,-2.0593,-2.0249,-1.9878,-1.9483,-1.9134,-1.885,-1.885,-1.8638,-1.8252,-1.8379,-1.8405,-1.8261,-1.7532,-1.6053,-1.4235,-1.4506,-1.392,-1.3009,-1.3009,-1.3009,-1.289,-0.8065,-0.8076,-0.8089,-0.8094,-0.9204,-1.0103,-1.0103,-1.1866,-1.339,-1.3929,-1.5178,-1.6256,-1.6932,-1.813,-1.9009,-1.9271,-1.9886,-2.0562,-2.1206,-2.1879,-2.2501,-2.3096,-2.3846,-2.445,-2.4836,-2.5455,-2.6059,-2.6636,-2.7151,-2.7465,-2.76,-2.7465,-2.6752,-2.5576,-2.5457,-2.4747,-2.3595,-2.3595,-2.3595,-2.3595,-2.3595,-2.3595,-2.3454,-2.1963,-2.1543,-2.155,-2.0421,-2.0233,-2.0367,-1.9501,-1.9008,-1.864,-1.7847,-1.673,-1.5589,-1.492,-1.387,0.0,0.0,0.0,0.0,0.0,0.0,0.0,0.0,-1.4859,-1.5108,-1.5696,-1.6297,-1.6885,-1.7434,-1.7931,-1.844,-1.8989,-1.9486,-1.9839,-1.9956,-2.0374,-2.0662,-2.0662,-2.0624,-2.0549,-2.0461,-2.0271,-2.0156,-2.0156,-2.0079,-2.0266,-2.0825,-2.0723,-2.0914,-2.145,-2.132,-2.1055,-2.0611,-2.0381,-1.9988,-1.9433,-1.9217,-1.9108,-1.9108,-1.9108,-1.9008,-1.8774,-1.8563,-1.8259,-1.7886,-1.7001,-1.5392,-1.3564,-1.415,-1.4013,-1.3492,-1.3492,-1.3492,-1.3346,-0.8032,-0.797,-0.8027,-0.8096,-0.9204,-1.0103,-1.0103,-1.1866,-1.3232,-1.3298,-1.4483,-1.5562,-1.6239,-1.6978,-1.7946,-1.9194,-1.9802,-2.0408,-2.1081,-2.1675,-2.2376,-2.3162,-2.3737,-2.435,-2.5048,-2.4971,-2.5537,-2.6772,-2.6735,-2.7031,-2.7585,-2.7001,-2.6303,-2.5561,-2.4978,-2.4291,-2.3595,-2.3595,-2.3595,-2.3595,-2.3595,-2.3595,-2.352,-2.2811,-2.2183,-2.153,-2.0221,-1.9776,-1.9794,-1.9669,-1.9391,-1.8865,-1.7916,-1.7242,-1.6706,-1.6082,-1.5176,-1.4449,-1.4836,-1.458,-1.4219,-1.4284,-1.4755,-1.5238,0.0,-1.58,-1.6349,-1.6898,-1.7486,-1.8074,-1.861,-1.8767,-1.9015,-1.9603,-1.976,-1.9982,-2.0504,-2.0548,-2.0511,-2.0511,-2.0372,-2.0258,-2.0233,-2.0118,-2.0016,-2.0016,-2.0497,-2.0748,-2.0718,-2.0603,-2.0776,-2.1312,-2.0728,-2.0626,-2.1014,-2.0448,-2.0084,-1.9987,-1.9398,-1.9108,-1.9108,-1.9108,-1.9008,-1.8741,-1.7731,-1.6793,-1.5948,-1.5207,-1.433,-1.3499,-1.3601,-1.3564,-1.3492,-1.3492,-1.3492,-1.3346,-0.9116,-0.9088,-0.9135,-0.9193,-0.9659,-1.004,-1.004,-1.1439,-1.2641,-1.3027,-1.3612,-1.4234,-1.4896,-1.5965,-1.7331,-1.9148,-1.9516,-1.9894,-2.0482,-2.1133,-2.1748,-2.2353,-2.3041,-2.3849,-2.4784,-2.4784,-2.5243,-2.609,-2.6057,-2.6153,-2.6422,-2.6153,-2.5674,-2.5008,-2.4724,-2.4216,-2.3595,-2.3595,-2.3595,-2.3595,-2.3595,-2.3385,-2.3017,-2.2373,-2.1695,-2.1051,-2.0483,-2.0288,0.0,-1.9842,-1.9599,-1.9391,-1.895,-1.8288,-1.7602,-1.7387,-1.6585,-1.5763,-1.5772,-1.5448,-1.5199,-1.5552,-1.6062,-1.6584,-1.6924,-1.7447,-1.7917,-1.814,-1.8388,-1.8741,-1.9316,-1.942,-1.9616,-2.0229,-2.0321,-2.053,-2.1093,-2.1133,-2.1147,-2.1313,-2.1233,-2.1038,-2.0653,-2.0855,-2.1091,-2.131,-2.1851,-2.2317,-2.2585,-2.2128,-2.1968,-2.2289,-2.1568,-2.096,-2.0516,-2.0226,-1.9911,-1.9518,-1.9231,-1.9108,-1.9108,-1.9108,-1.8942,-1.8573,-1.7457,-1.6515,-1.564,-1.4887,-1.4158,-1.3492,-1.3492,-1.3492,-1.3492,-1.3492,-1.3273,-1.2863,-0.9941,-0.9896,-0.9914,-0.9973,-1.0109,-1.024,-1.0267,-1.1257,-1.2169,-1.2655,-1.2932,-1.3332,-1.4017,-1.5185,-1.6578,-1.83,-1.8608,-1.9021,-1.9779,-2.0431,-2.1029,-2.156,-2.2259,-2.3019,-2.3854,-2.3906,-2.4236,-2.4837,-2.4971,-2.5128,-2.5307,-2.5307,-2.5068,-2.459,-2.441,-2.4036,-2.3595,-2.3415,-2.334,-2.3325,-2.3146,-2.2802,-2.2358,-2.168,-2.1126,-2.0673,-2.0498,-2.0423,-2.0363,-1.9854,-1.9708,-1.969,-1.9581,-1.8929,-1.8223,-1.8267,-1.7632,-1.6895,-1.6632,-1.6403,-1.635,-1.6903,-1.7334,-1.7787,-1.8218,-1.8623,-1.895,-1.912,-1.9159,-1.9342,-1.993,-2.0035,-2.0203,-2.0633,-2.0699,-2.0883,-2.1433,-2.1433,-2.1574,-2.2093,-2.2058,-2.1949,-2.1787,-2.1809,-2.2046,-2.2498,-2.3032,-2.3521,-2.3979,-2.3192,-2.2799,-2.2876,-2.1922,-2.1018,-2.0201,-2.0072,-1.9786,-1.9295,-1.917,-1.9108,-1.9108,-1.8975,-1.8774,-1.8414,-1.7139,-1.6237,-1.5648,-1.4784,-1.4122,-1.3638,-1.3733,-1.3762,-1.3762,-1.3762,-1.3276,-1.2539,-1.0009,-0.9899,-0.9899,-0.9899,-1.0398,-1.0817,-1.0949,-1.1561,-1.2017,-1.2032,-1.2594,-1.3286,-1.4017,-1.4717,-1.5463,-1.6225,-1.6886,-1.7792,-1.9045,-1.9708,-2.0324,-2.1007,-2.1482,-2.1858,-2.2085,-2.1904,-2.2159,-2.2892,-2.3419,-2.3999,-2.4634,-2.4634,-2.4634,-2.4575,-2.3924,-2.3625,-2.3565,-2.2987,-2.2718,-2.2673,-2.2009,-2.1739,-2.1665,-2.0991,-2.0718,-2.0598,-1.9959,-1.9738,-1.9738,-1.9708,-1.9708,-1.9636,-1.925,-1.8827,-1.8486,-1.8491,-1.8145,-1.7753,-1.7753,-1.7881,-1.8118,-1.8521,-1.8746,-1.8858,-1.8872,-1.8898,-1.9068,-1.9656,-1.9773,-1.9956,-2.0543,-2.0673,-2.0686,-2.0699,-2.0699,-2.0883,-2.1433,-2.1289,-2.1527,-2.2629,-2.2499,-2.2711,-2.3791,-2.2924,-2.251,-2.3045,-2.364,-2.3979,-2.4004,-2.3093,-2.2615,-2.2615,-2.118,-2.0435,-2.0379,-1.999,-1.9806,-1.9772,-1.9316,-1.9108,-1.9108,-1.8717,-1.8516,-1.8414,-1.655,-1.571,-1.5594,-1.4482,-1.4005,-1.4034,-1.435,-1.4482,-1.4482,-1.4482,-1.3691,-1.2566,-1.1206,-1.1161,-1.1161,-1.1161,-1.1326,-1.1486,-1.1528,-1.1708,-1.1869,-1.1869,-1.2098,0.0,0.0,0.0,0.0,0.0,-1.6119,-1.6902,-1.7716,-1.8748,-1.9641,-2.0309,-2.0787,-2.1304,-2.1862,-2.1759,-2.1819,-2.2069,-2.2254,-2.2458,-2.2682,-2.2682,-2.2682,-2.2667,-2.2443,-2.2338,-2.2323,-2.2113,-2.2044,-2.2029,-2.1784,-2.144,-2.0957,-2.0288,-1.9765,-1.9301,0.0,-1.8942,-1.9708,-1.9708,-1.9708,-1.969,-1.9545,-1.9217,-1.8841,-1.8592,-1.8383,-1.827,-1.8365,-1.8262,-1.8223,-1.8697,-1.917,-1.9499,-1.9499,-1.9823,-2.0151,-2.036,-2.0399,-2.0451,-2.0673,-2.0699,-2.0699,-2.0699,-2.0637,-2.0861,-2.1769,-2.1751,-2.201,-2.3072,-2.3082,-2.321,-2.3676,-2.3852,-2.4161,-2.4732,-2.531,-2.5423,-2.4893,-2.4049,-2.3242,-2.2444,-2.1409,-2.0596,-2.0021,-1.9865,-1.9637,-1.9336,-1.9181,-1.9108,-1.9075,-1.8172,-1.7885,-1.8005,-1.6105,-1.5418,-1.5578,-1.4706,-1.4342,-1.435,-1.4467,-1.4184,-1.377,-1.377,-1.2975,-1.1928,-1.1805,-1.1805,-1.1805,-1.1805,-1.1805,0.0,0.0,0.0,0.0,0.0,0.0,0.0,0.0,0.0,0.0,0.0,0.0,-1.5541,-1.6661,-1.7456,-1.8303,-1.9229,-1.977,-2.0272,-2.0681,-2.0952,-2.1068,-2.1015,-2.1255,-2.1394,-2.1374,-2.161,-2.1695,-2.1695,-2.1695,-2.1695,-2.168,-2.144,-2.1335,-2.1306,-2.0827,-2.0378,-1.9896,-1.9241,-1.8717,0.0,-1.7848,-1.8184,-1.8832,-1.8937,-1.9066,-1.9173,-1.9295,-1.9134,-1.8765,-1.8206,-1.8193,-1.8413,-1.8636,-1.8715,-1.8826,-1.9327,-1.9774,-2.0137,-2.0137,-2.0255,-2.0373,-2.0373,-2.0191,-2.0023,-2.0023,-2.018,-2.0286,-2.0237,-2.0369,-2.0862,-2.1879,-2.1911,-2.2298,-2.3542,-2.3439,-2.3374,-2.3649,-2.3923,-2.4359,-2.502,-2.5409,-2.5441,-2.4898,-2.4131,-2.3341,-2.2579,-2.1602,-2.0834,-2.0255,-1.9958,-1.953,-1.9008,-1.8908,-1.8812,-1.8648,-1.7839,-1.7506,-1.7488,-1.5943,-1.5413,-1.5558,-1.4928,-1.464,-1.4648,-1.4518,-1.4186,-1.3729,-1.3494,-1.2723,-1.1852,-1.1805,-1.1805,-1.1805,0.0,0.0,0.0,0.0,0.0,0.0,0.0,0.0,0.0,0.0,0.0,0.0,0.0,0.0,0.0,-1.5807,-1.5879,-1.6471,-1.7834,-1.8467,-1.8761,-1.8657,-1.9479,-1.9814,-1.9692,-2.0324,-2.064,-2.0655,-2.1225,-2.15,-2.15,-2.15,-2.15,-2.1436,-2.0789,-2.0501,-2.0382,-1.9113,-1.8576,-1.8487,-1.7815,-1.753,-1.7501,-1.7471,-1.7261,-1.7076,-1.754,-1.7916,-1.8256,-1.8612,-1.863,-1.8338,-1.7515,-1.7686,-1.8232,-1.8634,-1.9256,-1.9895,-2.0308,-2.0558,-2.0699,-2.0673,-2.0216,-1.9799,-1.9773,-1.9235,-1.8802,-1.8802,-1.9216,-1.9518,-1.9436,-1.9973,-2.0785,-2.1772,-2.1773,-2.2284,-2.3956,-2.3447,-2.3164,-2.3661,-2.3099,-2.3018,-2.3851,-2.4026,-2.4049,-2.4036,-2.3386,-2.2953,-2.2883,-2.175,-2.1093,-2.1041,-2.0172,-1.9442,-1.8808,-1.8569,-1.8267,-1.7887,-1.7629,-1.7314,-1.693,-1.5988,-1.5582,-1.5552,-1.511,-1.4929,-1.4877,-1.4539,-1.4398,-1.4272,-1.3603,-1.2918,-1.2285,0.0,0.0,0.0,0.0,0.0,0.0,0.0,0.0,0.0,0.0,0.0,0.0,0.0,0.0,0.0,0.0,0.0,0.0,-1.3758,-1.4656,-1.5565,-1.6468,-1.6984,-1.7523,-1.8099,-1.8282,-1.8325,-1.824,-1.8457,-1.8547,-1.8495,-1.8657,-1.8715,-1.8715,-1.8715,-1.8579,-1.8341,-1.8162,-1.7949,-1.7694,-1.7346,-1.6975,-1.6533,-1.5869,-1.5337,-1.4876,-1.4385,-1.4267,-1.4721,-1.6951,-1.7895,-1.8216,-1.8819,-1.8769,-1.8481,-1.8357,-1.8446,-1.8704,-1.9337,-1.9672,-1.9928,-2.0494,-2.0668,-2.0594,-2.0137,-1.9904,-1.9682,-1.9224,-1.8949,-1.8802,-1.8802,-1.8905,-1.9115,-1.9492,-1.9613,-2.0206,-2.1692,-2.1716,-2.2002,-2.3231,-2.2764,-2.2301,-2.2294,-2.171,-2.1311,-2.1357,-2.2786,-2.3527,-2.329,-2.3102,-2.2578,-2.1623,-2.1287,-2.0793,-2.0145,-1.9438,-1.8954,-1.8774,-1.8301,-1.8005,-1.7861,-1.6824,-1.6373,-1.6439,-1.5478,-1.523,-1.542,-1.5311,-1.5265,-1.5223,-1.4622,-1.4104,-1.3561,-1.2918,-1.2198,-1.1553,0.0,0.0,0.0,0.0,0.0,0.0,0.0,0.0,0.0,0.0,0.0,0.0,0.0,0.0,0.0,0.0,0.0,0.0,0.0,-1.3594,-1.4302,-1.5059,-1.5614,-1.6113,-1.6533,-1.6849,-1.7121,-1.7343,-1.709,-1.7255,-1.7778,-1.743,-1.7413,-1.7699,-1.7384,-1.7154,-1.6963,-1.67,-1.6409,0.0,0.0,-1.5441,-1.4993,-1.4325,-1.3856,-1.3501,-1.3146,-1.3277,-1.397,-1.6239,-1.7196,-1.7566,-1.8295,-1.8559,-1.8576,-1.8473,-1.879,-1.9269,-1.9688,-1.9982,-2.0281,-2.0633,-2.0699,-2.053,-1.9943,-1.9569,-1.9193,-1.8595,-1.8161,-1.7894,-1.7894,-1.8109,-1.8402,-1.8605,-1.9067,-1.985,-2.1185,-2.1453,-2.1809,-2.2554,-2.2063,-2.1513,-2.1103,-2.0445,-2.0077,-2.0135,-2.1582,-2.2368,-2.2184,-2.2168,-2.1829,-2.1124,-2.0731,-2.0218,-1.9502,-1.8773,-1.839,-1.84,-1.7711,-1.7265,-1.7098,-1.6341,-1.5976,-1.5871,-1.5349,-1.5221,-1.5389,-1.5389,-1.5389,-1.5298,-1.4321,-1.373,-1.3264,-1.2283,-1.1645,-1.1305,0.0,0.0,0.0,0.0,0.0,0.0,0.0,0.0,0.0,-1.2002,-1.197,-1.1985,-1.1939,-1.1925,0.0,0.0,0.0,0.0,0.0,0.0,-1.2699,-1.3419,-1.4094,-1.4474,-1.4526,-1.5321,-1.597,-1.6487,-1.5915,-1.6231,-1.7331,-1.6638,-1.6622,-1.7113,-1.6531,-1.6218,-1.6113,-1.558,-1.5169,-1.479,-1.4212,-1.3755,-1.3347,0.0,-1.2545,-1.2559,-1.2785,-1.3193,-1.3889,-1.5478,-1.6235,-1.6661,-1.7526,-1.8186,-1.858,-1.8289,-1.8963,-1.9839,-1.9995,-2.036,-2.0725,-2.0804,-2.0687,-2.0412,-1.9802,-1.9157,-1.8517,-1.7898,-1.72,-1.6697,-1.6697,-1.7177,-1.7543,-1.7453,-1.8465,-1.9558,-2.0388,-2.1009,-2.151,-2.192,-2.1365,-2.0764,-2.026,-1.9527,-1.9274,-1.9679,-2.0462,-2.0959,-2.0984,-2.1083,-2.1062,-2.0938,-2.004,-1.9397,-1.899,-1.8174,-1.7772,-1.7756,-1.6989,-1.6431,-1.6111,-1.6046,-1.5797,-1.5389,-1.5389,-1.5389,-1.5389,-1.5389,-1.5347,-1.5131,-1.3906,-1.3355,-1.3094,-1.178,-1.1305,-1.1305,0.0,0.0,0.0,0.0,0.0,0.0,0.0,0.0,0.0,0.0,-1.2865,-1.2929,0.0,0.0,0.0,0.0,0.0,0.0,0.0,0.0,0.0,-1.1137,-1.1807,-1.2479,-1.3133,-1.388,-1.4287,-1.4332,-1.4274,-1.4334,-1.4511,-1.4378,-1.4244,-1.4131,-1.4028,-1.3696,-1.3219,-1.3122,-1.2622,-1.1925,-1.179,-1.1161,-1.0267,-1.0149,0.0,0.0,-1.168,-1.2249,-1.2658,-1.4866,-1.5826,-1.6291,-1.7442,-1.7992,-1.8289,-1.8646,-1.9251,-2.0009,-2.0963,-2.0962,-2.0817,-2.125,-2.0649,-1.9775,-1.9121,-1.8513,-1.7873,-1.7196,-1.6867,-1.6697,-1.6697,-1.6807,-1.7032,-1.7556,-1.8157,-1.8803,-1.9449,-2.0211,-2.0812,-2.1229,-2.0677,-2.0391,-2.0664,-1.9718,-1.9139,-1.9222,-1.972,-2.0162,-2.0488,-2.0907,-2.0772,-2.0052,-1.9059,-1.8507,-1.8372,-1.7619,-1.7206,-1.7138,-1.6503,-1.6166,-1.6079,-1.5695,-1.5496,-1.5389,-1.5389,-1.5389,-1.5389,-1.5389,-1.5082,-1.4482,-1.373,-1.3052,-1.2448,-1.1602,-1.1305,-1.1305,0.0,0.0,0.0,0.0,0.0,0.0,0.0,-1.3268,-1.3803,-1.3962,-1.4131,-1.3867,-1.2918,-1.251,-1.2253,0.0,0.0,0.0,0.0,0.0,0.0,0.0,0.0,0.0,-1.1021,-1.1648,-1.1986,-1.1989,0.0,-1.2147,-1.2484,-1.2135,-1.2106,-1.2289,-1.1944,-1.162,-1.1327,-1.1023,-1.0568,-1.0054,-1.0054,-0.964,-0.9031,0.0,0.0,0.0,-1.1082,-1.1761,-1.2268,-1.4023,-1.5117,-1.5947,-1.7116,-1.7972,-1.8571,-1.8832,-1.9538,-2.0386,-2.0949,-2.0883,-2.0777,-2.1027,-2.0427,-1.9632,-1.8942,-1.8267,-1.7543,-1.659,-1.6274,-1.6082,-1.5812,-1.6043,-1.6376,-1.6629,-1.7177,-1.7844,-1.8577,-1.9039,-1.9529,-2.0138,-2.0136,-2.0161,-2.0288,-1.98,-1.9461,-1.9461,-1.9668,-1.9886,-2.0069,-2.0286,-1.9994,-1.9052,-1.8508,-1.8075,-1.7726,-1.7031,-1.6682,-1.6627,-1.6021,-1.5754,-1.5713,-1.5516,-1.5389,-1.5389,-1.5389,-1.5389,-1.5389,-1.5041,-1.4699,-1.4314,-1.33,-1.2668,-1.232,-1.1559,-1.1305,-1.1305,0.0,0.0,0.0,0.0,0.0,0.0,0.0,-1.4003,-1.4691,-1.4969,-1.5111,-1.4681,-1.3334,-1.2664,-1.228,0.0,0.0,0.0,0.0,0.0,0.0,0.0,0.0,0.0,-0.9351,0.0,0.0,-1.0481,-1.0413,0.0,0.0,0.0,0.0,0.0,-1.031,-0.9985,-0.9905,-0.9435,-0.9028,0.0,0.0,-0.8532,-0.825,0.0,0.0,0.0,0.0,-1.137,-1.2035,-1.3343,-1.4376,-1.5306,-1.6604,-1.7778,-1.8728,-1.8728,-1.9588,-2.053,-2.0673,-2.0699,-2.0699,-2.0699,-2.0139,-1.9402,-1.8714,-1.7929,-1.7054,-1.6059,-1.5679,-1.5399,-1.4972,-1.5349,-1.5685,-1.5611,-1.6152,-1.6848,-1.7531,-1.7823,-1.8278,-1.9076,-1.9609,-1.9864,-1.982,-1.9793,-1.9751,-1.9658,-1.9647,-1.9689,-1.9793,-1.9596,-1.9113,-1.8296,-1.7999,-1.7604,-1.7085,-1.6439,-1.6102,-1.6109,-1.5629,-1.5389,-1.5389,-1.5389,-1.5389,-1.5389,-1.5389,-1.5298,-1.5131,-1.4608,-1.4223,-1.3886,-1.2833,-1.2277,-1.2112,-1.1516,-1.1305,-1.1316,0.0,0.0,0.0,0.0,0.0,0.0,0.0,-1.387,-1.4616,-1.4638,-1.5123,-1.5189,-1.4498,-1.3958,-1.3165,0.0,0.0,0.0,0.0,0.0,0.0,0.0,0.0,0.0,0.0,0.0,0.0,-1.1024,-1.1012,0.0,0.0,0.0,0.0,0.0,0.0,-0.8992,-0.8754,-0.8691,0.0,0.0,0.0,0.0,0.0,0.0,0.0,0.0,0.0,-1.0769,-1.1528,-1.3229,-1.379,-1.4068,-1.5757,-1.7154,-1.8166,-1.8166,-1.8989,-1.9995,-2.0543,-2.0699,-2.0699,-2.0699,-1.9791,-1.8701,-1.7984,-1.6914,-1.6008,-1.5759,-1.5311,-1.4947,-1.4916,-1.5003,-1.5111,-1.524,-1.5674,-1.6003,-1.609,-1.6784,-1.7604,-1.8396,-1.8916,-1.9352,-1.9751,-1.9793,-1.9616,-1.9202,-1.917,-1.9347,-1.9772,-1.8923,-1.8375,-1.82,-1.7198,-1.657,-1.6393,-1.5849,-1.5519,-1.5462,-1.5416,-1.5389,-1.5389,-1.5389,-1.5389,-1.5389,-1.5389,-1.5041,-1.4482,-1.444,-1.3675,-1.2577,-1.2448,-1.1983,-1.1392,-1.1305,-1.1305,-1.1337,0.0,0.0,0.0,0.0,0.0,0.0,-1.3291,-1.4419,-1.5134,-1.5134,-1.5343,-1.5408,-1.516,-1.4339,-1.3369,-1.2293,0.0,0.0,0.0,0.0,0.0,0.0,0.0,0.0,0.0,0.0,-0.9954,-0.9592,-0.9954,0.0,0.0,0.0,0.0,0.0,0.0,-0.8155,-0.8044,-0.7711,0.0,0.0,0.0,0.0,0.0,0.0,0.0,0.0,0.0,0.0,-1.1303,-1.2361,-1.3074,-1.3728,-1.4826,-1.5938,-1.6993,-1.7757,-1.8572,-1.9272,-1.9538,-1.9627,-1.9616,-1.9558,-1.89,-1.8161,-1.7728,-1.6735,-1.5772,-1.5318,-1.461,-1.3956,-1.3576,-1.3651,-1.3846,-1.4184,-1.4433,-1.4751,-1.5296,-1.5661,-1.6206,-1.7095,-1.8331,-1.9181,-1.9357,-1.9841,-1.9862,-1.916,-1.8808,-1.8686,-1.8829,-1.8472,-1.8008,-1.7539,-1.6785,-1.6215,-1.5832,-1.5571,-1.5415,-1.5389,-1.5389,-1.5389,-1.5389,-1.5389,-1.5389,-1.5389,-1.5389,-1.5041,-1.4356,-1.3977,-1.331,-1.2543,-1.2118,-1.1822,-1.1558,-1.1558,-1.1429,-1.123,0.0,0.0,0.0,0.0,0.0,-1.2361,-1.3386,-1.4493,-1.5225,-1.5225,-1.5382,-1.5421,-1.5251,-1.4524,-1.3569,-1.2389,-1.1937,0.0,0.0,0.0,0.0,0.0,0.0,0.0,0.0,0.0,-0.9619,-0.9372,-0.9787,-0.9787,0.0,0.0,-0.9022,-0.8837,0.0,0.0,0.0,0.0,0.0,0.0,0.0,0.0,0.0,0.0,0.0,0.0,0.0,0.0,0.0,0.0,0.0,-1.3105,-1.3916,-1.4767,-1.5696,-1.7002,-1.7946,-1.8552,-1.8595,-1.8734,-1.8816,-1.8536,-1.8129,-1.7641,-1.7046,-1.6145,-1.5217,-1.4457,-1.3549,-1.2788,-1.2508,-1.2464,-1.2677,-1.3275,-1.3411,-1.3776,-1.4674,-1.4902,-1.5339,-1.6299,-1.7999,-1.9046,-1.8911,-1.9435,-1.9481,-1.8738,-1.8266,-1.791,-1.7716,-1.7669,-1.7404,-1.6876,-1.6356,-1.5887,-1.5478,-1.5437,-1.5389,-1.5389,-1.5389,-1.5389,-1.5389,-1.5389,-1.5389,-1.5389,-1.5173,-1.4699,-1.4062,-1.3392,-1.277,-1.2239,-1.1767,-1.1596,-1.1596,-1.1596,-1.145,-1.1186,0.0,0.0,0.0,0.0,0.0,0.0,-1.2823,-1.3883,-1.4598,-1.4598,-1.5121,-1.5265,-1.4663,-1.4598,-1.3892,-1.2164,-1.2007,0.0,0.0,0.0,0.0,0.0,0.0,0.0,0.0,0.0,-1.0586,-1.1161,-1.1174,-1.1174,-1.1161,-1.056,-0.9999,-0.9459,0.0,0.0,0.0,0.0,0.0,0.0,0.0,0.0,0.0,0.0,0.0,0.0,0.0,0.0,0.0,0.0,0.0,0.0,0.0,-1.3732,-1.4398,-1.5788,-1.7005,-1.7921,-1.7921,-1.8348,-1.8636,-1.7897,-1.7654,-1.7207,-1.5673,-1.4797,-1.4046,-1.3112,-1.2121,-1.1566,-1.2021,-1.1774,-1.1795,-1.2674,-1.2858,-1.3248,-1.4179,-1.4707,-1.5339,-1.6299,-1.7999,-1.8922,-1.8465,-1.8354,-1.8134,-1.774,-1.7476,-1.7081,-1.6548,-1.6401,-1.6332,-1.6293,-1.58,-1.5453,-1.5416,-1.5382,-1.5389,-1.5389,-1.5389,-1.5389,-1.5389,-1.5389,-1.5389,-1.5347,-1.4699,-1.4019,-1.3349,-1.2705,-1.1989,-1.1311,-1.1311,-1.1311,-1.1311,-1.1311,-1.1311,-1.1207,0.0,0.0,0.0,0.0,0.0,0.0,0.0,-1.3836,-1.4598,-1.4598,-1.4773,-1.4807,-1.4611,-1.3909,-1.3056,-1.2086,-1.2007,0.0,0.0,0.0,0.0,0.0,0.0,0.0,0.0,-1.0625,-1.1017,-1.1201,-1.1579,-1.1748,-1.1748,-1.1551,-1.1146,-1.0573,-0.9964,-0.9127,0.0,0.0,0.0,0.0,0.0,0.0,-0.6735,0.0,0.0,0.0,0.0,0.0,0.0,0.0,0.0,0.0,0.0,0.0,0.0,-1.3823,-1.5242,-1.6637,-1.7093,-1.7372,-1.7353,-1.6691,-1.6281,-1.5782,-1.4879,-1.3991,-1.3252,-1.2954,-1.2147,-1.1511,-1.1649,-1.1359,-1.1393,-1.231,-1.2486,-1.2793,-1.3703,-1.4511,-1.5101,-1.5401,-1.6727,-1.8014,-1.9113,-1.807,-1.7364,-1.7424,-1.6731,-1.6339,-1.6357,-1.5992,-1.5872,-1.6142,-1.5668,-1.5403,-1.5389,-1.5389,-1.5498,-1.5717,-1.5717,-1.5562,-1.5262,-1.5111,-1.4756,-1.422,-1.3851,-1.3349,-1.2705,-1.2491,-1.2086,-1.1591,-1.1591,-1.1591,-1.1591,-1.1591,-1.1046,-1.0217,0.0,0.0,0.0,0.0,0.0,0.0,0.0,-1.2951,-1.3581,-1.3581,-1.3598,-1.3631,-1.3631,-1.288,-1.2129,-1.1561,-1.1367,0.0,0.0,0.0,0.0,0.0,0.0,0.0,-1.0548,-1.0937,-1.1327,-1.1727,-1.2295,-1.2448,-1.2228,-1.246,-1.2062,-1.111,-1.0553,-0.9692,0.0,0.0,0.0,0.0,0.0,0.0,-0.6495,0.0,0.0,0.0,0.0,0.0,0.0,0.0,0.0,0.0,0.0,0.0,0.0,0.0,-1.3706,-1.4962,-1.5806,-1.6003,-1.5903,-1.5507,-1.504,-1.4506,-1.3769,-1.3111,-1.2574,-1.2232,-1.1536,-1.1052,-1.1234,-1.1069,-1.1209,-1.2162,-1.2421,-1.2834,-1.3745,-1.4521,-1.5227,-1.5894,-1.6514,-1.7358,-1.8663,-1.7433,-1.6572,-1.6558,-1.6084,-1.5816,-1.5963,-1.5872,-1.5967,-1.6208,-1.5814,-1.5672,-1.5782,-1.5782,-1.5884,-1.6089,-1.5777,-1.5449,-1.5065,-1.462,-1.4132,-1.359,-1.3212,-1.279,0.0,-1.2112,-1.182,-1.1569,-1.1569,-1.1569,-1.1525,-1.1162,-1.0543,-0.9728,0.0,0.0,0.0,0.0,0.0,0.0,0.0,-1.1513,-1.189,-1.189,-1.1919,-1.1963,-1.1963,-1.1617,-1.12,-1.0689,0.0,0.0,0.0,0.0,0.0,0.0,0.0,0.0,-1.0914,-1.1056,-1.1602,-1.2567,-1.3205,-1.323,-1.2694,-1.3255,-1.2722,-1.1231,-1.077,-0.998,0.0,0.0,0.0,0.0,-0.6362,-0.6221,0.0,0.0,0.0,0.0,0.0,0.0,0.0,0.0,0.0,0.0,0.0,0.0,0.0,0.0,0.0,0.0,0.0,-1.4395,-1.4425,-1.4315,-1.3944,-1.3357,-1.2456,-1.2226,0.0,-1.1079,-1.0551,-1.0386,-1.0869,-1.095,-1.1249,-1.2182,-1.2679,-1.3256,-1.413,-1.4682,-1.5629,-1.7357,-1.7058,-1.6911,-1.7421,-1.6502,-1.5755,-1.5412,-1.5444,-1.546,-1.5474,-1.6052,-1.6426,-1.6448,-1.6126,-1.6111,-1.6411,-1.6411,-1.6382,-1.6359,-1.5589,-1.5082,-1.4781,-1.4012,-1.3504,-1.3253,-1.2589,-1.232,-1.2283,-1.1564,-1.1305,-1.1305,-1.1305,-1.1262,-1.1084,-1.0207,-0.9816,-0.9462,0.0,0.0,0.0,0.0,0.0,0.0,0.0,0.0,0.0,0.0,-1.1653,-1.1535,-1.1535,-1.0883,-1.0377,0.0,0.0,0.0,0.0,0.0,0.0,0.0,0.0,0.0,-1.0156,-1.1571,-1.2295,-1.2288,-1.3208,-1.3579,-1.343,-1.3579,-1.3026,-1.1862,-1.1399,-0.9951,0.0,0.0,0.0,0.0,-0.6088,-0.6052,0.0,0.0,0.0,0.0,-0.8104,-0.8544,0.0,0.0,0.0,0.0,0.0,0.0,0.0,0.0,-1.069,-1.1361,-1.1666,0.0,-1.3807,-1.3419,-1.297,-1.247,0.0,-1.149,-1.1159,-1.095,-1.0817,-1.0879,-1.1363,-1.1436,-1.1726,-1.2617,-1.3132,-1.3508,-1.3721,-1.4387,-1.5387,-1.6908,-1.6509,-1.6323,-1.683,-1.5698,-1.5072,-1.5459,-1.5205,-1.5374,-1.6104,-1.6331,-1.6529,-1.6778,-1.6719,-1.6595,-1.6411,-1.6411,-1.6217,-1.5857,-1.5675,-1.5002,-1.389,-1.3489,-1.2853,-1.2086,-1.1728,-1.1564,-1.1564,-1.1392,-1.1305,-1.1305,-1.1305,-1.0868,-1.0212,-0.999,-0.8982,-0.7709,0.0,0.0,0.0,0.0,0.0,0.0,0.0,0.0,0.0,0.0,0.0,-1.0571,-1.0442,-0.9852,0.0,0.0,0.0,0.0,0.0,0.0,0.0,0.0,0.0,-1.0208,-1.0486,-1.1704,-1.2467,-1.2754,-1.3567,-1.3831,-1.3561,-1.3843,-1.3325,-1.2095,-1.1003,-0.9455,0.0,0.0,0.0,-0.5861,-0.5861,0.0,0.0,0.0,0.0,0.0,-0.7657,-0.8112,0.0,-0.8244,-0.8301,-0.8443,0.0,0.0,0.0,0.0,-0.985,-1.0535,-1.0573,-1.1613,-1.2645,-1.2405,-1.2175,-1.1902,-1.1652,-1.1571,-1.154,-1.154,-1.15,-1.1541,-1.1861,-1.2037,-1.2315,-1.2822,-1.3297,-1.3681,-1.3897,-1.476,-1.552,-1.59,-1.5843,-1.5767,-1.57,-1.5276,-1.5127,-1.5427,-1.5555,-1.5884,-1.6602,-1.6733,-1.6887,-1.7069,-1.7069,-1.6989,-1.6813,-1.6488,-1.62,-1.5944,-1.5113,-1.4291,-1.3384,-1.2802,-1.2154,-1.1488,-1.1364,-1.1305,-1.1305,-1.1305,-1.1305,-1.1262,-1.0824,-1.0342,-0.9816,-0.8938,-0.7973,-0.7051,0.0,0.0,0.0,0.0,0.0,0.0,0.0,0.0,0.0,0.0,0.0,0.0,0.0,0.0,0.0,0.0,0.0,0.0,0.0,0.0,0.0,0.0,-0.954,-1.0274,-1.113,-1.1799,-1.2533,-1.3312,-1.3912,-1.3935,-1.3435,-1.3957,-1.3459,-1.2047,-1.0368,-0.8953,-0.7828,-0.7283,-0.6554,-0.5757,-0.569,0.0,0.0,0.0,0.0,0.0,0.0,0.0,0.0,-0.8201,-0.8201,-0.8201,-0.8201,0.0,0.0,0.0,0.0,0.0,-1.0087,-1.0732,-1.1429,-1.1577,-1.1591,-1.1612,-1.1685,-1.2017,-1.2276,-1.2276,-1.219,-1.2168,-1.2271,-1.2568,-1.2865,-1.2999,-1.3447,-1.3911,-1.4316,-1.5236,-1.5623,-1.4916,-1.5292,-1.5346,-1.4691,-1.5186,-1.5508,-1.554,-1.6067,-1.6573,-1.6954,-1.7179,-1.7279,-1.7279,-1.7185,-1.7138,-1.7138,-1.652,-1.6075,-1.5792,-1.429,-1.3367,-1.2926,-1.2098,-1.1569,-1.1305,-1.1305,-1.1305,-1.1305,-1.1305,-1.1305,-1.1219,-1.0255,-0.9816,-0.9462,-0.7753,-0.7007,-0.6745,0.0,0.0,0.0,0.0,0.0,0.0,0.0,0.0,0.0,0.0,0.0,0.0,0.0,0.0,0.0,0.0,0.0,0.0,0.0,0.0,0.0,-0.8898,-1.0021,-1.0732,-1.0945,-1.2463,-1.3151,-1.2969,-1.3464,-1.3663,-1.3567,-1.3663,-1.2992,-1.165,-1.0575,-0.9367,-0.8077,-0.721,-0.6534,-0.6014,-0.5668,0.0,0.0,0.0,0.0,0.0,0.0,0.0,0.0,-0.8201,-0.8201,-0.8201,-0.8201,0.0,0.0,0.0,0.0,0.0,-0.9596,-1.0295,-1.108,-1.1497,-1.1591,-1.1695,-1.211,-1.2256,-1.2265,-1.2147,-1.219,-1.2249,-1.222,-1.2569,-1.3037,-1.3501,-1.4162,-1.4633,-1.4726,-1.478,-1.4889,-1.5053,-1.5138,-1.5245,-1.5354,-1.5427,-1.5696,-1.6198,-1.636,-1.663,-1.7223,-1.7304,-1.7279,-1.7279,-1.6709,-1.6379,-1.6379,-1.6237,-1.5456,-1.4007,-1.3737,-1.3003,-1.1925,-1.1759,-1.1569,-1.1305,-1.1305,-1.1305,-1.1305,-1.1305,-1.1305,-1.1219,-1.0255,-0.9419,-0.8588,-0.7489,-0.6612,-0.5819,0.0,0.0,0.0,0.0,0.0,0.0,0.0,0.0,0.0,0.0,0.0,0.0,0.0,0.0,0.0,0.0,0.0,0.0,0.0,0.0,-0.8508,-0.9185,-1.0277,-1.0983,-1.1261,-1.253,-1.32,-1.3276,-1.3483,-1.3597,-1.3586,-1.3338,-1.2782,-1.1944,-1.0724,-0.9598,-0.8523,-0.7576,-0.6757,-0.6085,0.0,0.0,0.0,0.0,0.0,0.0,0.0,0.0,0.0,0.0,-0.8201,-0.8201,-0.8201,0.0,0.0,0.0,0.0,0.0,-0.9819,-1.0559,-1.1385,-1.1851,-1.1986,-1.2089,-1.2523,-1.2813,-1.2967,-1.2921,-1.2898,-1.2904,-1.2953,-1.3071,-1.3317,-1.3846,-1.441,-1.4723,-1.4466,-1.4891,-1.5053,-1.4558,-1.4987,-1.534,-1.5438,-1.5755,-1.618,-1.6631,-1.6791,-1.7018,-1.7311,-1.7279,-1.7138,-1.6709,-1.6379,-1.5812,-1.4956,-1.4858,-1.4396,-1.3579,-1.3066,-1.2398,-1.1698,-1.1569,-1.1407,-1.1305,-1.1305,-1.1305,-1.1305,-1.1305,-1.0997,-1.0429,-0.9506,-0.8588,-0.7625,-0.67,-0.5994,-0.5508,0.0,0.0,0.0,0.0,0.0,0.0,0.0,0.0,0.0,0.0,0.0,0.0,0.0,0.0,0.0,0.0,0.0,0.0,0.0,-0.8201,-0.859,-0.9451,-1.0396,-1.1178,-1.1737,-1.2617,-1.3235,-1.3597,-1.3597,-1.3597,-1.3586,-1.3225,-1.2793,-1.2245,-1.0931,-0.9877,-0.8973,-0.7938,-0.709,-0.6416,0.0,0.0,0.0,0.0,0.0,0.0,0.0,0.0,0.0,0.0,0.0,0.0,0.0,0.0,0.0,-0.8761,-0.9175,-0.9616,-1.0211,-1.0894,-1.1603,-1.2264,-1.242,-1.2556,-1.2967,-1.3338,-1.3594,-1.3552,-1.35,-1.3446,-1.3426,-1.3511,-1.3717,-1.4183,-1.4641,-1.48,-1.4385,-1.4991,-1.5203,-1.4455,-1.5016,-1.5532,-1.5606,-1.6155,-1.6661,-1.6991,-1.7186,-1.7279,-1.7279,-1.7138,-1.6763,-1.6237,-1.5859,-1.5061,-1.382,-1.349,-1.3315,-1.3252,-1.2402,-1.1889,-1.1612,-1.1391,-1.1305,-1.1305,-1.1305,-1.1305,-1.1262,-1.1046,-1.0559,-0.9767,-0.8584,-0.7533,-0.6612,-0.5952,-0.5552,-0.528,0.0,0.0,0.0,0.0,0.0,0.0,0.0,0.0,0.0,0.0,0.0,0.0,0.0,0.0,0.0,0.0,0.0,0.0,0.0,-0.8201,-0.859,-0.9451,-1.0396,-1.1323,-1.2235,-1.3103,-1.3566,-1.3597,-1.3597,-1.3597,-1.3597,-1.3566,-1.3103,-1.2266,-1.1292,-1.0324,-0.9375,-0.8059,-0.7462,-0.7328,-0.6447,0.0,0.0,0.0,0.0,0.0,0.0,0.0,0.0,0.0,0.0,0.0,0.0,0.0,-0.8294,-0.8761,-0.9175,-0.9705,-1.0592,-1.0944,-1.1322,-1.2479,-1.2818,-1.2977,-1.3431,-1.3566,-1.3566,-1.3425,-1.3514,-1.3446,-1.296,-1.3561,-1.4267,-1.4604,-1.5056,-1.5274,-1.5051,-1.4786,-1.4797,-1.5336,-1.542,-1.5628,-1.6287,-1.6661,-1.6998,-1.7267,-1.7271,-1.7279,-1.7279,-1.6669,-1.6237,-1.619,-1.4806,-1.3933,-1.3608,-1.2892,-1.2395,-1.2208,-1.1878,-1.1602,-1.1332,-1.1316,-1.1305,-1.1305,-1.1305,-1.1305,-1.1219,-1.0342,-0.9946,-0.968,-0.7702,-0.634,-0.5549,-0.5641,-0.5416,-0.501,0.0,0.0,0.0,0.0,0.0,0.0,0.0,0.0,0.0,0.0,0.0,0.0,0.0,0.0,0.0,0.0,0.0,0.0,0.0,-0.8201,-0.859,-0.9451,-1.0396,-1.1344,-1.2287,-1.3155,-1.3597,-1.3597,-1.3597,-1.3597,-1.3597,-1.3597,-1.3124,-1.2276,-1.1623,-1.0642,-0.9441,-0.8694,-0.8035,-0.7473,-0.7121,-0.6623,0.0,0.0,0.0,0.0,0.0,0.0,0.0,0.0,-0.7141,-0.7419,-0.7673,-0.7973,-0.8332,-0.9024,-0.9379,-0.9796,-1.0919,-1.1339,-1.1663,-1.2361,-1.2594,-1.286,-1.3723,-1.369,-1.3571,-1.3877,-1.3932,-1.3849,-1.364,-1.3893,-1.4181,-1.4322,-1.4813,-1.5095,-1.4757,-1.495,-1.5121,-1.5145,-1.545,-1.5899,-1.6375,-1.6712,-1.7027,-1.7257,-1.7279,-1.7051,-1.6394,-1.6102,-1.5451,-1.4392,-1.3785,-1.3194,-1.2692,-1.2221,-1.1925,-1.1828,-1.1741,-1.158,-1.1305,-1.1305,-1.1305,-1.1305,-1.1305,-1.0954,-1.0386,-1.0033,-0.92,-0.8025,-0.6568,-0.5655,-0.5254,-0.5371,-0.5254,-0.4928,0.0,0.0,0.0,0.0,0.0,0.0,0.0,0.0,0.0,0.0,0.0,0.0,0.0,0.0,0.0,0.0,0.0,0.0,-0.8201,-0.8201,-0.859,-0.9451,-1.0252,-1.1199,-1.2276,-1.301,-1.3442,-1.3597,-1.3597,-1.3597,-1.3597,-1.3597,-1.3124,-1.2287,-1.1778,-1.0841,-0.9644,-0.9081,-0.8433,-0.7755,-0.7474,-0.688,0.0,0.0,0.0,0.0,0.0,0.0,0.0,0.0,-0.6525,-0.6873,-0.7297,-0.7657,-0.8091,-0.8924,-0.9377,-0.9844,-1.0942,-1.1363,-1.1661,-1.2342,-1.2399,-1.2622,-1.3958,-1.3852,-1.3653,-1.4138,-1.4052,-1.3961,-1.4211,-1.4181,-1.4182,-1.4371,-1.4685,-1.4893,-1.4805,-1.5121,-1.5252,-1.5079,-1.5542,-1.6001,-1.6206,-1.6558,-1.6746,-1.6689,-1.6703,-1.6281,-1.5381,-1.51,-1.4409,-1.3223,-1.299,-1.2547,-1.1981,-1.1779,-1.1661,-1.1591,-1.1591,-1.1461,-1.1305,-1.1305,-1.1305,-1.1305,-1.1305,-1.0773,-0.9948,-0.964,-0.8346,-0.6479,-0.5744,-0.5266,-0.5039,-0.5254,-0.5138,-0.4896,0.0,0.0,0.0,0.0,0.0,0.0,0.0,0.0,-0.8201,-0.8201,-0.8201,0.0,0.0,0.0,0.0,0.0,0.0,0.0,-0.8201,-0.8201,-0.859,-0.9451,-0.9953,-1.0867,-1.2266,-1.2699,-1.3132,-1.3597,-1.3597,-1.3597,-1.3597,-1.3597,-1.3124,-1.2265,-1.1675,-1.09,-1.0034,-0.9085,-0.8584,-0.8316,-0.745,-0.6733,-0.6152,0.0,0.0,0.0,0.0,0.0,0.0,0.0,-0.5702,-0.5891,-0.694,-0.7286,-0.748,-0.8424,-0.9111,-0.979,-1.0656,-1.086,-1.1125,-1.2452,-1.2306,-1.2304,-1.4156,-1.4138,-1.3763,-1.4037,-1.377,-1.3711,-1.4473,-1.4332,-1.432,-1.498,-1.4755,-1.4759,-1.5389,-1.5134,-1.5024,-1.5352,-1.5716,-1.5913,-1.587,-1.6191,-1.6102,-1.5435,-1.539,-1.5071,-1.4328,-1.3613,-1.3211,-1.316,-1.2489,-1.1975,-1.1698,-1.1698,-1.158,-1.1311,-1.1311,-1.1311,-1.1305,-1.1311,-1.1311,-1.1311,-1.1311,-1.086,-1.0015,-0.907,-0.7346,-0.5282,-0.5282,-0.5138,-0.4946,-0.5187,-0.514,-0.4899,0.0,0.0,0.0,0.0,0.0,0.0,0.0,0.0,-0.8201,-0.8201,-0.8201,0.0,0.0,0.0,0.0,0.0,0.0,0.0,-0.8201,-0.8201,-0.8571,-0.9395,-0.9876,-1.0591,-1.1572,-1.2314,-1.2947,-1.3467,-1.3362,-1.3314,-1.3314,-1.3314,-1.2861,-1.2008,-1.1534,-1.0651,-0.9482,-0.8785,-0.8272,-0.7874,-0.7533,-0.6896,-0.618,0.0,0.0,0.0,0.0,0.0,0.0,0.0,0.0,0.0,-0.6181,-0.6613,-0.7055,-0.7945,-0.8572,-0.9197,-1.0202,-1.0671,-1.1108,-1.2075,-1.2304,-1.2564,-1.3655,-1.3687,-1.3617,-1.4032,-1.3784,-1.3662,-1.4171,-1.4312,-1.4361,-1.4321,-1.4811,-1.5181,-1.5105,-1.5179,-1.5279,-1.5374,-1.5716,-1.5698,-1.5246,-1.5483,-1.5383,-1.4699,-1.461,-1.4206,-1.3306,-1.3034,-1.2597,-1.191,-1.1641,-1.1482,-1.1413,-1.1413,-1.1455,-1.1596,-1.1596,-1.1466,-1.1316,-1.1477,-1.1596,-1.1563,-1.1,-1.0232,-0.9271,-0.7376,-0.6098,-0.5289,-0.5216,-0.5004,-0.477,-0.4882,-0.4903,-0.4853,0.0,0.0,0.0,0.0,0.0,0.0,-0.8091,-0.8076,-0.8076,-0.8076,-0.813,-0.8154,0.0,0.0,0.0,-0.7928,-0.8097,-0.8129,-0.7942,-0.808,-0.8444,-0.9087,-0.9376,-0.998,-1.1004,-1.1658,-1.2262,-1.2751,-1.3047,-1.3194,-1.3184,-1.2861,-1.2345,-1.164,-1.0978,-1.0217,-0.9328,-0.8558,-0.8076,-0.7775,-0.7326,-0.6601,-0.5808,0.0,0.0,0.0,0.0,0.0,0.0,0.0,0.0,0.0,-0.5627,-0.6031,-0.6475,-0.7559,-0.8351,-0.9038,-0.987,-1.0579,-1.1278,-1.2043,-1.2468,-1.2931,-1.3652,-1.3743,-1.3825,-1.4371,-1.4073,-1.3855,-1.4356,-1.4479,-1.4469,-1.4379,-1.4882,-1.5219,-1.5116,-1.5265,-1.5389,-1.5389,-1.5339,-1.5149,-1.4757,-1.4619,-1.4327,-1.3611,-1.3567,-1.3147,-1.2254,-1.2205,-1.1925,-1.1311,-1.1396,-1.1445,-1.1445,-1.158,-1.1698,-1.1838,-1.1838,-1.1763,-1.1634,-1.1774,-1.1608,-1.1166,-0.9943,-0.8989,-0.8237,-0.6395,-0.5502,-0.5266,-0.5078,-0.4905,-0.4765,-0.4766,-0.4784,-0.4784,0.0,0.0,0.0,0.0,0.0,0.0,-0.7912,-0.7898,-0.7898,-0.7898,-0.8015,-0.8107,0.0,0.0,0.0,-0.7535,-0.7887,-0.7949,-0.7511,-0.7855,-0.8251,-0.8669,-0.8647,-0.9208,-1.0432,-1.0795,-1.117,-1.1596,-1.2613,-1.3086,-1.3028,-1.2293,-1.1691,-1.1158,-1.0163,-0.9603,-0.9334,-0.8365,-0.7929,-0.7835,-0.6962,-0.6049,-0.5199,-0.5199,0.0,0.0,0.0,0.0,0.0,0.0,0.0,0.0,-0.5256,-0.5554,-0.5815,-0.7207,-0.8267,-0.9108,-0.9614,-1.0541,-1.156,-1.2185,-1.2743,-1.3319,-1.3966,-1.4095,-1.4267,-1.4879,-1.4494,-1.4228,-1.4857,-1.4714,-1.4611,-1.4856,-1.4929,-1.5046,-1.5345,-1.5347,-1.5305,-1.5305,-1.4699,-1.4265,-1.4223,-1.3682,-1.3052,-1.2363,-1.2277,-1.2026,-1.1354,-1.1327,-1.1337,-1.1337,-1.1607,-1.1731,-1.1731,-1.1986,-1.2105,-1.2127,-1.2127,-1.2137,-1.2159,-1.204,-1.1344,-1.0166,-0.8486,-0.7534,-0.71,-0.6041,-0.5438,-0.519,-0.4887,-0.4784,-0.4784,-0.4784,-0.4784,-0.4784,0.0,0.0,0.0,0.0,0.0,0.0,-0.7912,-0.7898,-0.7898,-0.7898,-0.8015,-0.8107,-0.8107,-0.7825,0.0,-0.7431,-0.7507,-0.7511,-0.7359,-0.7713,-0.8123,-0.8518,-0.878,-0.9045,-0.9338,-0.9725,-0.9973,-1.0067,-1.1647,-1.2213,-1.1803,-1.171,-1.1219,-1.0323,-0.9517,-0.898,-0.8586,-0.7901,-0.7467,-0.7177,-0.688,-0.6138,-0.5199,-0.5199,-0.4782,0.0,0.0,0.0,0.0,0.0,0.0,0.0,-0.4897,-0.5132,-0.5364,-0.6563,-0.7579,-0.8453,-0.9072,-1.0309,-1.1506,-1.1972,-1.2753,-1.3581,-1.4255,-1.4223,-1.4044,-1.4223,-1.434,-1.4423,-1.4567,-1.4709,-1.482,-1.4893,-1.5119,-1.5309,-1.5382,-1.4957,-1.4615,-1.4615,-1.4026,-1.3392,-1.2869,-1.2705,-1.2326,-1.1602,-1.1559,-1.1478,-1.1311,-1.1482,-1.1623,-1.1623,-1.1849,-1.2019,-1.2019,-1.2067,-1.2191,-1.2334,-1.2334,-1.2431,-1.2603,-1.1547,-1.0166,-0.8514,-0.8108,-0.7285,-0.6252,-0.5777,-0.5438,-0.519,-0.4887,-0.4784,-0.4784,-0.4784,-0.4784,-0.4784,0.0,0.0,0.0,0.0,0.0,0.0,0.0,0.0,-0.7579,-0.7787,-0.7899,-0.7957,-0.7957,-0.7623,0.0,0.0,-0.7047,-0.7034,-0.6974,-0.7347,-0.7726,-0.8098,-0.8287,-0.8406,-0.8468,-0.8678,-0.8885,-0.9074,-1.0217,-1.0801,-1.0869,-1.0523,-1.0074,-0.9537,-0.8729,-0.8309,-0.8177,-0.7598,-0.7236,-0.7016,-0.6687,-0.6037,-0.525,-0.525,-0.4938,-0.4468,-0.4301,0.0,0.0,0.0,0.0,0.0,0.0,0.0,-0.5106,-0.6105,-0.7106,-0.8018,-0.8793,-0.9971,-1.1212,-1.2281,-1.2893,-1.3461,-1.4324,-1.435,-1.4298,-1.4414,-1.4575,-1.4743,-1.4904,-1.5065,-1.5133,-1.5133,-1.5279,-1.5389,-1.5389,-1.4824,-1.4398,-1.4398,-1.3512,-1.279,-1.2448,-1.2069,-1.1731,-1.1348,-1.1413,-1.1472,-1.1472,-1.1741,-1.191,-1.191,-1.2097,-1.2221,-1.2221,-1.2381,-1.2499,-1.2581,-1.2581,-1.2106,-1.1228,-1.0533,-0.9417,-0.7975,-0.7478,-0.6684,-0.5789,-0.5636,-0.5386,-0.4987,-0.4834,-0.4784,-0.4784,-0.4784,-0.4784,-0.4734,0.0,0.0,0.0,0.0,0.0,0.0,0.0,0.0,0.0,-0.7656,-0.7759,-0.7792,-0.7792,-0.742,-0.7011,0.0,0.0,0.0,-0.6463,-0.6851,-0.7248,-0.7603,-0.7554,-0.7581,-0.7689,-0.7698,-0.7858,-0.8198,-0.864,-0.9176,-0.975,-0.9245,-0.8947,-0.883,-0.8041,-0.7787,-0.7923,-0.7479,-0.7215,-0.7082,-0.6639,-0.606,-0.5473,-0.5414,-0.5173,-0.4851,-0.4509,-0.4344,-0.4269,-0.4038,0.0,0.0,0.0,0.0,-0.4892,-0.5785,-0.6752,-0.7718,-0.8603,-0.9747,-1.1048,-1.2545,-1.2956,-1.3241,-1.4101,-1.4409,-1.4599,-1.4834,-1.4944,-1.5068,-1.5338,-1.5389,-1.5389,-1.5389,-1.5389,-1.5347,-1.5257,-1.4657,-1.4181,-1.4055,-1.2954,-1.2198,-1.2198,-1.1684,-1.137,-1.137,-1.1628,-1.1758,-1.1758,-1.2029,-1.2154,-1.2154,-1.235,-1.2474,-1.2474,-1.2667,-1.2813,-1.2813,-1.2613,-1.138,-0.9308,-0.9308,-0.8715,-0.7627,-0.6736,-0.6037,-0.5536,-0.5536,-0.5236,-0.4784,-0.4784,-0.4784,-0.4784,-0.4784,-0.4684,-0.4381,0.0,0.0,0.0,0.0,0.0,0.0,0.0,0.0,0.0,0.0,-0.7759,-0.7792,-0.7792,-0.714,-0.6643,-0.652,-0.6197,-0.5979,-0.5904,0.0,0.0,-0.7251,-0.6993,-0.6846,-0.6868,-0.6868,-0.6882,-0.6935,-0.7296,-0.7509,-0.7626,-0.8556,-0.8759,-0.829,-0.7879,-0.7712,-0.7732,-0.7668,-0.7463,-0.7175,-0.7119,-0.6717,-0.6135,-0.584,-0.5524,-0.5187,-0.4858,-0.4546,-0.4298,-0.4261,-0.4097,0.0,0.0,0.0,-0.4553,-0.5554,-0.6507,-0.7461,-0.8379,-0.9965,-1.1494,-1.2104,-1.2632,-1.3119,-1.3541,-1.4064,-1.4599,-1.4834,-1.5126,-1.5338,-1.5382,-1.5389,-1.5389,-1.5389,-1.5389,-1.5215,-1.4615,-1.3977,-1.3307,-1.2747,-1.194,-1.1435,-1.1435,-1.1575,-1.1655,-1.1655,-1.1916,-1.2046,-1.2046,-1.2231,-1.2366,-1.2366,-1.2597,-1.2764,-1.2764,-1.2797,-1.2813,-1.2813,-1.1868,-1.0288,-0.8219,-0.8219,-0.7478,-0.6239,-0.6139,-0.5739,-0.524,-0.524,-0.5087,-0.4784,-0.4784,-0.4784,-0.4784,-0.4784,-0.423,-0.3374,0.0,0.0,0.0,0.0,0.0,0.0,0.0,0.0,0.0,0.0,0.0,-0.7754,-0.7754,-0.7222,-0.6762,-0.647,-0.6081,-0.5791,-0.5648,-0.6064,-0.6356,-0.6408,-0.6272,-0.6108,-0.5921,-0.6095,-0.6199,-0.6202,-0.653,-0.6878,-0.7216,-0.7737,-0.7978,-0.7924,-0.7756,-0.7691,-0.7691,-0.7691,-0.7508,-0.7209,-0.7209,-0.6932,-0.6519,-0.6355,-0.6217,-0.6042,-0.5743,-0.5429,-0.5114,-0.4931,-0.4529,-0.4145,-0.4261,0.0,0.0,0.0,-0.58,-0.6707,-0.8026,-0.9388,-1.0594,-1.1346,-1.1994,-1.2635,-1.3345,-1.4034,-1.4599,-1.4834,-1.5163,-1.5389,-1.5389,-1.5389,-1.5257,-1.4915,-1.4824,-1.4615,-1.3935,-1.3258,-1.2747,-1.2448,-1.1731,-1.1359,-1.1488,-1.1639,-1.1752,-1.1932,-1.2164,-1.2253,-1.2253,-1.2479,-1.2608,-1.2608,-1.2759,-1.2813,-1.2813,-1.2813,-1.2516,-1.1868,-1.0832,-0.9501,-0.7975,-0.7232,-0.6537,-0.5992,-0.5992,-0.5691,-0.519,-0.519,-0.5037,-0.4784,-0.4784,-0.4784,-0.4784,-0.4784,-0.413,-0.3123,0.0,0.0,0.0,0.0,0.0,0.0,0.0,0.0,0.0,0.0,0.0,-0.7442,-0.7442,0.0,0.0,0.0,-0.5876,-0.5539,-0.5406,-0.5619,-0.5716,-0.5672,-0.5583,-0.5431,-0.5181,-0.55,-0.5676,-0.5671,-0.6098,-0.6529,-0.6968,-0.7129,-0.7341,-0.7574,-0.7654,-0.7691,-0.7691,-0.7691,-0.7552,-0.7333,-0.7333,-0.7238,-0.7066,-0.6986,-0.7,-0.7049,-0.6764,-0.639,-0.5978,-0.5664,-0.5107,-0.4524,-0.4352,-0.4293,0.0,0.0,0.0,-0.6221,-0.758,-0.8707,-0.9694,-1.0499,-1.1311,-1.2109,-1.284,-1.3638,-1.4289,-1.4484,-1.4922,-1.5265,-1.5265,-1.533,-1.5173,-1.4524,-1.4398,-1.4104,-1.3264,-1.2711,-1.232,-1.2149,-1.17,-1.1466,-1.1682,-1.1811,-1.1951,-1.2175,-1.2366,-1.2501,-1.2501,-1.2667,-1.2813,-1.2813,-1.2813,-1.2813,-1.2813,-1.2511,-1.1868,-1.0779,-0.9702,-0.8616,-0.7478,-0.6439,-0.5942,-0.5792,-0.5792,-0.5541,-0.509,-0.509,-0.4987,-0.4784,-0.4784,-0.4784,-0.4784,-0.4481,-0.3726,-0.262,0.0,0.0,0.0,0.0,0.0,0.0,0.0,0.0,0.0,0.0,0.0,-0.676,-0.676,-0.6396,-0.6137,-0.612,-0.5455,-0.5063,-0.5122,-0.4903,-0.4933,-0.5313,-0.5027,0.0,-0.482,-0.5157,-0.5333,-0.5333,-0.5988,-0.6319,-0.6363,-0.6925,-0.7216,-0.7246,-0.7559,-0.7691,-0.7691,-0.7691,-0.7683,-0.7669,-0.7669,-0.7844,-0.8092,-0.7764,-0.7837,-0.8085,-0.7756,-0.7209,-0.6608,-0.6346,-0.5803,-0.5136,-0.4502,-0.4293,-0.4301,0.0,0.0,0.0,-0.7071,-0.8216,-0.9302,-0.9607,-1.0674,-1.1635,-1.1679,-1.267,-1.355,-1.3565,-1.4272,-1.4929,-1.4929,-1.5185,-1.5173,-1.4524,-1.4398,-1.3928,-1.2619,-1.2406,-1.2149,-1.1435,-1.1542,-1.1682,-1.1698,-1.2113,-1.2382,-1.2393,-1.2614,-1.2797,-1.2797,-1.2807,-1.2813,-1.2813,-1.2813,-1.2813,-1.2813,-1.1765,-1.0734,-0.9657,-0.8616,-0.7378,-0.6092,-0.6042,-0.5741,-0.524,-0.524,-0.509,-0.4834,-0.4834,-0.4834,-0.4784,-0.4784,-0.4784,-0.4684,-0.3676,-0.262,-0.1513,0.0,0.0,0.0,0.0,0.0,0.0,0.0,0.0,0.0,0.0,0.0,0.0,0.0,-0.7208,-0.7022,-0.6762,-0.6024,-0.5447,-0.5119,-0.4852,-0.4614,-0.4414,-0.4294,-0.4226,-0.4226,-0.4507,-0.4757,-0.4983,-0.5436,-0.5876,-0.6304,-0.6522,-0.6724,-0.6899,-0.7457,-0.7691,-0.7691,-0.7691,-0.7815,-0.8026,-0.8026,-0.8224,-0.8502,-0.8385,-0.8414,-0.8494,-0.8377,-0.8055,-0.7611,-0.7302,-0.6647,-0.5854,-0.54,-0.4816,-0.4293,-0.4293,-0.5092,-0.6067,-0.6507,-0.7404,-0.8414,-0.9146,-1.0007,-1.0821,-1.1452,-1.2435,-1.3243,-1.3448,-1.4267,-1.4779,-1.436,-1.4531,-1.4531,-1.3857,-1.3385,-1.279,-1.1817,-1.1688,-1.1662,-1.1558,-1.1645,-1.1822,-1.2129,-1.2312,-1.2474,-1.2624,-1.2764,-1.2813,-1.2813,-1.2813,-1.2813,-1.2813,-1.2813,-1.2462,-1.1765,-1.137,-1.0337,-0.8566,-0.817,-0.7279,-0.5992,-0.5839,-0.5539,-0.519,-0.5037,-0.4885,-0.4784,-0.4784,-0.4784,-0.4784,-0.4784,-0.4381,-0.3726,-0.3324,-0.2065,-0.0504,0.0,0.0,0.0,0.0,0.0,0.0,0.0,0.0,-0.771,-0.7553,0.0,0.0,0.0,0.0,-0.7182,-0.6711,-0.6077,-0.5453,-0.4872,-0.466,-0.4365,-0.3926,-0.39,-0.39,-0.39,-0.4156,-0.4466,-0.4794,-0.5136,-0.559,-0.6135,-0.6245,-0.6397,-0.6589,-0.7129,-0.7428,-0.7538,-0.7647,-0.7902,-0.8209,-0.8319,-0.856,-0.8884,-0.8963,-0.9065,-0.9175,-0.9285,-0.9043,-0.8626,-0.8312,-0.7558,-0.6698,-0.6241,-0.5436,-0.459,-0.4359,-0.4939,-0.5678,-0.5898,-0.6731,-0.7713,-0.8494,-0.9314,-1.0111,-1.0784,-1.1775,-1.255,-1.2596,-1.34,-1.3934,-1.3298,-1.3411,-1.3487,-1.3118,-1.2705,-1.2149,-1.1392,-1.1305,-1.1396,-1.1671,-1.1768,-1.1973,-1.2377,-1.2484,-1.2597,-1.2802,-1.2813,-1.2813,-1.2813,-1.2813,-1.2813,-1.2813,-1.2462,-1.1917,-1.1219,-1.0485,-0.9349,-0.7875,-0.7478,-0.6783,-0.5741,-0.5539,-0.5338,-0.5037,-0.4885,-0.4784,-0.4784,-0.4784,-0.4784,-0.4784,-0.4784,-0.413,-0.3173,-0.2771,-0.1511,0.005,0.0,0.0,0.0,0.0,0.0,0.0,0.0,0.0,-0.7797,-0.7332,0.0,0.0,0.0,0.0,0.0,-0.5893,-0.5532,-0.5055,-0.439,-0.4327,-0.4192,-0.393,-0.39,-0.39,-0.39,-0.4148,-0.4451,-0.4792,-0.5122,-0.5466,-0.5788,-0.6135,-0.6282,-0.6304,-0.656,-0.6862,-0.7216,-0.7552,-0.7909,-0.8246,-0.8568,-0.8928,-0.9258,-0.9533,-0.9848,-1.017,-1.0499,-1.0199,-0.9614,-0.9332,-0.856,-0.7618,-0.692,-0.6071,-0.5195,-0.4524,-0.4787,-0.529,0.0,0.0,0.0,-0.7575,-0.8594,-0.9526,-0.9555,-1.058,-1.1382,-1.0888,-1.1703,-1.2388,-1.1842,-1.1869,-1.204,-1.2287,-1.2345,-1.2112,-1.1392,-1.1305,-1.1396,-1.1682,-1.1954,-1.2191,-1.2398,-1.263,-1.2813,-1.2813,-1.2813,-1.2813,-1.2813,-1.2813,-1.2813,-1.2813,-1.177,-1.117,-1.117,-0.9057,-0.7826,-0.7531,-0.6489,-0.5691,-0.519,-0.519,-0.5037,-0.4784,-0.4784,-0.4784,-0.4784,-0.4784,-0.4784,-0.4784,-0.4784,-0.4079,-0.3022,-0.1966,-0.0857,0.0202,0.0,0.0,0.0,0.0,0.0,-0.8824,-0.8824,-0.9012,-0.9084,0.0,0.0,0.0,-0.8382,-0.7797,-0.7257,-0.6852,-0.6506,-0.6052,-0.5424,-0.4936,-0.4517,-0.42,-0.3998,-0.39,-0.39,-0.3979,-0.4145,-0.4444,-0.4772,-0.5107,-0.5451,-0.5781,-0.5928,-0.5935,-0.6023,-0.6334,-0.6877,-0.7457,-0.8041,-0.8582,-0.8928,-0.939,-0.9877,-1.0199,-1.0521,-1.088,-1.1202,-1.1056,-1.0587,-1.0031,-0.9365,-0.8531,-0.7131,-0.6377,-0.5884,-0.5217,-0.5018,-0.5003,-0.5003,0.0,0.0,0.0,0.0,0.0,-0.8384,-0.9246,-0.9973,-1.0071,-1.083,-1.1313,-1.0673,-1.1077,-1.1368,-1.0929,-1.1302,-1.1521,-1.1348,-1.1305,-1.1455,-1.1948,-1.2051,-1.2256,-1.263,-1.2775,-1.2813,-1.2813,-1.2813,-1.2813,-1.2813,-1.2813,-1.2813,-1.2813,-1.177,-1.0828,-1.0047,-0.8467,-0.7282,-0.6439,-0.5937,-0.5539,-0.519,-0.519,-0.5037,-0.4784,-0.4784,-0.4784,-0.4784,-0.4784,-0.4784,-0.4734,-0.3927,-0.2972,-0.1915,-0.0857,0.0252,0.1212,0.0,0.0,-0.925,-0.925,-0.9224,-0.9207,-0.9207,-0.9556,-0.9753,0.0,0.0,0.0,-0.9246,-0.8426,-0.7767,-0.7431,-0.7093,-0.6584,-0.5844,-0.5434,-0.5004,-0.4531,-0.4226,-0.4068,-0.4068,-0.3957,-0.4035,-0.4293,-0.4495,-0.4757,-0.51,-0.5436,-0.559,-0.5598,-0.5737,-0.6139,-0.6746,-0.7421,-0.8092,-0.8729,-0.9175,-0.9658,-1.0148,-1.0616,-1.1026,-1.1371,-1.1794,-1.175,-1.1399,-1.0909,-1.0104,-0.9124,-0.7693,-0.7049,-0.6619,-0.563,-0.5284,-0.5152,-0.4751,-0.4912,-0.5298,-0.5692,0.0,0.0,-0.7413,-0.819,-0.8833,-0.8918,-0.9581,-0.9991,-0.9423,-0.9907,-1.031,-0.9911,-1.0313,-1.0817,-1.1112,-1.1155,-1.1375,-1.1889,-1.1948,-1.2094,-1.2478,-1.256,-1.2619,-1.2619,-1.2759,-1.2813,-1.2813,-1.2813,-1.2613,-1.2165,-1.1077,-0.9948,-0.8768,-0.7531,-0.6489,-0.5641,-0.5489,-0.5288,-0.5037,-0.5037,-0.4937,-0.4784,-0.4784,-0.4784,-0.4784,-0.4784,-0.4784,-0.4684,-0.3626,-0.2519,-0.1462,-0.0403,0.0656,0.1617,0.0,0.0,-0.9698,-0.9729,-0.9687,-0.967,-0.9735,-1.0007,-1.0129,0.0,-1.0357,-1.0461,-0.9514,-0.8716,-0.8121,-0.7778,-0.745,-0.6881,-0.6016,-0.5854,-0.5539,-0.4939,-0.4517,-0.4293,-0.4293,-0.4042,-0.402,-0.4254,-0.4279,-0.4458,-0.475,-0.5122,-0.5297,-0.5312,-0.5649,-0.6139,-0.6746,-0.7421,-0.8092,-0.8767,-0.9365,-0.9833,-1.0228,-1.0909,-1.1408,-1.1841,-1.2453,-1.2441,-1.2098,-1.1738,-1.077,-0.9511,-0.8421,-0.7865,-0.7348,-0.5885,-0.5586,-0.5525,-0.4572,-0.4668,-0.5074,-0.5261,-0.5659,0.0,-0.6471,-0.723,-0.7775,-0.7529,-0.8092,-0.8489,-0.8057,-0.8543,-0.8984,-0.8984,-0.9398,-0.9997,-1.0799,-1.0907,-1.1095,-1.1602,-1.1661,-1.1763,-1.2067,-1.2248,-1.2377,-1.2377,-1.2592,-1.2786,-1.2813,-1.271,-1.2165,-1.1175,-0.9998,-0.8768,-0.758,-0.6439,-0.5691,-0.519,-0.519,-0.5037,-0.4784,-0.4784,-0.4784,-0.4784,-0.4784,-0.4784,-0.4784,-0.4684,-0.4634,-0.4533,-0.3425,-0.2368,-0.131,-0.0202,0.0757,0.1617,-0.9476,-0.9853,-1.0264,-1.0585,-1.0648,-1.0744,-1.113,-1.1167,-1.1118,-1.1039,-1.052,-0.9851,-0.8949,-0.8703,-0.8458,-0.8136,-0.7786,-0.7406,-0.6954,-0.6212,-0.5737,-0.5612,-0.4765,-0.4293,-0.4293,-0.4042,-0.393,-0.3979,-0.4192,-0.433,-0.4403,-0.5019,-0.5297,-0.5312,-0.5649,-0.6139,-0.6746,-0.7421,-0.8092,-0.8767,-0.9365,-0.9965,-1.0594,-1.1246,-1.2024,-1.2811,-1.3462,-1.3484,-1.3038,-1.1965,-1.107,-1.0189,-0.8888,-0.8463,-0.81,-0.6262,-0.5823,-0.5718,-0.4657,-0.4199,-0.3992,-0.4033,-0.4394,0.0,-0.5046,-0.5659,-0.6156,-0.6106,-0.6474,-0.6784,-0.6677,-0.7215,-0.7663,-0.7663,-0.8111,-0.8929,-1.0238,-1.0428,-1.0676,-1.1295,-1.1375,-1.1585,-1.2051,-1.2137,-1.2164,-1.2164,-1.2344,-1.2565,-1.2802,-1.1965,-1.1321,-1.0881,-0.9011,-0.7776,-0.7273,-0.5987,-0.529,-0.519,-0.4987,-0.4834,-0.4784,-0.4784,-0.4784,-0.4784,-0.4784,-0.4784,-0.4734,-0.3879,-0.3525,-0.3425,-0.2318,-0.126,-0.0202,0.0908,0.1414,0.1617,-0.9961,-1.0078,-1.0351,-1.0807,-1.0822,-1.0925,-1.1418,-1.138,-1.1365,-1.1534,-1.1353,-1.1138,-1.1023,-1.0572,-1.0049,-0.9438,-0.9059,-0.8512,-0.7748,-0.7104,-0.6673,-0.6512,-0.5568,-0.5048,-0.5048,-0.4424,-0.4094,-0.4094,-0.4105,-0.4105,-0.4108,-0.4748,-0.5048,-0.5078,-0.5744,-0.638,-0.6986,-0.7662,-0.8421,-0.919,-0.9665,-1.0243,-1.0953,-1.1728,-1.2548,-1.3338,-1.4027,-1.3946,-1.3367,-1.2555,-1.1584,-1.0574,-0.975,-0.9141,-0.8391,-0.6736,-0.6268,-0.6019,-0.4714,-0.418,-0.3967,-0.3868,-0.4024,0.0,0.0,-0.4961,-0.5372,-0.5486,-0.5764,-0.6043,-0.6123,-0.6519,-0.6846,-0.6922,-0.7389,-0.7987,-0.8708,-0.9347,-1.0019,-1.074,-1.078,-1.0961,-1.1311,-1.1451,-1.1662,-1.19,-1.221,-1.2468,-1.2581,-1.1706,-1.0828,-1.0038,-0.8418,-0.7129,-0.6232,-0.5539,-0.514,-0.4987,-0.4885,-0.4784,-0.4784,-0.4784,-0.4784,-0.4784,-0.4784,-0.4784,-0.4734,-0.3626,-0.2871,-0.2318,-0.121,-0.0454,0.0151,0.1212,0.1617,0.1617,-1.0303,-1.0272,-1.0419,-1.0932,-1.0971,-1.1084,-1.1619,-1.1576,-1.155,-1.1671,-1.2178,-1.2631,-1.2836,-1.2436,-1.1803,-1.093,-1.0477,-0.9778,-0.8715,-0.818,-0.7705,-0.7319,-0.6395,-0.5862,-0.5796,-0.488,-0.4359,-0.4293,-0.4083,-0.3949,-0.3915,-0.4519,-0.4836,-0.4939,-0.5876,-0.6676,-0.7348,-0.8019,-0.8809,-0.9658,-1.0177,-1.0697,-1.1305,-1.2248,-1.306,-1.377,-1.446,-1.4318,-1.3799,-1.3273,-1.2141,-1.0836,-1.038,-0.9502,-0.8334,-0.6912,-0.6523,-0.6239,-0.4733,-0.432,-0.4243,-0.4049,-0.4002,-0.4057,0.0,0.0,0.0,-0.5061,-0.5288,-0.5489,-0.568,-0.588,-0.6043,-0.6136,-0.6609,-0.6953,-0.6927,-0.7903,-0.8941,-0.9796,-1.0007,-1.0158,-1.0346,-1.0672,-1.1069,-1.1591,-1.1898,-1.203,-1.202,-1.1125,-1.0049,-0.8799,-0.7673,-0.6484,-0.514,-0.514,-0.5037,-0.4784,-0.4784,-0.4784,-0.4784,-0.4784,-0.4784,-0.4784,-0.4784,-0.4784,-0.4684,-0.3425,-0.2368,-0.1513,-0.0403,0.0151,0.0403,0.1262,0.1617,0.1617,-1.0303,-1.0575,-1.0963,-1.1438,-1.1804,-1.219,-1.2672,-1.262,-1.2316,-1.1698,-1.2476,-1.2675,-1.1485,-1.2373,-1.2743,-1.1903,-1.1323,-1.0797,-1.0346,-0.924,-0.8304,-0.7669,-0.6749,-0.6113,-0.5803,-0.5107,-0.4597,-0.4293,-0.4276,-0.413,-0.3915,-0.4519,-0.4961,-0.5268,-0.5995,-0.6801,-0.7683,-0.8355,-0.9014,-0.9716,-1.0946,-1.1474,-1.1643,-1.2584,-1.3536,-1.4482,-1.5087,-1.5228,-1.5031,-1.3889,-1.259,-1.1224,-1.0075,-0.9079,-0.8004,-0.6248,-0.6041,-0.6145,-0.4834,-0.4388,-0.4246,-0.4049,-0.4,-0.4016,-0.4037,0.0,-0.416,-0.4381,0.0,-0.4502,-0.4643,0.0,0.0,-0.4613,-0.5068,-0.546,-0.5517,-0.6174,-0.7105,-0.8373,-0.9015,-0.9393,-0.9532,-1.0068,-1.0654,-1.1295,-1.0994,-1.0741,-1.0649,-0.9312,-0.808,-0.712,-0.6037,-0.5288,-0.4834,-0.4834,-0.4834,-0.4784,-0.4784,-0.4784,-0.4784,-0.4784,-0.4784,-0.4784,-0.4784,-0.4784,-0.4634,-0.262,-0.1714,-0.1513,-0.0403,0.0605,0.1414,0.1566,0.1617,0.1617,-1.0352,-1.0585,-1.0993,-1.1502,-1.1909,-1.232,-1.2827,-1.315,-1.3201,-1.2872,-1.3523,-1.3999,-1.399,-1.3721,-1.3551,-1.3499,-1.288,-1.2212,-1.1571,-1.0648,-0.9742,-0.8838,-0.7719,-0.7046,-0.6907,-0.5897,-0.5304,-0.5165,-0.4785,-0.4536,-0.4424,-0.4886,-0.5268,-0.5627,-0.6453,-0.7258,-0.8048,-0.8875,-0.9702,-1.0558,-1.167,-1.2343,-1.2787,-1.3345,-1.4296,-1.5365,-1.5811,-1.5862,-1.5579,-1.4892,-1.3348,-1.1715,-1.1222,-0.9857,-0.8233,-0.7308,-0.6968,-0.6605,-0.5441,-0.501,-0.4783,-0.4395,-0.428,-0.4274,-0.4191,-0.4166,-0.4158,-0.413,0.0,0.0,0.0,0.0,0.0,0.0,-0.4646,-0.4864,-0.4726,-0.5322,-0.6255,-0.7566,-0.7946,-0.8283,-0.876,-0.8901,-0.9213,-0.9866,-0.9383,-0.9165,-0.9388,-0.8225,-0.7329,-0.6825,-0.5739,-0.5087,-0.4784,-0.4784,-0.4784,-0.4784,-0.4784,-0.4784,-0.4784,-0.4784,-0.4784,-0.4784,-0.4784,-0.4784,-0.4684,-0.3173,-0.2167,-0.1513,-0.0403,0.0656,0.1617,0.1617,0.1617,0.1617,-1.0714,-1.0849,-1.1126,-1.1531,-1.2006,-1.2482,-1.2909,-1.3523,-1.3861,-1.368,-1.4372,-1.5044,-1.5497,-1.5068,-1.4778,-1.4689,-1.4333,-1.3672,-1.2617,-1.1839,-1.0917,-0.9801,-0.8699,-0.8034,-0.7829,-0.6753,-0.6104,-0.5928,-0.5363,-0.4983,-0.4814,-0.5231,-0.5648,-0.608,-0.6947,-0.78,-0.8648,-0.9511,-1.0441,-1.1421,-1.2401,-1.3287,-1.4062,-1.4384,-1.5204,-1.6206,-1.647,-1.636,-1.6126,-1.5711,-1.4199,-1.25,-1.2317,-1.0635,-0.8682,-0.8308,-0.7687,-0.6971,-0.6139,-0.5653,-0.5265,-0.4827,-0.4642,-0.4557,-0.4451,-0.4404,-0.4313,-0.4165,-0.4101,0.0,0.0,0.0,-0.4024,0.0,0.0,-0.432,-0.4019,-0.4513,-0.5325,-0.6485,-0.6729,-0.7055,-0.7687,-0.7598,-0.7737,-0.8301,-0.7867,-0.7698,-0.7978,-0.7155,-0.6546,-0.6231,-0.5472,-0.4987,-0.4784,-0.4784,-0.4784,-0.4784,-0.4784,-0.4784,-0.4784,-0.4784,-0.4784,-0.4784,-0.4784,-0.4784,-0.4734,-0.3626,-0.2569,-0.1513,-0.0403,0.0656,0.1617,0.1617,0.1617,0.1617,-1.1567,-1.1565,-1.1584,-1.1606,-1.2318,-1.2955,-1.3175,-1.3814,-1.4088,-1.3573,-1.4701,-1.5196,-1.4171,-1.6004,-1.6632,-1.5049,-1.5328,-1.5007,-1.3561,-1.2538,-1.1406,-1.0141,-0.9493,-0.8855,-0.8202,-0.7501,-0.6878,-0.6282,-0.5928,-0.5444,-0.4822,-0.548,-0.6102,-0.6702,-0.7384,-0.8369,-0.9607,-1.0272,-1.1121,-1.2054,-1.3067,-1.4231,-1.536,-1.5731,-1.6257,-1.6873,-1.6881,-1.6881,-1.6777,-1.6195,-1.5037,-1.3707,-1.2844,-1.1152,-0.932,-0.8662,-0.778,-0.6985,-0.6792,-0.6177,-0.5531,-0.5317,-0.5034,-0.4792,-0.4788,-0.4634,-0.4489,-0.4485,-0.439,-0.4286,-0.4286,0.0,0.0,0.0,0.0,0.0,0.0,-0.3445,-0.3963,-0.478,-0.528,-0.5703,-0.6057,-0.6116,-0.6397,-0.691,-0.6695,-0.6423,-0.6192,-0.5858,-0.5377,-0.4808,-0.4792,-0.4784,-0.4784,-0.4784,-0.4784,-0.4784,-0.4784,-0.4784,-0.4784,-0.4784,-0.4784,-0.4784,-0.4784,-0.4784,-0.4734,-0.3626,-0.2569,-0.1513,-0.0403,0.0656,0.1617,0.1617,0.1617,0.1617,-1.1183,-1.1564,-1.2002,-1.2002,-1.249,-1.2965,-1.3176,-1.4504,-1.5458,-1.542,-1.6519,-1.739,-1.7489,-1.7812,-1.7791,-1.7336,-1.7262,-1.6577,-1.4998,-1.4374,-1.3328,-1.175,-1.0682,-0.9907,-0.9468,-0.8414,-0.766,-0.7221,-0.6662,-0.6197,-0.5796,-0.6032,-0.6446,-0.7051,-0.7727,-0.8626,-0.9672,-1.0543,-1.1472,-1.2463,-1.4083,-1.5416,-1.6433,-1.6543,-1.6719,-1.6925,-1.7091,-1.7165,-1.7121,-1.6708,-1.5406,-1.3911,-1.3561,-1.159,-0.9373,-0.9304,-0.8466,-0.7471,-0.7155,-0.67,-0.6258,-0.5984,-0.5604,-0.528,-0.5167,-0.5001,-0.4832,-0.455,-0.4476,-0.4359,-0.4146,0.0,0.0,0.0,0.0,0.0,0.0,0.0,-0.2971,0.0,0.0,0.0,0.0,0.0,-0.5113,-0.5725,-0.5116,-0.4846,-0.5169,-0.4963,-0.4785,-0.4704,-0.474,-0.4784,-0.4784,-0.4784,-0.4784,-0.4784,-0.4784,-0.4784,-0.4784,-0.4784,-0.4784,-0.4784,-0.4784,-0.4784,-0.4734,-0.3626,-0.2569,-0.1513,-0.0403,0.0656,0.1617,0.1617,0.1617,0.1667,-1.1657,-1.207,-1.2389,-1.2,-1.2516,-1.2982,-1.2917,-1.4566,-1.5891,-1.6192,-1.7366,-1.8476,-1.9228,-1.8883,-1.8485,-1.8271,-1.8037,-1.7278,-1.579,-1.5396,-1.4569,-1.3117,-1.2021,-1.1136,-1.0463,-0.9416,-0.8553,-0.7866,-0.7326,-0.6786,-0.6304,-0.6522,-0.6892,-0.7414,-0.8085,-0.8963,-1.0016,-1.0909,-1.1875,-1.3038,-1.4977,-1.6206,-1.691,-1.7027,-1.7026,-1.7047,-1.7252,-1.7279,-1.725,-1.7091,-1.5821,-1.4284,-1.4218,-1.2305,-1.013,-1.0144,-0.9288,-0.8249,-0.7801,-0.7315,-0.681,-0.6543,-0.6196,-0.5822,-0.5644,-0.5543,-0.5367,-0.4871,-0.4783,-0.4674,-0.4339,-0.4113,0.0,0.0,0.0,0.0,0.0,-0.2225,0.0,0.0,0.0,0.0,0.0,0.0,0.0,-0.4431,-0.3988,0.0,-0.44,-0.4424,-0.4457,-0.4655,-0.4773,-0.4784,-0.4784,-0.4784,-0.4784,-0.4784,-0.4784,-0.4784,-0.4784,-0.4784,-0.4784,-0.4784,-0.4784,-0.4784,-0.4734,-0.3626,-0.2569,-0.1513,-0.0403,0.0656,0.1617,0.1617,0.1667,0.1819,-1.2856,-1.2925,-1.2682,-1.1625,-1.2459,-1.3113,-1.2661,-1.4162,-1.5556,-1.6048,-1.7403,-1.8641,-1.9365,-1.9376,-1.8912,-1.8004,-1.7838,-1.7277,-1.6022,-1.563,-1.5072,-1.4121,-1.344,-1.2482,-1.1232,-1.0499,-0.9533,-0.8268,-0.7916,-0.7258,-0.6385,-0.6951,-0.7392,-0.7749,-0.8407,-0.9394,-1.0631,-1.1335,-1.2406,-1.3777,-1.5685,-1.6631,-1.6954,-1.7216,-1.7279,-1.7279,-1.7286,-1.7232,-1.7185,-1.7185,-1.6171,-1.481,-1.4651,-1.3217,-1.1461,-1.098,-1.0105,-0.9205,-0.8739,-0.7955,-0.7236,-0.709,-0.6737,-0.6387,-0.6193,-0.6185,-0.6065,-0.5474,-0.5337,-0.5252,-0.4901,-0.4332,0.0,0.0,0.0,0.0,0.0,0.0,0.0,0.0,0.0,0.0,0.0,0.0,0.0,0.0,0.0,0.0,0.0,-0.4232,-0.4467,-0.4616,-0.4738,-0.478,-0.4784,-0.4784,-0.4784,-0.4784,-0.4784,-0.4784,-0.4784,-0.4784,-0.4784,-0.4784,-0.4784,-0.4784,-0.4634,-0.3575,-0.2469,-0.1412,-0.0353,0.0706,0.1617,0.1617,0.1768,0.2071,-1.1872,-1.155,-1.1599,-1.2049,-1.3168,-1.4273,-1.5039,-1.5904,-1.7076,-1.8667,-1.9797,-2.0768,-2.1594,-2.1911,-2.1418,-1.9717,-1.9592,-1.8734,-1.6765,-1.658,-1.617,-1.5445,-1.4567,-1.3594,-1.2533,-1.1437,-1.0309,-0.9248,-0.8465,-0.7829,-0.7338,-0.7246,-0.7508,-0.8099,-0.8509,-0.9394,-1.0674,-1.1538,-1.3221,-1.5379,-1.6389,-1.6923,-1.7216,-1.725,-1.7279,-1.7232,-1.6669,-1.6143,-1.5669,-1.5669,-1.5,-1.4082,-1.3653,-1.2384,-1.0971,-1.0449,-0.9744,-0.9092,-0.8811,-0.841,-0.7971,-0.7784,-0.7472,-0.7127,-0.6849,-0.678,-0.6629,-0.6086,-0.5971,-0.5795,-0.5276,-0.4801,-0.4278,0.0,0.0,0.0,0.0,0.0,0.0,-0.1837,0.0,0.0,0.0,0.0,0.0,0.0,0.0,0.0,-0.3881,-0.4116,-0.4342,-0.4612,-0.4683,-0.4771,-0.4782,-0.4784,-0.4784,-0.4784,-0.4784,-0.4784,-0.4784,-0.4784,-0.4784,-0.4784,-0.4784,-0.4331,-0.3525,-0.2469,-0.136,-0.0302,0.0757,0.1364,0.1617,0.1819,0.207,0.2321,-1.2689,-1.2411,-1.2794,-1.4074,-1.4795,-1.5364,-1.5752,-1.6246,-1.7327,-1.9381,-2.0149,-2.0743,-2.1422,-2.1327,-2.0782,-1.9695,-1.9193,-1.8379,-1.7162,-1.7062,-1.6843,-1.6345,-1.5707,-1.4753,-1.3462,-1.2438,-1.1231,-0.9826,-0.9153,-0.8436,-0.7691,-0.7654,-0.7851,-0.8216,-0.8546,-0.9475,-1.0931,-1.2445,-1.4187,-1.5972,-1.6646,-1.7047,0.0,-1.7279,-1.6904,-1.6285,-1.5859,-1.5669,-1.5527,-1.5194,-1.443,-1.3511,-1.3221,-1.2164,-1.0918,-1.0387,-0.9918,-0.9464,-0.9126,-0.8792,-0.8499,-0.839,-0.8162,-0.7902,-0.7535,-0.7453,-0.7277,-0.6661,-0.6564,-0.6367,-0.5799,-0.5141,-0.4355,-0.3312,0.0,0.0,0.0,0.0,0.0,0.0,0.0,0.0,0.0,0.0,0.0,0.0,0.0,0.0,0.0,-0.3991,-0.4236,-0.4504,-0.464,-0.4749,-0.4782,-0.4784,-0.4784,-0.4784,-0.4784,-0.4784,-0.4784,-0.4784,-0.4784,-0.4784,-0.4784,-0.418,-0.3123,-0.2066,-0.0958,0.0101,0.1161,0.1667,0.1819,0.207,0.2271,0.2422,-1.4293,-1.4206,-1.4704,-1.6233,-1.6482,-1.6323,-1.5883,-1.6342,-1.7431,-1.9475,-1.9783,-2.0076,-2.0628,-1.972,-1.9108,-1.9154,-1.8193,-1.7544,-1.7457,-1.741,-1.7318,-1.7042,-1.6712,-1.581,-1.4209,-1.3492,-1.2219,-1.0353,-0.9899,-0.9087,-0.7946,-0.8173,-0.829,-0.8341,-0.867,-0.9746,-1.1503,-1.3653,-1.5094,-1.603,-1.6705,-1.7084,-1.7279,-1.7279,-1.6426,-1.5242,-1.5146,-1.5384,-1.5669,-1.5003,-1.404,-1.3028,-1.298,-1.216,-1.1096,-1.056,-1.0241,-0.9962,-0.9533,-0.9145,-0.8889,-0.8889,-0.8763,-0.8544,-0.8199,-0.8117,-0.7923,-0.7269,-0.7126,-0.6955,-0.642,-0.5492,-0.4385,-0.3069,-0.2644,0.0,0.0,0.0,0.0,0.0,0.0,0.0,0.0,0.0,0.0,0.0,0.0,0.0,0.0,0.0,-0.4097,-0.4364,-0.4596,-0.4732,-0.4766,-0.4778,-0.4784,-0.4784,-0.4784,-0.4784,-0.4784,-0.4784,-0.4784,-0.4784,-0.4784,-0.413,-0.2922,-0.1966,-0.0907,0.0303,0.1212,0.1768,0.2021,0.2321,0.2422,0.2472,-1.475,-1.4182,-1.4194,-1.5205,-1.6234,-1.7136,-1.7921,-1.8815,-2.003,-2.1707,-2.1477,-2.1696,-2.3021,-2.1733,-2.0842,-2.0937,-1.999,-1.8993,-1.8179,-1.813,-1.7984,-1.7662,-1.7333,-1.6535,-1.5163,-1.4282,-1.3119,-1.1668,-1.0565,-0.9768,-0.927,-0.8816,-0.8767,-0.9038,-0.9314,-1.0646,-1.2767,-1.4192,-1.5409,-1.6389,-1.6989,-1.7274,-1.7279,-1.7279,-1.6763,-1.5906,-1.5337,-1.4382,-1.3383,-1.3238,-1.305,-1.2759,-1.2316,-1.1731,-1.1096,-1.056,-1.0043,-0.9678,-0.9579,-0.9425,-0.9306,-0.9306,-0.9133,-0.8946,-0.8731,-0.8678,-0.8515,-0.7947,-0.7825,-0.7618,-0.6971,-0.6043,-0.5006,-0.3872,-0.3459,-0.3295,0.0,0.0,0.0,0.0,0.0,-0.2565,0.0,0.0,0.0,0.0,0.0,0.0,0.0,0.0,-0.4046,-0.4314,-0.4502,-0.4638,-0.473,-0.475,-0.4784,-0.4784,-0.4784,-0.4784,-0.4784,-0.4784,-0.4784,-0.4784,-0.4784,-0.3676,-0.1865,-0.1664,-0.0454,0.1313,0.1516,0.1768,0.2021,0.2321,0.2522,0.2775,-1.6524,-1.5789,-1.5761,-1.7412,-1.8057,-1.9038,-2.1047,-2.1826,-2.1934,-2.1275,-2.0483,-2.023,-2.0865,-2.0215,-1.9739,-1.9788,-1.9308,-1.8833,-1.8355,-1.8299,-1.8233,-1.8072,-1.7757,-1.7135,-1.6191,-1.5226,-1.4099,-1.2797,-1.1624,-1.0734,-1.0111,-0.9643,-0.9504,-0.9702,-1.0682,-1.2014,-1.3601,-1.4896,-1.5899,-1.6719,-1.7318,-1.7582,-1.7604,-1.7772,-1.7099,-1.6015,-1.5624,-1.441,-1.292,-1.2851,-1.2619,-1.2273,-1.1731,-1.1389,-1.1047,-1.0216,-1.0019,-0.9969,-0.9677,-0.9563,-0.9494,-0.9494,-0.9433,-0.9324,-0.9141,-0.9096,-0.897,-0.8524,-0.8361,-0.7939,-0.6672,-0.5561,-0.4727,-0.4254,-0.3678,-0.3408,0.0,0.0,0.0,0.0,0.0,0.0,0.0,0.0,0.0,0.0,0.0,0.0,0.0,-0.3612,-0.3883,-0.4153,-0.4383,-0.4567,-0.4708,-0.4742,-0.4784,-0.4784,-0.4784,-0.4784,-0.4784,-0.4784,-0.4784,-0.4784,-0.423,-0.3073,-0.1513,-0.0404,0.0656,0.1617,0.1617,0.1869,0.2221,0.2371,0.2674,0.3029,-1.8282,-1.7583,-1.7753,-1.9985,-2.0301,-2.0955,-2.3237,-2.388,-2.3262,-2.0981,-1.9884,-1.9235,-1.9106,-1.8708,-1.8603,-1.8845,-1.8653,-1.8511,-1.8511,-1.8511,-1.8474,-1.8408,-1.816,-1.7691,-1.7013,-1.6155,-1.5094,-1.3806,-1.2791,-1.1743,-1.0616,-1.047,-1.0485,-1.0675,-1.2094,-1.3272,-1.4267,-1.5496,-1.6338,-1.6954,-1.7552,-1.7816,-1.7852,-1.8174,-1.7292,-1.5878,-1.5878,-1.4737,-1.3157,-1.3024,-1.2601,-1.2078,-1.1541,-1.1292,-1.0998,-1.0068,-0.9969,-1.0117,-0.9727,-0.9579,-0.9579,-0.9579,-0.9579,-0.9592,-0.9445,-0.9461,-0.9324,-0.8999,-0.8632,-0.7865,-0.6105,-0.5143,-0.4566,-0.4469,-0.3837,-0.3537,-0.4,0.0,0.0,0.0,0.0,0.0,0.0,0.0,0.0,0.0,0.0,0.0,-0.3244,-0.3509,-0.3781,-0.4014,-0.4324,-0.4542,-0.4706,-0.4742,-0.4784,-0.4784,-0.4784,-0.4784,-0.4784,-0.4784,-0.4784,-0.4734,-0.3676,-0.2469,-0.1109,0.0808,0.1617,0.1617,0.1617,0.1919,0.2422,0.2422,0.2725,0.318,-1.8862,-1.8607,-1.9029,-2.095,-2.1813,-2.2262,-2.2443,-2.3401,-2.3801,-2.3028,-2.2149,-2.1605,-2.1541,-2.0152,-1.9583,-2.0586,-1.9789,-1.9184,-1.9184,-1.9184,-1.9052,-1.876,-1.8716,-1.8255,-1.7257,-1.6916,-1.6096,-1.4769,-1.3836,-1.2409,-1.0602,-1.1195,-1.1736,-1.2295,-1.3075,-1.3945,-1.4878,-1.5906,-1.6573,-1.6954,-1.7552,-1.7816,-1.7852,-1.8174,-1.7292,-1.5878,-1.5878,-1.4862,-1.3443,-1.3421,-1.312,-1.2613,-1.2078,-1.1585,-1.1096,-1.0511,-1.0019,-0.9677,-0.9628,-0.9579,-0.9579,-0.9579,-0.9579,-0.9575,-0.9608,-0.9604,-0.9547,-0.9392,-0.847,-0.724,-0.5747,-0.5551,-0.5426,-0.4796,-0.4382,-0.4204,-0.4275,0.0,-0.3169,0.0,0.0,0.0,0.0,-0.2786,0.0,0.0,0.0,0.0,0.0,-0.3641,-0.3917,-0.4153,-0.442,-0.4608,-0.4708,-0.4742,-0.4784,-0.4784,-0.4784,-0.4784,-0.4784,-0.4784,-0.4784,-0.4734,-0.3676,-0.2065,-0.005,0.1111,0.1617,0.1617,0.1617,0.1919,0.2422,0.2422,0.2725,0.318,-2.0621,-2.0333,-2.0452,-2.1417,-2.1569,-2.1919,-2.3105,-2.3271,-2.3099,-2.2655,-2.2215,-2.1702,-2.0953,-2.0241,-1.9929,-2.0197,-1.9828,-1.9484,-1.9286,-1.9279,-1.922,-1.9089,-1.8891,-1.8511,-1.7925,-1.7406,-1.6696,-1.5796,-1.4831,-1.3872,-1.2949,-1.2816,-1.3067,-1.3711,-1.4165,-1.4896,-1.5833,-1.6463,-1.7005,-1.7472,-1.7925,-1.8225,-1.8388,-1.8187,-1.7427,-1.6335,-1.5814,-1.4786,-1.3685,-1.3685,-1.3259,-1.2661,-1.2318,-1.182,-1.125,-1.0591,-1.0265,-1.0019,-0.9677,-0.9579,-0.9579,-0.9579,-0.9579,-0.9579,-0.9579,-0.9579,-0.9608,-0.9535,-0.8353,-0.6926,-0.5727,-0.5215,-0.5012,-0.5105,-0.4627,-0.4362,-0.4691,-0.4092,0.0,-0.343,0.0,0.0,0.0,0.0,0.0,0.0,0.0,0.0,0.0,-0.3536,-0.3808,-0.4083,-0.4351,-0.4561,-0.4708,-0.4742,-0.4784,-0.4784,-0.4784,-0.4784,-0.4784,-0.4784,-0.4079,-0.2871,-0.2418,-0.1008,0.1009,0.1414,0.1617,0.1617,0.1617,0.1919,0.2422,0.2422,0.2725,0.318,-2.2473,-2.2042,-2.1931,-2.2512,-2.2091,-2.218,-2.3583,-2.3326,-2.2842,-2.232,-2.2229,-2.1707,-2.0357,-2.0183,-2.0142,-1.9923,-1.9901,-1.9806,-1.9572,-1.9469,-1.947,-1.947,-1.9103,-1.8782,-1.8452,-1.7904,-1.7296,-1.6652,-1.5782,-1.5006,-1.435,-1.3755,-1.3996,-1.4904,-1.5218,-1.584,-1.6674,-1.6996,-1.7457,-1.7984,-1.8313,-1.8426,-1.8404,-1.8133,-1.7305,-1.6252,-1.5719,-1.4809,-1.3927,-1.3927,-1.3556,-1.306,-1.2547,-1.2147,-1.1704,-1.0798,-1.0546,-1.0384,-0.9789,-0.9579,-0.9579,-0.9579,-0.9579,-0.9579,-0.9579,-0.9579,-0.9476,-0.8981,-0.795,-0.676,-0.558,-0.4888,-0.4648,-0.5085,-0.4664,-0.4401,-0.476,-0.4367,-0.3959,-0.3805,-0.371,-0.3612,-0.3529,-0.3397,0.0,0.0,0.0,0.0,0.0,-0.3589,-0.3804,-0.4101,-0.4363,-0.4563,-0.4745,-0.4756,-0.4784,-0.4784,-0.4784,-0.4784,-0.4784,-0.4481,-0.3324,-0.1563,-0.126,-0.0101,0.1617,0.1617,0.1617,0.1617,0.1617,0.1925,0.2441,0.2441,0.2756,0.3283,-2.4088,-2.3531,-2.3417,-2.4506,-2.4117,-2.3643,-2.3501,-2.3649,-2.3415,-2.2449,-2.2544,-2.2033,-2.0376,-2.0183,-2.0183,-2.0176,-2.0176,-2.0176,-2.0168,-1.993,-1.9808,-1.9808,-1.9492,-1.9118,-1.8789,-1.846,-1.7969,-1.7271,-1.6667,-1.5582,-1.3982,-1.3653,-1.4355,-1.5913,-1.6213,-1.6711,-1.7286,-1.7662,-1.7991,-1.8328,-1.865,-1.8259,-1.7565,-1.7866,-1.6982,-1.5506,-1.5506,-1.4928,-1.4191,-1.4191,-1.4186,-1.3992,-1.2997,-1.2699,-1.2448,-1.1157,-1.0795,-1.06,-0.9822,-0.9579,-0.9579,-0.9579,-0.9579,-0.9579,-0.9579,-0.9579,-0.913,-0.7537,-0.7235,-0.6699,-0.5016,-0.4706,-0.4675,-0.4633,-0.4491,-0.4386,-0.4384,-0.4351,-0.4263,-0.422,-0.4085,-0.3959,-0.3814,-0.3675,0.0,0.0,0.0,0.0,-0.3791,-0.3844,-0.4061,-0.4374,-0.4522,-0.4655,-0.478,-0.4784,-0.4784,-0.4784,-0.4784,-0.4784,-0.4784,-0.3726,-0.262,-0.1563,-0.0504,0.0605,0.1617,0.1617,0.1617,0.1617,0.1617,0.1992,0.2488,0.2488,0.2886,0.341,-2.5644,-2.5282,-2.5023,-2.5173,-2.4008,-2.3165,-2.3357,-2.2392,-2.1654,-2.1557,-2.1602,-2.1451,-2.0967,-2.0903,-2.0808,-2.0533,-2.0511,-2.0416,-2.0197,-2.0142,-2.0084,-2.0084,-1.9981,-1.9674,-1.9133,-1.9023,-1.865,-1.7991,-1.756,-1.6872,-1.5978,-1.5648,-1.5965,-1.6841,-1.6982,-1.7384,-1.795,-1.7464,-1.7434,-1.7705,-1.7197,-1.6996,-1.6918,-1.648,-1.598,-1.5405,-1.4826,-1.4461,-1.4196,-1.4196,-1.4196,-1.4164,-1.38,-1.3372,-1.2825,-1.2243,-1.1462,-1.0731,-1.0473,-1.0016,-0.9579,-0.9579,-0.9579,-0.9579,-0.9579,-0.9179,-0.8482,-0.7434,-0.6789,-0.6029,-0.4949,-0.4744,-0.4785,-0.4755,-0.4677,-0.4639,-0.463,-0.4596,-0.4545,-0.4501,-0.4363,-0.4217,-0.414,-0.405,0.0,0.0,0.0,0.0,-0.3861,-0.4004,-0.4193,-0.4382,-0.4585,-0.472,-0.4782,-0.4784,-0.4784,-0.4784,-0.4784,-0.4867,-0.4879,-0.3796,-0.2666,-0.162,-0.0418,0.068,0.1676,0.1676,0.1676,0.1676,0.1939,0.226,0.2589,0.2748,0.3076,0.3413,-2.7222,-2.6437,-2.5811,-2.5595,-2.4072,-2.2857,-2.2838,-2.1948,-2.1203,-2.1181,-2.1211,-2.1211,-2.1211,-2.1211,-2.113,-2.0925,-2.0903,-2.0823,-2.0611,-2.0431,-2.0365,-2.0365,-2.0249,-1.9993,-1.9645,-1.9403,-1.9074,-1.8664,-1.8218,-1.7794,-1.7438,-1.7194,-1.7311,-1.7691,-1.7691,-1.7991,-1.8432,-1.7573,-1.7384,-1.7599,-1.6723,-1.6308,-1.6199,-1.5666,-1.5298,-1.4934,-1.4407,-1.4196,-1.4196,-1.4196,-1.4196,-1.4196,-1.4196,-1.3869,-1.3381,-1.2939,-1.2255,-1.1513,-1.103,-1.0462,-0.9975,-0.9775,-0.9673,-0.9579,-0.9579,-0.8977,-0.8184,-0.7388,-0.6539,-0.5739,-0.4935,-0.4784,-0.4784,-0.4784,-0.4784,-0.4766,-0.4763,-0.4755,-0.4734,-0.4677,-0.4591,-0.4516,-0.4459,-0.4373,-0.43,-0.4242,0.0,-0.4317,-0.4159,-0.4228,-0.4353,-0.4485,-0.4649,-0.4749,-0.4782,-0.4784,-0.48,-0.4885,-0.492,-0.4707,-0.4344,-0.3227,-0.2073,-0.0957,0.0213,0.1065,0.1704,0.1704,0.1704,0.1757,0.2077,0.2354,0.2637,0.2907,0.3243,0.3478,-2.8592,-2.7101,-2.5914,-2.5914,-2.4374,-2.2958,-2.2392,-2.223,-2.1945,-2.1375,-2.1268,-2.1268,-2.1268,-2.1211,-2.1211,-2.1211,-2.1211,-2.1211,-2.1211,-2.0925,-2.0757,-2.0757,-2.0464,-2.0241,-2.0212,-1.9681,-1.9367,-1.9345,-1.8708,-1.8401,-1.8401,-1.8379,-1.8372,-1.8372,-1.8372,-1.854,-1.8767,-1.7828,-1.7626,-1.7832,-1.6889,-1.6092,-1.5399,-1.5399,-1.4934,-1.4196,-1.4196,-1.4196,-1.4196,-1.4196,-1.4196,-1.4196,-1.4196,-1.4196,-1.404,-1.3275,-1.3034,-1.2715,-1.1419,-1.0968,-1.0665,-1.0057,-0.9774,-0.9644,-0.9644,-0.8939,-0.8084,-0.7335,-0.6539,-0.5691,-0.4935,-0.4784,-0.4784,-0.4784,-0.4784,-0.4784,-0.4784,-0.4784,-0.4784,-0.4784,-0.4765,-0.4714,-0.471,-0.4632,-0.4627,-0.4621,-0.4627,-0.4629,-0.4629,-0.4506,-0.4491,-0.4704,-0.4714,-0.4759,-0.4792,-0.4794,-0.489,-0.4981,-0.5073,-0.453,-0.3412,-0.224,-0.1121,0.0053,0.1176,0.171,0.171,0.171,0.171,0.1764,0.2085,0.2376,0.2685,0.3014,0.332,0.3587,-2.8332,-2.7437,-2.6793,-2.6793,-2.5462,-2.4342,-2.4167,-2.34,-2.2732,-2.2562,-2.2173,-2.1888,-2.1888,-2.1497,-2.1211,-2.1211,-2.1211,-2.1211,-2.1211,-2.1137,-2.1094,-2.1094,-2.102,-2.0859,-2.0611,-2.0457,-2.0259,-2.0011,-1.9616,-1.9418,-1.9463,-1.9162,-1.9045,-1.9045,-1.9045,-1.9089,-1.9051,-1.7527,-1.693,-1.6889,-1.541,-1.4671,-1.4509,-1.4509,-1.4407,-1.4196,-1.4196,-1.4196,-1.4196,-1.4196,-1.4196,-1.4196,-1.4196,-1.4196,-1.4186,-1.396,-1.3486,-1.2851,-1.2116,-1.1429,-1.0815,-1.025,-0.9961,-0.9823,-0.9823,-0.8614,-0.7437,-0.7238,-0.6087,-0.5035,-0.4834,-0.4784,-0.4784,-0.4784,-0.4784,-0.4784,-0.4784,-0.4784,-0.4784,-0.4784,-0.4766,-0.4779,-0.4714,-0.4689,-0.4649,-0.4625,-0.4636,-0.4675,-0.4675,-0.4716,-0.4681,-0.471,-0.4771,-0.4849,-0.4939,-0.4939,-0.4986,-0.5077,-0.5169,-0.505,-0.4671,-0.2694,-0.1604,-0.1217,0.0886,0.1774,0.1774,0.1774,0.1884,0.2106,0.2439,0.2722,0.3009,0.3344,0.3521,0.3587,-2.8991,-2.7733,-2.6796,-2.7087,-2.5892,-2.4904,-2.4904,-2.4342,-2.3835,-2.3548,-2.3061,-2.2681,-2.2395,-2.1922,-2.1497,-2.1211,-2.1211,-2.1211,-2.1211,-2.1211,-2.1211,-2.1211,-2.1211,-2.113,-2.0947,-2.0801,-2.0567,-2.0183,-2.0062,-1.9981,-1.9974,-1.9798,-1.9718,-1.9718,-1.9718,-1.9718,-1.9604,-1.7868,-1.7035,-1.6766,-1.505,-1.4288,-1.4196,-1.4196,-1.4196,-1.4196,-1.4196,-1.4196,-1.4196,-1.4196,-1.4196,-1.4196,-1.4196,-1.4196,-1.4196,-1.4196,-1.3718,-1.3021,-1.2427,-1.1744,-1.0993,-1.0337,-1.0139,-1.0061,-1.0061,-0.8649,-0.7327,-0.7327,-0.5969,-0.4784,-0.4784,-0.4784,-0.4784,-0.4784,-0.4784,-0.4784,-0.4784,-0.4784,-0.4784,-0.4784,-0.4784,-0.4766,-0.4771,-0.4767,-0.4745,-0.4696,-0.4738,-0.4767,-0.4767,-0.476,-0.4764,-0.4767,-0.4851,-0.492,-0.5023,-0.5055,-0.5122,-0.5171,-0.5263,-0.4696,-0.3591,-0.2342,-0.1176,-0.0056,0.1233,0.1795,0.1795,0.1795,0.1964,0.2244,0.2581,0.2861,0.3137,0.3475,0.3587,0.3587,-2.9521,-2.7808,-2.6516,-2.6987,-2.6018,-2.5111,-2.5111,-2.5052,-2.4818,-2.429,-2.3851,-2.3312,-2.2797,-2.2333,-2.185,-2.1341,-2.124,-2.1211,-2.1211,-2.1211,-2.1211,-2.1211,-2.1211,-2.1211,-2.1211,-2.094,-2.0662,-2.0329,-2.0329,-2.0329,-2.0329,-2.0329,-2.03,-2.0256,-2.0256,-2.0227,-2.0073,-1.834,-1.7485,-1.7104,-1.5298,-1.4449,-1.4245,-1.4245,-1.4223,-1.4196,-1.4196,-1.4196,-1.4196,-1.4196,-1.4196,-1.4196,-1.4196,-1.4196,-1.4191,-1.4083,-1.3645,-1.3044,-1.255,-1.1819,-1.1061,-1.0436,-1.0277,-1.0205,-1.0205,-0.8809,-0.7513,-0.7513,-0.6085,-0.4804,-0.4804,-0.4794,-0.4784,-0.4784,-0.4784,-0.4784,-0.4784,-0.4784,-0.4784,-0.4784,-0.4784,-0.479,-0.4802,-0.4804,-0.4811,-0.4825,-0.4825,-0.4825,-0.4825,-0.4825,-0.4825,-0.4825,-0.4939,-0.4986,-0.5012,-0.5179,-0.5211,-0.5213,-0.5345,-0.4257,-0.2071,-0.1903,-0.056,0.1514,0.1739,0.1795,0.1795,0.1795,0.1964,0.23,0.2581,0.2917,0.3194,0.3475,0.3587,0.3587,-2.7833,-2.6976,-2.6514,-2.6573,-2.614,-2.576,-2.576,-2.5344,-2.4994,-2.4877,-2.3897,-2.3165,-2.3047,-2.2281,-2.1737,-2.162,-2.1364,-2.1211,-2.1211,-2.1211,-2.1211,-2.1211,-2.1211,-2.1211,-2.1211,-2.1159,-2.1108,-2.1057,-2.1057,-2.1057,-2.1057,-2.1057,-2.0911,-2.0647,-2.0647,-2.0494,-2.0073,-1.834,-1.7599,-1.7388,-1.5552,-1.4692,-1.4427,-1.4427,-1.4363,-1.4196,-1.4196,-1.4196,-1.4196,-1.4196,-1.4196,-1.4196,-1.4196,-1.4196,-1.4083,-1.3591,-1.2985,-1.2495,-1.2436,-1.1596,-1.0752,-1.0669,-1.0501,-1.0391,-1.0391,-0.892,-0.7602,-0.7602,-0.6204,-0.4951,-0.4951,-0.4888,-0.4784,-0.4784,-0.4784,-0.4784,-0.4784,-0.4784,-0.4784,-0.4784,-0.4784,-0.4865,-0.4943,-0.4951,-0.4981,-0.5059,-0.5065,-0.5065,-0.5065,-0.5065,-0.5065,-0.5065,-0.5004,-0.5047,-0.5146,-0.5308,-0.5361,-0.5361,-0.5375,-0.465,-0.3301,-0.2239,-0.1064,0.0336,0.1346,0.1795,0.1795,0.1795,0.2132,0.2637,0.2693,0.3029,0.3531,0.3587,0.3587,0.3587,-2.8011,-2.7279,-2.6807,-2.6807,-2.6662,-2.6432,-2.6058,-2.5759,-2.5452,-2.51,-2.4332,-2.3743,-2.3383,-2.2796,-2.2312,-2.2016,-2.1657,-2.1474,-2.1474,-2.1306,-2.1211,-2.1211,-2.1211,-2.1211,-2.1211,-2.1211,-2.1211,-2.1211,-2.1211,-2.1211,-2.1211,-2.1211,-2.113,-2.0984,-2.0984,-2.0903,-2.0645,-1.8811,-1.7919,-1.7673,-1.5812,-1.4939,-1.4724,-1.4724,-1.4579,-1.4379,-1.4379,-1.4299,-1.4196,-1.4196,-1.4196,-1.4196,-1.4196,-1.4196,-1.4137,-1.3862,-1.3152,-1.2273,-1.1678,-1.135,-1.1131,-1.0802,-1.0631,-1.0574,-1.0574,-0.9083,-0.7745,-0.7745,-0.6321,-0.5045,-0.5045,-0.501,-0.4965,-0.4916,-0.4908,-0.4892,-0.4792,-0.4784,-0.4802,-0.4902,-0.4908,-0.4945,-0.5037,-0.5045,-0.5063,-0.5104,-0.5108,-0.5108,-0.5108,-0.5108,-0.5108,-0.5108,-0.5116,-0.5184,-0.5316,-0.5361,-0.5382,-0.5382,-0.4761,-0.3807,-0.2574,-0.14,-0.0168,0.1009,0.1739,0.202,0.202,0.2188,0.2524,0.2915,0.2915,0.3195,0.3587,0.3587,0.3587,0.3587,-2.825,-2.7608,-2.7073,-2.7073,-2.7073,-2.6882,-2.6197,-2.5953,-2.5647,-2.498,-2.443,-2.4015,-2.3536,-2.3187,-2.2819,-2.2346,-2.1993,-2.1774,-2.1701,-2.1459,-2.1291,-2.1211,-2.1211,-2.1211,-2.1211,-2.1211,-2.1211,-2.1211,-2.1211,-2.1211,-2.1211,-2.1211,-2.1211,-2.1211,-2.1211,-2.1211,-2.1089,-1.921,-1.8262,-1.79,-1.6078,-1.5187,-1.4966,-1.4966,-1.4821,-1.4606,-1.4502,-1.4422,-1.4266,-1.4213,-1.4196,-1.4196,-1.4196,-1.4196,-1.4196,-1.4196,-1.3428,-1.2387,-1.124,-1.1131,-1.1295,-1.0802,-1.0692,-1.0692,-1.0692,-0.9439,-0.8212,-0.7994,-0.6598,-0.5405,-0.5141,-0.5122,-0.5086,-0.5014,-0.5004,-0.4979,-0.4908,-0.4847,-0.4924,-0.4996,-0.5004,-0.5039,-0.513,-0.5139,-0.5149,-0.5169,-0.5171,-0.5171,-0.5171,-0.5171,-0.5171,-0.5171,-0.5164,-0.5288,-0.538,-0.5382,-0.5382,-0.5382,-0.4198,-0.2966,-0.1735,-0.056,0.0673,0.1795,0.2076,0.2188,0.2244,0.2581,0.2861,0.3081,0.3081,0.3306,0.3587,0.3587,0.3587,0.3587,-2.7366,-2.7133,-2.7073,-2.7073,-2.7073,-2.6882,-2.6197,-2.5586,-2.4919,-2.4232,-2.3589,-2.3201,-2.3139,-2.2845,-2.2593,-2.2593,-2.2315,-2.2023,-2.1715,-2.1672,-2.1525,-2.1218,-2.1211,-2.1211,-2.1211,-2.1211,-2.1211,-2.1211,-2.1211,-2.1211,-2.1211,-2.1211,-2.1211,-2.1211,-2.1211,-2.1211,-2.1089,-1.921,-1.8377,-1.8183,-1.6326,-1.5435,-1.5167,-1.5167,-1.5074,-1.4826,-1.4611,-1.4469,-1.4421,-1.4266,-1.4196,-1.4196,-1.4196,-1.4196,-1.4196,-1.4196,-1.3753,-1.2985,-1.1841,-1.1185,-1.0747,-1.0692,-1.0692,-1.0692,-1.0692,-0.9962,-0.9068,-0.8183,-0.7204,-0.6207,-0.5341,-0.5165,-0.5106,-0.5098,-0.5098,-0.5096,-0.509,-0.5088,-0.509,-0.5098,-0.5098,-0.5135,-0.517,-0.518,-0.5269,-0.5355,-0.5361,-0.5361,-0.5361,-0.5361,-0.5361,-0.5361,-0.5286,-0.5288,-0.538,-0.5382,-0.5382,-0.5382,-0.4198,-0.2966,-0.1735,-0.056,0.0673,0.1795,0.2076,0.2188,0.2244,0.2581,0.2861,0.3081,0.3081,0.3306,0.3587,0.3587,0.3587,0.3587,-2.7194,-2.7073,-2.7073,-2.7073,-2.7073,-2.6882,-2.6197,-2.5525,-2.4857,-2.417,-2.3549,-2.3106,-2.3106,-2.3003,-2.2923,-2.2923,-2.2637,-2.2403,-2.2279,-2.1913,-2.1547,-2.1225,-2.1211,-2.1211,-2.1211,-2.1211,-2.1211,-2.1211,-2.1211,-2.1211,-2.1211,-2.1211,-2.0917,-2.0335,-2.0335,-2.0335,-2.022,-1.8338,-1.7864,-1.8215,-1.6354,-1.5548,-1.5467,-1.5467,-1.5322,-1.5043,-1.4952,-1.4823,-1.4713,-1.4487,-1.4406,-1.4379,-1.4239,-1.4196,-1.4196,-1.4196,-1.3753,-1.3098,-1.2332,-1.1678,-1.1185,-1.0802,-1.0692,-1.0692,-1.0692,-1.0025,-0.914,-0.8195,-0.7279,-0.6376,-0.5494,-0.5302,-0.5259,-0.5202,-0.514,-0.5173,-0.5116,-0.5108,-0.5128,-0.5132,-0.514,-0.5228,-0.532,-0.5331,-0.5343,-0.538,-0.5382,-0.5382,-0.5382,-0.5382,-0.5382,-0.5382,-0.5347,-0.5347,-0.5382,-0.5382,-0.5382,-0.5382,-0.3414,-0.2239,-0.1735,0.0392,0.1627,0.2076,0.2523,0.2746,0.2802,0.3139,0.3307,0.3418,0.3418,0.3475,0.3587,0.3587,0.3587,0.3587,-2.7073,-2.7073,-2.7073,-2.7073,-2.7073,-2.6882,-2.6197,-2.5717,-2.5103,-2.4232,-2.3673,-2.3362,-2.3106,-2.3106,-2.3106,-2.3106,-2.2908,-2.2732,-2.263,-2.2132,-2.1657,-2.1233,-2.1211,-2.1211,-2.1211,-2.1211,-2.1211,-2.1211,-2.1211,-2.1211,-2.1211,-2.1211,-2.0687,-1.9815,-1.9815,-1.9635,-1.9281,-1.7695,-1.7343,-1.7806,-1.6236,-1.5601,-1.5601,-1.5601,-1.5499,-1.529,-1.522,-1.5086,-1.4961,-1.4724,-1.4595,-1.4509,-1.4352,-1.425,-1.4196,-1.4196,-1.3921,-1.3428,-1.2604,-1.2114,-1.1678,-1.0911,-1.0692,-1.0692,-1.0692,-1.0249,-0.9471,-0.8251,-0.7537,-0.6768,-0.5603,-0.5382,-0.5361,-0.5298,-0.5288,-0.5265,-0.5202,-0.5194,-0.5218,-0.5279,-0.5288,-0.5312,-0.5375,-0.5382,-0.5382,-0.5382,-0.5382,-0.5382,-0.5382,-0.5382,-0.5382,-0.5382,-0.5382,-0.5382,-0.5382,-0.5382,-0.5382,-0.5382,-0.2967,-0.1791,-0.1735,0.0953,0.2188,0.2244,0.2858,0.3081,0.3137,0.3475,0.3587,0.3587,0.3587,0.3587,0.3587,0.3587,0.3587,0.3587,-2.7073,-2.7073,-2.7073,-2.7073,-2.7073,-2.6882,-2.6197,-2.6075,-2.5647,-2.4293,-2.4108,-2.386,-2.3168,-2.3106,-2.3106,-2.3106,-2.3106,-2.2974,-2.2645,-2.2345,-2.1898,-2.124,-2.1211,-2.1211,-2.1211,-2.1211,-2.1211,-2.1211,-2.1211,-2.1211,-2.1211,-2.1211,-2.0687,-1.9815,-1.9815,-1.9281,-1.8331,-1.7402,-1.6997,-1.6938,-1.6011,-1.5601,-1.5601,-1.5601,-1.5601,-1.5569,-1.5279,-1.5194,-1.5161,-1.4966,-1.4735,-1.4486,-1.448,-1.4379,-1.4196,-1.4196,-1.4196,-1.3921,-1.2713,-1.2387,-1.211,-1.0966,-1.0692,-1.0692,-1.0692,-1.0692,-1.0194,-0.8361,-0.7974,-0.7479,-0.5714,-0.5382,-0.5382,-0.5382,-0.5382,-0.5382,-0.5382,-0.5382,-0.5382,-0.5382,-0.5382,-0.5382,-0.5382,-0.5382,-0.5382,-0.5382,-0.5382,-0.5382,-0.5382,-0.5382,-0.5382,-0.5382,-0.5382,-0.5382,-0.5382,-0.5382,-0.5382,-0.5382,-0.2967,-0.1791,-0.1735,0.0953,0.2188,0.2244,0.2858,0.3081,0.3137,0.3475,0.3587,0.3587,0.3587,0.3587,0.3587,0.3587,0.3587,0.3587,-2.7073,-2.7073,-2.7073,-2.7073,-2.7073,-2.7012,-2.6822,-2.6388,-2.577,-2.4919,-2.4417,-2.386,-2.3168,-2.3106,-2.3106,-2.3106,-2.3106,-2.2974,-2.2645,-2.2542,-2.2206,-2.1576,-2.1547,-2.1445,-2.1218,-2.1211,-2.1211,-2.1211,-2.1211,-2.1211,-2.1211,-2.1211,-2.0328,-1.8803,-1.8803,-1.8279,-1.7343,-1.6414,-1.6414,-1.6938,-1.6011,-1.5601,-1.5601,-1.5601,-1.5601,-1.5591,-1.5521,-1.5494,-1.5461,-1.5161,-1.5038,-1.492,-1.4587,-1.4432,-1.4401,-1.4245,-1.4196,-1.4029,-1.3261,-1.2713,-1.211,-1.0966,-1.0692,-1.0692,-1.0692,-1.0692,-1.0194,-0.8361,-0.7974,-0.7479,-0.5714,-0.5382,-0.5382,-0.5382,-0.5382,-0.5382,-0.5382,-0.5382,-0.5382,-0.5382,-0.5382,-0.5382,-0.5382,-0.5382,-0.5382,-0.5382,-0.5382,-0.5382,-0.5382,-0.5382,-0.5382,-0.5382,-0.5382,-0.5382,-0.5382,-0.5382,-0.5382,-0.5382,-0.2967,-0.1791,-0.1679,0.1233,0.2525,0.2581,0.3195,0.3474,0.3475,0.3531,0.3587,0.3587,0.3587,0.3587,0.3587,0.3587,0.3587,0.3587,-2.7073,-2.7073,-2.7073,-2.7073,-2.7073,-2.7073,-2.7073,-2.6761,-2.6144,-2.5226,-2.4734,-2.417,-2.3168,-2.3106,-2.3106,-2.3106,-2.3106,-2.3025,-2.2828,-2.2813,-2.2593,-2.2081,-2.2067,-2.1796,-2.1218,-2.1211,-2.1211,-2.1211,-2.1211,-2.1211,-2.1211,-2.1211,-2.0206,-1.8389,-1.8389,-1.7695,-1.6414,-1.5833,-1.5946,-1.6414,-1.5833,-1.5601,-1.5601,-1.5601,-1.5601,-1.5601,-1.5601,-1.5601,-1.558,-1.5435,-1.5269,-1.5124,-1.4794,-1.4611,-1.4509,-1.4369,-1.4266,-1.4083,-1.3478,-1.2876,-1.2164,-1.1295,-1.0857,-1.0692,-1.0692,-1.0692,-1.0194,-0.8361,-0.7974,-0.7479,-0.5714,-0.5382,-0.5382,-0.5382,-0.5382,-0.5382,-0.5382,-0.5382,-0.5382,-0.5382,-0.5382,-0.5382,-0.5382,-0.5382,-0.5382,-0.5382,-0.5382,-0.5382,-0.5382,-0.5382,-0.5382,-0.5382,-0.5382,-0.5382,-0.5382,-0.5382,-0.5382,-0.5382,-0.2967,-0.1791,-0.1679,0.1345,0.2693,0.275,0.3365,0.3587,0.3587,0.3587,0.3587,0.3587,0.3587,0.3587,0.3587,0.3587,0.3587,0.3587,-2.7073,-2.7073,-2.7073,-2.7073,-2.7073,-2.7073,-2.7073,-2.7073,-2.6579,-2.5296,-2.505,-2.4548,-2.323,-2.3106,-2.3106,-2.3106,-2.3106,-2.3106,-2.3106,-2.3106,-2.2959,-2.2637,-2.2623,-2.2206,-2.1313,-2.1269,-2.124,-2.1211,-2.1211,-2.1211,-2.1211,-2.1211,-2.0206,-1.8389,-1.8389,-1.7343,-1.5601,-1.5601,-1.5601,-1.5601,-1.5601,-1.5601,-1.5601,-1.5601,-1.5601,-1.5601,-1.5601,-1.5601,-1.5601,-1.5601,-1.5456,-1.5183,-1.4993,-1.4767,-1.4539,-1.4462,-1.4362,-1.4142,-1.3513,-1.2905,-1.2296,-1.1791,-1.1185,-1.0692,-1.0692,-1.0692,-1.0194,-0.8361,-0.7974,-0.7479,-0.5714,-0.5382,-0.5382,-0.5382,-0.5382,-0.5382,-0.5382,-0.5382,-0.5382,-0.5382,-0.5382,-0.5382,-0.5382,-0.5382,-0.5382,-0.5382,-0.5382,-0.5382,-0.5382,-0.5382,-0.5382,-0.5382,-0.5382,-0.5382,-0.5382,-0.5382,-0.5326,-0.5212,-0.2911,-0.1735,-0.1512,0.1401,0.2693,0.275,0.3365,0.3587,0.3587,0.3587,0.3587,0.3587,0.3587,0.3587,0.3587,0.3587,0.3587,0.3587,-2.7073,-2.7073,-2.7073,-2.7073,-2.7073,-2.7073,-2.7073,-2.664,-2.6014,-2.5234,-2.4672,-2.3984,-2.3168,-2.3106,-2.3106,-2.3106,-2.3106,-2.3106,-2.3106,-2.3106,-2.2959,-2.2637,-2.2623,-2.2418,-2.1979,-2.1723,-2.1467,-2.1211,-2.1211,-2.1211,-2.1211,-2.1211,-2.0206,-1.8389,-1.8389,-1.7343,-1.5601,-1.5601,-1.5601,-1.5601,-1.5601,-1.5601,-1.5601,-1.5601,-1.5601,-1.5601,-1.5601,-1.5601,-1.5601,-1.5601,-1.5564,-1.5483,-1.5188,-1.5081,-1.4886,-1.4246,-1.4379,-1.458,-1.3779,-1.312,-1.2639,-1.2315,-1.1455,-1.0692,-1.0692,-1.0692,-1.0194,-0.8361,-0.7974,-0.7479,-0.5714,-0.5382,-0.5382,-0.5382,-0.5382,-0.5382,-0.5382,-0.5382,-0.5382,-0.5382,-0.5382,-0.5382,-0.5382,-0.5382,-0.5382,-0.5382,-0.5382,-0.5382,-0.5382,-0.5382,-0.5382,-0.5382,-0.5382,-0.5382,-0.5382,-0.5382,-0.4931,-0.3973,-0.2519,-0.1175,0.0056,0.185,0.2805,0.3026,0.3419,0.3587,0.3587,0.3587,0.3587,0.3587,0.3587,0.3587,0.3587,0.3587,0.3587,0.3587,-2.7073,-2.7073,-2.7073,-2.7073,-2.7073,-2.7012,-2.67,-2.6327,-2.577,-2.4734,-2.4293,-2.386,-2.3168,-2.3106,-2.3106,-2.3106,-2.3106,-2.3106,-2.3106,-2.3106,-2.3032,-2.2864,-2.2857,-2.271,-2.2396,-2.2228,-2.1906,-2.1445,-2.1284,-2.1211,-2.1211,-2.1211,-2.0206,-1.8389,-1.8389,-1.7343,-1.5601,-1.5601,-1.5601,-1.5601,-1.5601,-1.5601,-1.5601,-1.5601,-1.5601,-1.5601,-1.5601,-1.5601,-1.5601,-1.5601,-1.5601,-1.558,-1.5456,-1.5285,-1.5109,-1.4641,-1.4463,-1.4406,-1.4281,-1.3345,-1.2505,-1.2579,-1.1704,-1.0802,-1.0712,-1.0692,-1.0194,-0.8361,-0.7974,-0.7479,-0.5714,-0.5382,-0.5382,-0.5382,-0.5382,-0.5382,-0.5382,-0.5382,-0.5382,-0.5382,-0.5382,-0.5382,-0.5382,-0.5382,-0.5382,-0.5382,-0.5382,-0.5382,-0.5382,-0.5382,-0.5382,-0.5382,-0.5382,-0.5382,-0.5382,-0.5382,-0.4482,-0.2742,-0.2127,-0.1007,0.056,0.2018,0.2861,0.3137,0.3475,0.3587,0.3587,0.3587,0.3587,0.3587,0.3587,0.3587,0.3587,0.3587,0.3587,0.3587,-2.7073,-2.7073,-2.7073,-2.7073,-2.7073,-2.6882,-2.6388,-2.6197,-2.57,-2.4602,-2.4232,-2.3922,-2.3362,-2.3168,-2.3106,-2.3106,-2.3106,-2.3106,-2.3106,-2.3106,-2.3106,-2.3106,-2.3106,-2.2981,-2.271,-2.2652,-2.2315,-2.1693,-2.1423,-2.1262,-2.1211,-2.1039,-2.0033,-1.8389,-1.8215,-1.7232,-1.5601,-1.5601,-1.5601,-1.5601,-1.5601,-1.5601,-1.5601,-1.5601,-1.5601,-1.5601,-1.5601,-1.5601,-1.5601,-1.5601,-1.5601,-1.5601,-1.5601,-1.5467,-1.5253,-1.5014,-1.453,-1.4083,-1.4386,-1.3341,-1.2263,-1.2566,-1.185,-1.0972,-1.0818,-1.0737,-1.0249,-0.8585,-0.814,-0.7534,-0.5935,-0.5493,-0.5382,-0.5382,-0.5382,-0.5382,-0.5382,-0.5382,-0.5382,-0.5382,-0.5382,-0.5382,-0.5382,-0.5382,-0.5382,-0.5382,-0.5382,-0.5382,-0.5382,-0.5382,-0.5382,-0.5382,-0.5382,-0.5382,-0.5382,-0.5382,-0.4201,-0.1791,-0.1791,-0.0839,0.0896,0.213,0.2861,0.3194,0.3475,0.3587,0.3587,0.3587,0.3587,0.3587,0.3587,0.3587,0.3587,0.3587,0.3587,0.3587,-2.7073,-2.7073,-2.7073,-2.7073,-2.7073,-2.7073,-2.6952,-2.6449,-2.6014,-2.5823,-2.4849,-2.4046,-2.3984,-2.3425,-2.3106,-2.3106,-2.3106,-2.3106,-2.3106,-2.3106,-2.3106,-2.3106,-2.3106,-2.3091,-2.3047,-2.2769,-2.2315,-2.1693,-2.165,-2.1489,-2.1153,-2.0399,-1.9397,-1.8389,-1.7578,-1.6585,-1.5601,-1.5601,-1.5601,-1.5601,-1.5601,-1.5601,-1.5601,-1.5601,-1.5601,-1.5601,-1.5601,-1.5601,-1.5601,-1.5601,-1.5601,-1.5601,-1.5601,-1.558,-1.5311,-1.4242,-1.4212,-1.4262,-1.3088,-1.2579,-1.2413,-1.2267,-1.1704,-1.1183,-1.1155,-1.0911,-1.0414,-0.9416,-0.8585,-0.77,-0.6712,-0.5882,-0.5382,-0.5382,-0.5382,-0.5382,-0.5382,-0.5382,-0.5382,-0.5382,-0.5382,-0.5382,-0.5382,-0.5382,-0.5382,-0.5382,-0.5382,-0.5382,-0.5382,-0.5382,-0.5382,-0.5382,-0.5382,-0.5382,-0.5382,-0.5382,-0.4201,-0.1791,-0.1791,-0.0336,0.2412,0.2581,0.3029,0.3531,0.3587,0.3587,0.3587,0.3587,0.3587,0.3587,0.3587,0.3587,0.3587,0.3587,0.3587,0.3587,-2.7073,-2.7073,-2.7073,-2.7073,-2.7073,-2.6952,-2.6571,-2.6319,-2.5953,-2.5586,-2.4726,-2.4108,-2.4108,-2.3487,-2.3106,-2.3106,-2.3106,-2.3106,-2.3106,-2.3106,-2.3106,-2.3106,-2.3106,-2.3106,-2.3106,-2.2967,-2.2674,-2.2213,-2.1869,-2.162,-2.1474,-2.0888,-1.9802,-1.8389,-1.7981,-1.6997,-1.5601,-1.5601,-1.5601,-1.5601,-1.5601,-1.5601,-1.5601,-1.5601,-1.5601,-1.5601,-1.5601,-1.5601,-1.5601,-1.5601,-1.5601,-1.5601,-1.5601,-1.5601,-1.5418,-1.4461,-1.4157,-1.3959,-1.3278,-1.2605,-1.2145,-1.2305,-1.1845,-1.135,-1.1244,-1.0703,-0.9942,-0.9006,-0.8363,-0.759,-0.6214,-0.5659,-0.5382,-0.5382,-0.5382,-0.5382,-0.5382,-0.5382,-0.5382,-0.5382,-0.5382,-0.5382,-0.5382,-0.5382,-0.5382,-0.5382,-0.5382,-0.5382,-0.5382,-0.5382,-0.5382,-0.5382,-0.5382,-0.5382,-0.5382,-0.5382,-0.4201,-0.1791,-0.1791,-0.0224,0.2693,0.2693,0.3029,0.3587,0.3587,0.3587,0.3587,0.3587,0.3587,0.3587,0.3587,0.3587,0.3587,0.3587,0.3587,0.3587]},{"header":{"parameterUnit":"m.s-1","parameterCategory":1,"la1":30.6,"la2":28.766,"lo1":-90.7593,"lo2":-88.6598,"dx":0.0162,"dy":0.0183,"nx":116,"ny":114,"refTime":"2023-01-02T18:00:00:Z","depth":0,"parameterNumber":3,"parameterNumberName":"V-component_of_WINDS"},"data":[0.0,0.0,0.0,0.0,0.0,0.0,0.0,0.0,0.0,0.0,0.0,0.0,0.0,0.0,0.0,0.0,0.0,0.0,0.0,0.0,0.0,0.0,0.0,0.0,0.0,0.0,0.0,0.0,0.0,0.0,0.0,0.0,0.0,0.0,0.0,0.0,0.0,0.0,0.0,0.0,0.0,0.0,0.0,0.0,0.0,0.0,0.0,0.0,0.0,0.0,0.0,0.0,0.0,0.0,0.0,0.0,0.0,0.0,0.0,0.0,0.0,0.0,0.0,0.0,0.0,0.0,0.0,0.0,0.0,0.0,0.0,0.0,0.0,0.0,0.0,0.0,0.0,0.0,0.0,0.0,0.0,0.0,0.0,0.0,0.0,0.0,0.0,0.0,0.0,0.0,0.0,0.0,0.0,0.0,0.0,0.0,0.0,0.0,0.0,0.0,0.0,0.0,0.0,0.0,0.0,0.0,0.0,0.0,0.0,0.0,0.0,0.0,0.0,0.0,0.0,0.0,0.0,0.0,0.0,0.0,0.0,0.0,0.0,0.0,0.0,0.0,0.0,0.0,0.0,0.0,0.0,0.0,0.0,0.0,0.0,0.0,0.0,0.0,0.0,0.0,0.0,0.0,0.0,0.0,0.0,0.0,0.0,0.0,0.0,0.0,0.0,0.0,0.0,0.0,0.0,0.0,0.0,0.0,0.0,0.0,0.0,0.0,0.0,0.0,0.0,0.0,0.0,0.0,0.0,0.0,0.0,0.0,0.0,0.0,0.0,0.0,0.0,0.0,0.0,0.0,0.0,0.0,0.0,0.0,0.0,0.0,0.0,0.0,0.0,0.0,0.0,0.0,0.0,0.0,0.0,0.0,0.0,0.0,0.0,0.0,0.0,0.0,0.0,0.0,0.0,0.0,0.0,0.0,0.0,0.0,0.0,0.0,0.0,0.0,0.0,0.0,0.0,0.0,0.0,0.0,0.0,0.0,0.0,0.0,0.0,0.0,0.0,0.0,0.0,0.0,0.0,0.0,0.0,0.0,0.0,0.0,0.0,0.0,0.0,0.0,0.0,0.0,0.0,0.0,0.0,0.0,0.0,0.0,0.0,0.0,0.0,0.0,0.0,0.0,0.0,0.0,0.0,0.0,0.0,0.0,0.0,0.0,0.0,0.0,0.0,0.0,0.0,0.0,0.0,0.0,0.0,0.0,0.0,0.0,0.0,0.0,0.0,0.0,0.0,0.0,0.0,0.0,0.0,0.0,0.0,0.0,0.0,0.0,0.0,0.0,0.0,0.0,0.0,0.0,0.0,0.0,0.0,0.0,0.0,0.0,0.0,0.0,0.0,0.0,0.0,0.0,0.0,0.0,0.0,0.0,0.0,0.0,0.0,0.0,0.0,0.0,0.0,0.0,0.0,0.0,0.0,0.0,0.0,0.0,0.0,0.0,0.0,0.0,0.0,0.0,0.0,0.0,0.0,0.0,0.0,0.0,0.0,0.0,0.0,0.0,0.0,0.0,0.0,0.0,0.0,0.0,0.0,0.0,0.0,0.0,0.0,0.0,0.0,0.0,0.0,0.0,0.0,0.0,0.0,0.0,0.0,0.0,0.0,0.0,0.0,0.0,0.0,0.0,0.0,0.0,0.0,0.0,0.0,0.0,0.0,0.0,0.0,0.0,0.0,0.0,0.0,0.0,0.0,0.0,0.0,0.0,0.0,0.0,0.0,0.0,0.0,0.0,0.0,0.0,0.0,0.0,0.0,0.0,0.0,0.0,0.0,0.0,0.0,0.0,0.0,0.0,0.0,0.0,0.0,0.0,0.0,0.0,0.0,0.0,0.0,0.0,0.0,0.0,0.0,0.0,0.0,0.0,0.0,0.0,0.0,0.0,0.0,0.0,0.0,0.0,0.0,0.0,0.0,0.0,0.0,0.0,0.0,0.0,0.0,0.0,0.0,0.0,0.0,0.0,0.0,0.0,0.0,0.0,0.0,0.0,0.0,0.0,0.0,0.0,0.0,0.0,0.0,0.0,0.0,0.0,0.0,0.0,0.0,0.0,0.0,0.0,0.0,0.0,0.0,0.0,0.0,0.0,0.0,0.0,0.0,0.0,0.0,0.0,0.0,0.0,0.0,0.0,0.0,0.0,0.0,0.0,0.0,0.0,0.0,0.0,0.0,0.0,0.0,0.0,0.0,0.0,0.0,0.0,0.0,0.0,0.0,0.0,0.0,0.0,0.0,0.0,0.0,0.0,0.0,0.0,0.0,0.0,0.0,0.0,0.0,0.0,0.0,0.0,0.0,0.0,0.0,0.0,0.0,0.0,0.0,0.0,0.0,0.0,0.0,0.0,0.0,0.0,0.0,0.0,0.0,0.0,0.0,0.0,0.0,0.0,0.0,0.0,0.0,0.0,0.0,0.0,0.0,0.0,0.0,0.0,0.0,0.0,0.0,0.0,0.0,0.0,0.0,0.0,0.0,0.0,0.0,0.0,0.0,0.0,0.0,0.0,0.0,0.0,0.0,0.0,0.0,0.0,0.0,0.0,0.0,0.0,0.0,0.0,0.0,0.0,0.0,0.0,0.0,0.0,0.0,0.0,0.0,0.0,0.0,0.0,0.0,0.0,0.0,0.0,0.0,0.0,0.0,0.0,0.0,0.0,0.0,0.0,0.0,0.0,0.0,0.0,0.0,0.0,0.0,0.0,0.0,0.0,0.0,0.0,0.0,0.0,0.0,0.0,0.0,0.0,0.0,0.0,0.0,0.0,0.0,0.0,0.0,0.0,0.0,0.0,0.0,0.0,0.0,0.0,0.0,0.0,0.0,0.0,0.0,0.0,0.0,0.0,0.0,0.0,0.0,0.0,0.0,0.0,0.0,0.0,0.0,0.0,0.0,0.0,0.0,0.0,0.0,0.0,0.0,0.0,0.0,0.0,0.0,0.0,0.0,0.0,0.0,0.0,0.0,0.0,0.0,0.0,0.0,0.0,0.0,0.0,0.0,0.0,0.0,0.0,0.0,0.0,0.0,0.0,0.0,0.0,0.0,0.0,0.0,0.0,0.0,0.0,0.0,0.0,0.0,0.0,0.0,0.0,0.0,0.0,0.0,0.0,0.0,0.0,0.0,0.0,0.0,0.0,0.0,0.0,0.0,0.0,0.0,0.0,0.0,0.0,0.0,0.0,0.0,0.0,0.0,0.0,0.0,0.0,0.0,0.0,0.0,0.0,0.0,0.0,0.0,0.0,0.0,0.0,0.0,0.0,0.0,0.0,0.0,0.0,0.0,0.0,0.0,0.0,0.0,0.0,0.0,0.0,0.0,0.0,0.0,0.0,0.0,0.0,0.0,0.0,0.0,0.0,0.0,0.0,0.0,0.0,0.0,0.0,0.0,0.0,0.0,0.0,0.0,0.0,0.0,0.0,0.0,0.0,0.0,0.0,0.0,0.0,0.0,0.0,0.0,0.0,0.0,0.0,0.0,0.0,0.0,0.0,0.0,0.0,0.0,0.0,0.0,0.0,0.0,0.0,0.0,0.0,0.0,0.0,0.0,0.0,0.0,0.0,0.0,0.0,0.0,0.0,0.0,0.0,0.0,0.0,0.0,0.0,0.0,0.0,0.0,0.0,0.0,0.0,0.0,0.0,0.0,0.0,0.0,0.0,0.0,0.0,0.0,0.0,0.0,0.0,0.0,0.0,0.0,0.0,0.0,0.0,0.0,0.0,0.0,0.0,0.0,0.0,0.0,0.0,0.0,0.0,0.0,0.0,0.0,0.0,0.0,0.0,0.0,0.0,0.0,0.0,0.0,0.0,0.0,0.0,0.0,0.0,0.0,0.0,0.0,0.0,0.0,0.0,0.0,0.0,0.0,0.0,0.0,0.0,0.0,0.0,0.0,0.0,0.0,0.0,0.0,0.0,0.0,0.0,0.0,0.0,0.0,0.0,0.0,0.0,0.0,0.0,0.0,0.0,0.0,0.0,0.0,0.0,0.0,0.0,0.0,0.0,0.0,0.0,0.0,0.0,0.0,0.0,0.0,0.0,0.0,0.0,0.0,0.0,0.0,0.0,0.0,0.0,0.0,0.0,0.0,0.0,0.0,0.0,0.0,0.0,0.0,0.0,0.0,0.0,0.0,0.0,0.0,0.0,0.0,0.0,0.0,0.0,0.0,0.0,0.0,0.0,0.0,0.0,0.0,0.0,0.0,0.0,0.0,0.0,0.0,0.0,0.0,0.0,0.0,0.0,0.0,0.0,0.0,0.0,0.0,0.0,0.0,0.0,0.0,0.0,0.0,0.0,0.0,0.0,0.0,0.0,0.0,0.0,0.0,0.0,0.0,0.0,0.0,0.0,0.0,0.0,0.0,0.0,0.0,0.0,0.0,0.0,0.0,0.0,0.0,0.0,0.0,0.0,0.0,0.0,0.0,0.0,0.0,0.0,0.0,0.0,0.0,0.0,0.0,0.0,0.0,0.0,0.0,0.0,0.0,0.0,0.0,0.0,0.0,0.0,0.0,0.0,0.0,0.0,0.0,0.0,0.0,0.0,0.0,0.0,0.0,0.0,0.0,0.0,0.0,0.0,0.0,0.0,0.0,0.0,0.0,0.0,0.0,0.0,0.0,0.0,0.0,0.0,0.0,0.0,0.0,0.0,0.0,0.0,0.0,0.0,0.0,0.0,0.0,0.0,0.0,0.0,0.0,0.0,0.0,0.0,0.0,0.0,0.0,0.0,0.0,0.0,0.0,0.0,0.0,0.0,0.0,0.0,0.0,0.0,0.0,0.0,0.0,0.0,0.0,0.0,0.0,0.0,0.0,0.0,0.0,0.0,0.0,0.0,0.0,0.0,0.0,0.0,0.0,0.0,0.0,0.0,0.0,0.0,0.0,0.0,0.0,0.0,0.0,0.0,0.0,0.0,0.0,0.0,0.0,0.0,0.0,0.0,0.0,0.0,0.0,0.0,0.0,0.0,0.0,0.0,0.0,0.0,0.0,0.0,0.0,0.0,0.0,0.0,0.0,0.0,0.0,0.0,0.0,0.0,0.0,0.0,0.0,0.0,0.0,0.0,0.0,0.0,0.0,0.0,0.0,0.0,0.0,0.0,0.0,0.0,0.0,0.0,0.0,0.0,0.0,0.0,0.0,0.0,0.0,0.0,0.0,0.0,0.0,0.0,0.0,0.0,0.0,0.0,0.0,0.0,0.0,0.0,0.0,0.0,0.0,0.0,0.0,0.0,0.0,0.0,0.0,0.0,0.0,0.0,0.0,0.0,0.0,0.0,0.0,0.0,0.0,0.0,0.0,0.0,0.0,0.0,0.0,0.0,0.0,0.0,0.0,0.0,0.0,0.0,0.0,0.0,0.0,0.0,0.0,0.0,0.0,0.0,0.0,0.0,0.0,0.0,0.0,0.0,0.0,0.0,0.0,0.0,0.0,0.0,0.0,0.0,0.0,0.0,0.0,0.0,0.0,0.0,0.0,0.0,0.0,0.0,0.0,0.0,0.0,0.0,0.0,0.0,0.0,0.0,0.0,0.0,0.0,0.0,0.0,0.0,0.0,0.0,0.0,0.0,0.0,0.0,0.0,0.0,0.0,0.0,0.0,0.0,0.0,0.0,0.0,0.0,0.0,0.0,0.0,0.0,0.0,0.0,0.0,0.0,0.0,0.0,0.0,0.0,0.0,0.0,0.0,0.0,0.0,0.0,0.0,0.0,0.0,0.0,0.0,0.0,0.0,0.0,0.0,0.0,0.0,0.0,0.0,0.0,0.0,0.0,0.0,0.0,0.0,0.0,0.0,0.0,0.0,0.0,0.0,0.0,0.0,0.0,0.0,0.0,0.0,0.0,0.0,0.0,0.0,0.0,0.0,0.0,0.0,0.0,0.0,0.0,0.0,0.0,0.0,0.0,0.0,0.0,0.0,0.0,0.0,0.0,0.0,0.0,0.0,0.0,0.0,0.0,0.0,0.0,0.0,0.0,0.0,0.0,0.0,0.0,0.0,0.0,0.0,0.0,0.0,0.0,0.0,0.0,0.0,0.0,0.0,0.0,0.0,0.0,0.0,0.0,0.0,0.0,0.0,0.0,0.0,0.0,0.0,0.0,0.0,0.0,1.159,1.0299,0.0,0.0,0.0,0.0,0.0,0.0,0.0,0.0,0.0,0.0,0.0,0.0,0.0,0.0,0.0,0.0,0.0,0.0,0.0,0.0,0.0,0.0,0.0,0.6325,0.6346,0.6295,0.6325,0.0,0.0,0.0,0.0,0.0,0.0,0.0,0.0,0.0,0.6712,0.6991,0.7814,0.835,0.859,0.8035,0.7495,0.7005,0.0,0.0,0.0,0.0,0.0,0.0,0.0,0.0,0.0,0.0,0.0,0.0,0.0,0.0,0.0,0.0,0.0,0.0,0.0,0.0,0.0,0.0,0.0,0.0,0.0,0.0,0.0,0.0,0.0,0.0,0.0,0.0,0.0,0.0,0.0,0.0,0.0,0.0,0.0,0.0,0.0,0.0,0.0,0.0,0.0,0.0,0.0,0.0,0.0,0.0,0.0,0.0,0.0,0.0,0.0,0.0,0.0,0.0,0.0,0.0,0.0,0.0,0.0,0.0,0.0,0.0,0.0,0.0,0.0,0.0,1.3227,1.1728,0.0,0.0,0.0,0.0,0.0,0.0,0.0,0.0,0.0,0.0,0.0,0.0,0.0,0.0,0.0,0.0,0.0,0.0,0.0,0.0,0.0,0.6439,0.6439,0.6523,0.658,0.658,0.6641,0.6672,0.6681,0.6659,0.0,0.0,0.0,0.0,0.0,0.7366,0.7691,0.7691,0.8926,0.9868,1.0483,1.0483,0.9993,0.914,0.875,0.0,0.0,0.0,0.0,0.0,0.0,0.0,0.0,0.0,0.0,0.0,0.0,0.0,0.0,0.0,0.0,0.0,0.0,0.0,0.0,0.0,0.0,0.0,0.0,0.0,0.0,0.0,0.0,0.0,0.0,0.0,0.0,0.0,0.0,0.0,0.0,0.0,0.0,0.0,0.0,0.0,0.0,0.0,0.0,0.0,0.0,0.0,0.0,0.0,0.0,0.0,0.0,0.0,0.0,0.0,0.0,0.0,0.0,0.0,0.0,0.0,0.0,0.0,1.6144,1.6587,1.6657,1.6946,1.7222,1.7349,1.5308,1.3784,1.2764,1.263,0.0,0.0,0.0,0.0,0.0,0.0,0.0,0.0,0.0,0.0,0.0,0.0,0.0,0.0,0.0,0.0,0.0,0.0,0.0,0.6989,0.6989,0.7407,0.7684,0.7684,0.7751,0.7783,0.7791,0.7464,0.0,0.0,0.0,0.0,0.7294,0.8336,0.8875,0.8875,1.0484,1.1789,1.276,1.276,1.2685,1.2472,1.0545,0.9378,0.8862,0.0,0.0,0.0,0.0,0.0,0.0,0.0,0.0,0.0,0.0,0.0,0.0,0.0,0.0,0.0,0.0,0.0,0.0,0.0,0.0,0.0,0.0,0.0,0.0,0.0,0.0,0.0,0.0,0.0,0.0,0.0,0.0,0.0,0.0,0.0,0.0,0.0,0.0,0.0,0.0,0.0,0.8488,0.8567,0.0,0.0,0.0,0.0,0.0,0.0,0.0,0.0,0.0,0.0,0.0,0.0,0.0,1.4853,1.6159,1.6263,1.6652,1.7325,1.7447,1.7698,1.8038,1.8083,1.8409,1.89,1.8583,0.0,1.5767,1.5181,0.0,0.0,0.0,0.0,0.0,0.0,0.0,0.0,0.0,0.0,0.0,0.0,0.0,0.0,0.0,0.0,0.0,0.0,0.0,0.0,0.0,0.8234,0.8513,0.8778,0.8937,0.8838,0.8427,0.8298,0.0,0.0,0.0,0.7953,0.8296,0.9379,1.0593,1.1907,1.265,1.3388,1.4161,1.4161,1.4161,1.4111,1.3149,1.1892,1.0509,1.0509,0.0,0.0,0.0,0.0,0.0,0.0,0.0,0.0,0.0,0.0,0.0,0.0,0.0,0.0,0.0,0.0,0.0,0.0,0.0,0.0,0.0,0.0,0.0,0.0,0.0,0.0,0.0,0.0,0.0,0.0,0.0,0.0,0.0,0.0,0.0,0.0,0.0,0.0,0.0,0.901,0.9408,0.9924,0.999,1.0045,0.0,0.0,0.0,0.0,0.0,0.0,0.0,0.0,0.0,1.54,1.5825,1.6418,1.7202,1.7606,1.7968,1.8267,1.9062,1.9542,1.9734,2.0511,2.0803,2.0693,2.1149,2.0411,1.8797,1.7657,1.6753,1.6075,0.0,0.0,0.0,0.0,1.6189,1.6299,0.0,0.0,0.0,0.0,0.0,0.0,0.0,0.0,0.0,0.0,0.0,0.0,0.9007,0.9409,0.9811,1.0298,1.0355,1.0139,0.9628,0.9413,0.9108,0.8645,0.8679,0.8985,0.9552,1.0804,1.2523,1.4714,1.4714,1.5079,1.5739,1.5739,1.5739,1.5739,1.5739,1.4444,1.2231,1.2231,1.1409,1.0026,0.0,0.0,0.0,0.0,0.0,0.0,0.0,0.0,0.0,0.0,0.0,0.0,0.0,0.0,0.0,0.0,0.0,0.0,0.0,0.0,0.0,0.0,0.0,0.0,0.0,0.0,0.0,0.0,0.0,0.0,0.0,0.0,0.0,0.0,0.0,0.0,0.0,1.017,1.0779,1.1388,1.1849,1.2156,0.0,0.0,0.0,0.0,0.0,0.0,1.4602,1.5408,1.6198,1.6913,1.7282,1.7761,1.8393,1.8937,1.9301,1.948,2.0531,2.1128,2.1348,2.2394,2.2684,2.2409,2.2986,2.2619,2.1489,1.9887,1.8781,1.815,1.8262,1.8328,1.8415,1.8667,1.8833,1.8971,0.0,0.0,0.0,0.0,0.0,0.0,0.0,0.0,0.0,0.0,0.0,0.9665,1.0175,1.1188,1.2045,1.2596,1.2183,1.1928,1.2025,1.1025,1.0381,1.0284,1.0342,1.0601,1.1076,1.2835,1.4599,1.6375,1.6375,1.6961,1.8041,1.8041,1.8041,1.8041,1.8041,1.6531,1.3977,1.3977,1.3078,1.164,1.1086,0.0,0.0,0.0,0.0,0.0,0.0,0.0,0.0,0.0,0.0,0.0,0.0,0.0,0.0,0.0,0.0,0.0,0.0,0.0,0.0,0.0,0.0,0.0,0.0,0.0,0.0,0.0,0.0,0.0,0.0,0.0,0.0,0.0,0.0,0.0,0.0,0.0,0.0,1.2748,1.3662,0.0,0.0,0.0,0.0,1.5103,1.5202,1.5612,1.6518,1.6603,1.7176,1.8369,1.8413,1.9108,2.0539,2.0583,2.0932,2.1545,2.1614,2.2011,2.2688,2.2772,2.3212,2.3884,2.3934,2.3901,2.3685,2.1692,2.0478,1.9866,1.9866,2.005,2.0263,2.0275,2.0576,2.0957,0.0,0.0,0.0,0.6295,0.6295,0.6415,0.676,0.6977,0.7469,0.8514,0.9466,1.0517,1.1716,1.2544,1.3235,1.3712,1.3673,1.3454,1.3124,1.2733,1.2321,1.1964,1.1919,1.2377,1.3374,1.4821,1.6065,1.7074,1.7426,1.7802,1.8204,1.8204,1.8204,1.8204,1.8204,1.7652,1.6694,1.5944,1.4979,1.3818,1.2445,1.18,0.0,0.0,0.0,0.0,0.0,0.0,0.0,0.0,0.0,0.0,0.0,0.0,0.0,0.0,0.0,0.0,0.0,0.0,0.0,0.0,0.0,0.0,0.0,0.0,0.0,0.0,0.0,0.0,0.0,0.0,0.0,0.0,0.0,0.0,0.0,0.0,0.0,1.4938,1.5548,0.0,1.5413,1.5706,1.6008,1.6183,1.6799,1.7298,1.7648,1.8483,1.9163,1.9585,2.0144,2.0684,2.1218,2.1296,2.1455,2.1695,2.1916,2.2308,2.2814,2.3546,2.3938,2.4033,2.4547,2.453,2.4079,2.3452,2.2966,2.2655,2.2788,2.3031,2.3319,2.3545,2.3829,2.4146,0.0,0.0,0.0,0.6295,0.6295,0.6475,0.7013,0.7407,0.8093,0.9342,1.0452,1.16,1.2842,1.3677,1.4339,1.4833,1.4752,1.4517,1.4165,1.3951,1.3677,1.3325,1.3465,1.4043,1.5126,1.6184,1.713,1.794,1.8304,1.8568,1.8744,1.8744,1.8744,1.8744,1.8744,1.8643,1.8406,1.7654,1.665,1.5438,1.4024,1.3392,1.3098,0.0,0.0,0.0,0.0,0.0,0.0,0.0,0.0,0.0,0.0,0.0,0.0,0.0,0.0,0.0,0.0,0.0,0.0,0.0,0.0,0.0,0.0,0.0,0.0,0.0,0.0,0.0,0.0,0.0,0.0,0.0,0.0,0.0,0.0,1.5075,1.5972,1.6432,1.709,1.7362,1.7015,1.7307,1.7605,1.7819,1.845,1.8927,1.913,2.0026,2.0572,2.0592,2.1198,2.1624,2.1908,2.2004,2.2128,2.2358,2.2726,2.3123,2.3544,2.4413,2.4811,2.4779,2.5311,2.5295,2.4896,2.5028,2.5028,2.4879,2.4678,2.4793,2.5111,2.5424,2.5694,2.5955,0.0,0.0,0.6295,0.6295,0.6319,0.6499,0.7037,0.8044,0.8922,0.9474,1.1467,1.2998,1.3469,1.455,1.5429,1.5952,1.5398,1.5088,1.5222,1.4655,1.4369,1.4381,1.4926,1.5566,1.6237,1.6901,1.7847,1.8995,1.9033,1.9309,1.9823,1.9823,1.9823,1.9823,1.9811,1.9497,1.902,1.9008,1.8067,1.6518,1.5795,1.4988,1.4067,0.0,0.0,0.0,0.0,0.0,0.0,0.0,0.0,0.0,0.0,0.0,0.0,0.0,0.0,0.0,0.0,0.0,0.0,0.0,0.0,0.0,0.0,0.0,0.0,0.0,0.0,0.0,0.0,0.0,0.0,0.0,0.0,0.0,1.4552,1.6299,1.7497,1.7153,1.829,1.8979,1.8615,1.8917,1.9435,2.0074,2.0132,2.0378,2.0973,2.1176,2.1307,2.1433,2.1519,2.1952,2.2718,2.2718,2.3032,2.3595,2.4057,2.4492,2.4902,2.5294,2.574,2.6202,2.6219,2.6235,2.6236,2.6482,2.6569,2.647,2.5446,2.5223,2.5512,2.5778,2.6039,2.6276,0.6295,0.6295,0.6295,0.6295,0.6628,0.7061,0.76,0.8598,0.9606,1.0546,1.2203,1.35,1.4012,1.5004,1.569,1.5846,1.5682,1.5642,1.577,1.554,1.5594,1.61,1.6359,1.6757,1.7355,1.8112,1.8609,1.8859,1.9798,2.0314,2.0453,2.0453,2.0453,2.0427,1.9987,1.9723,1.956,1.9171,1.8732,1.818,1.678,1.6035,1.5607,0.0,0.0,0.0,0.0,0.0,0.0,0.0,0.0,0.0,0.0,0.0,0.0,0.0,0.0,0.0,0.0,0.0,0.0,0.0,0.0,0.0,0.0,0.0,0.0,0.0,0.0,0.0,0.0,0.0,0.0,0.0,1.6374,1.6835,1.6729,1.7491,1.8356,1.9146,1.9594,1.9947,2.0281,2.0405,2.0553,2.0741,2.0837,2.0971,2.1146,2.1786,2.2156,2.2191,2.2727,2.314,2.334,2.334,2.343,2.3595,2.3724,2.4173,2.4902,2.502,2.5478,2.6219,2.6766,2.7037,2.7125,2.7694,2.8039,2.8053,2.7004,2.679,2.7112,2.7366,2.7679,2.802,0.6295,0.6295,0.6295,0.6295,0.6748,0.7287,0.7816,0.9006,1.0135,1.099,1.2709,1.3951,1.4285,1.5199,1.5792,1.5792,1.5792,1.5836,1.5913,1.6041,1.6424,1.7013,1.7179,1.753,1.8118,1.8884,1.937,1.9595,2.055,2.1043,2.1043,2.1043,2.0918,2.0679,2.0339,2.0024,1.9786,1.9459,1.9208,1.892,1.7942,1.7254,1.6723,1.5856,1.5298,1.4875,1.3993,1.3442,1.3076,1.2733,0.0,0.0,0.0,0.0,0.0,0.0,0.0,0.0,0.0,0.0,0.0,0.0,0.0,0.0,0.0,0.0,0.0,0.0,0.0,0.0,0.0,0.0,0.0,0.0,1.7726,1.8331,1.8603,1.8858,1.9362,2.0364,2.048,2.0611,2.0959,2.1044,2.1181,2.1394,2.1576,2.1756,2.1971,2.2587,2.2923,2.2923,2.3372,2.3595,2.3595,2.4096,2.4355,2.4355,2.5006,2.5571,2.6074,2.6269,2.6651,2.7147,2.7564,2.7784,2.7873,2.8516,2.8775,2.8727,0.0,0.0,0.0,0.0,2.944,2.9676,0.6295,0.6295,0.6295,0.6295,0.6796,0.7347,0.7828,0.9319,1.057,1.1039,1.2926,1.4229,1.4277,1.5151,1.5732,1.578,1.5792,1.5816,1.5876,1.6343,1.6883,1.7496,1.7642,1.8044,1.8756,1.939,2.0056,2.0765,2.1305,2.1581,2.1581,2.1581,2.1292,2.0779,2.0717,2.0365,1.9798,1.9798,1.9535,1.9083,1.902,1.8405,1.7485,1.749,1.7019,1.627,1.5828,1.5407,1.5047,1.4818,0.0,0.0,0.0,0.0,0.0,0.0,0.0,0.0,0.0,0.0,0.0,0.0,0.0,0.0,0.0,0.0,0.0,0.0,0.0,0.0,0.0,0.0,0.0,0.0,1.8895,1.9464,2.0204,2.0306,2.0509,2.1046,2.1139,2.1154,2.1206,2.1345,2.1614,2.2084,2.2292,2.2642,2.312,2.3378,0.0,0.0,0.0,2.3744,2.3819,2.4961,2.5506,2.5543,2.6955,2.7672,2.7717,2.8125,2.8354,2.8409,2.8511,2.8544,2.8566,2.9201,2.9343,2.9196,2.9659,2.995,3.0187,3.0786,3.0998,3.1043,0.6316,0.6295,0.6295,0.6295,0.7097,0.778,0.7876,0.9632,1.0978,1.1087,1.2601,1.3819,1.4241,1.4814,1.5325,1.5756,1.5792,1.5972,1.6427,1.665,1.7205,1.8164,1.8238,1.8751,1.9873,2.0184,2.06,2.1176,2.1825,2.2159,2.2159,2.2159,2.1857,2.1333,2.0893,2.0365,1.9798,1.9798,1.9748,1.961,1.9171,1.8607,1.8001,1.7591,1.7301,1.7073,1.6342,1.5867,1.5575,1.5634,1.5137,1.4489,1.44,1.3601,0.0,0.0,0.0,0.0,0.0,0.0,0.0,0.0,0.0,0.0,0.0,0.0,0.0,0.0,0.0,0.0,0.0,0.0,0.0,1.9541,1.9846,2.0306,2.1467,2.1627,2.167,2.1786,2.1886,2.2126,2.249,2.2659,2.2783,2.2892,2.301,2.3186,2.3407,2.3523,2.3842,2.4373,2.441,2.4664,2.5211,2.5871,2.6216,2.6216,2.6877,0.0,2.7697,2.7794,2.803,2.8426,2.9104,2.9356,2.9465,3.0525,3.1338,3.1805,3.0491,3.031,3.0814,3.0957,3.0998,3.1116,0.6363,0.6325,0.6295,0.6295,0.7191,0.7911,0.7911,0.9487,1.0798,1.1063,1.227,1.33,1.3843,1.4553,1.5109,1.5372,1.5648,1.6042,1.6571,1.6906,1.7484,1.8347,1.86,1.9226,2.0328,2.0652,2.1145,2.1793,2.2389,2.2694,2.2694,2.2694,2.2284,2.1481,2.1232,2.0629,1.9798,1.9798,1.9798,1.9773,1.9522,1.9246,1.8932,1.8325,1.7974,1.7745,1.7265,1.6863,1.6553,1.6559,1.604,1.544,1.568,1.4719,1.349,0.0,0.0,0.0,0.0,0.0,0.0,0.0,0.0,0.0,0.0,0.0,0.0,0.0,0.0,1.7437,1.8042,0.0,1.9464,2.0393,2.0828,2.1264,2.1902,2.2265,2.2446,2.2446,2.2513,2.2666,2.2963,2.3112,2.3201,2.3201,2.3363,2.3621,2.3978,2.4052,2.4395,2.5068,2.5098,2.5386,2.5994,2.6838,2.7366,2.7612,2.8415,2.8909,2.9096,2.9096,2.9255,2.9566,2.9992,3.0182,3.0316,3.1147,3.2109,3.2934,3.1831,3.1729,3.2198,3.2198,3.2198,3.2309,0.6458,0.6381,0.6334,0.6295,0.7191,0.7911,0.7911,0.9271,1.0461,1.0882,1.1885,1.2758,1.3288,1.4165,1.4785,1.4989,1.5502,1.6065,1.6605,1.7171,1.7738,1.8371,1.8841,1.9492,2.0382,2.0798,2.1386,2.2251,2.2732,2.2995,2.3108,2.2995,2.2447,2.1509,2.1408,2.0765,1.9798,1.9798,1.9798,1.9798,1.9798,1.9798,1.9723,1.9092,1.8563,1.8163,1.783,1.7511,1.7204,1.7102,1.6597,1.6097,1.6716,1.5738,1.4441,1.4855,1.43,0.0,0.0,0.0,0.0,0.0,0.0,0.0,0.0,1.6503,1.6779,1.7432,1.81,1.8753,1.9362,1.9914,2.048,2.109,2.1641,2.2033,2.2164,2.2628,2.2947,2.2947,2.2955,2.3023,2.3127,2.3268,2.3341,2.3341,2.3613,2.3992,2.4491,2.4807,2.5258,2.5905,2.6037,2.6352,2.6922,2.7924,2.8612,2.9015,3.002,3.0506,3.0506,3.0506,3.0568,3.0712,3.0818,3.0998,3.1215,3.164,3.2453,3.3364,3.3034,3.3114,3.3393,3.3393,3.3393,3.3452,0.6592,0.6483,0.6443,0.6325,0.7191,0.7911,0.7911,0.9271,1.0315,1.0389,1.1315,1.2186,1.2716,1.3324,1.4021,1.4929,1.561,1.6197,1.6731,1.7396,1.7959,1.8383,1.9009,1.9587,2.0058,2.0402,2.1098,2.2118,2.2285,2.2631,2.3095,2.2606,2.2071,2.1496,2.1006,2.0427,1.9798,1.9798,1.9798,1.9798,1.9798,1.9798,1.9736,1.9183,1.8655,1.8066,1.7043,1.6631,1.6609,1.6577,1.6782,1.7023,1.6928,1.698,1.6963,1.6508,1.6132,1.5768,1.5431,1.5567,1.5792,1.5864,1.6387,1.6924,0.0,1.7548,1.8158,1.8767,1.942,2.0074,2.0669,2.0843,2.1119,2.1772,2.1946,2.2193,2.2722,2.2971,2.3082,2.3082,2.3179,2.3253,2.3275,2.34,2.3487,2.3487,2.4052,2.4454,2.4582,2.5613,2.6473,2.7095,2.7569,2.8131,2.8791,2.9339,2.9636,2.9702,3.023,3.0506,3.0506,3.0506,3.0568,3.0733,3.1259,3.175,3.2162,3.2518,3.2957,3.3411,3.3349,3.3364,3.3393,3.3393,3.3393,3.3452,0.7548,0.7491,0.7464,0.7362,0.7717,0.8022,0.8022,0.9119,1.0055,1.0385,1.0779,1.1221,1.1769,1.2558,1.3571,1.4893,1.5247,1.5683,1.6292,1.6886,1.7493,1.8142,1.8658,1.9399,2.0385,2.0476,2.0902,2.1747,2.1816,2.1945,2.2171,2.1945,2.1543,2.1031,2.0792,2.0365,1.9798,1.9798,1.9798,1.9798,1.9798,1.9623,1.9271,1.8732,1.8204,1.7664,1.7187,1.7024,0.0,1.6613,1.6629,1.6782,1.6692,1.6758,1.6777,1.6464,1.6227,1.611,1.6156,1.6493,1.688,1.7272,1.7838,1.8419,1.8796,1.9377,1.9899,2.0146,2.0422,2.0814,2.1452,2.1569,2.1786,2.2417,2.2519,2.2751,2.3374,2.3522,2.3745,2.425,2.4372,2.4309,2.4022,2.4364,2.4804,2.5284,2.5926,2.6479,2.6916,2.7695,2.8244,2.8464,2.9014,2.9384,2.9506,2.9705,2.9941,3.0199,3.0405,3.0506,3.0506,3.0506,3.0609,3.0834,3.1413,3.1896,3.2334,3.2666,3.3052,3.3393,3.3393,3.3393,3.3393,3.3393,3.3481,3.3619,0.8268,0.823,0.8209,0.8167,0.8278,0.8366,0.8332,0.9096,0.9832,1.0225,1.0379,1.0629,1.1149,1.1971,1.3011,1.4265,1.4505,1.4928,1.5733,1.6325,1.6953,1.7694,1.8227,1.8933,1.9884,1.9883,2.0157,2.0749,2.0953,2.1131,2.1282,2.1282,2.1081,2.0679,2.0528,2.0214,1.9798,1.9648,1.9585,1.9572,1.9422,1.9133,1.8719,1.8191,1.7727,1.7385,1.72,1.7137,1.7087,1.666,1.65,1.6522,1.665,1.6747,1.6771,1.6665,1.666,1.6748,1.7036,1.7552,1.8078,1.8446,1.9084,1.9754,2.0233,2.0683,2.1046,2.1235,2.1278,2.1481,2.2135,2.2251,2.2388,2.2815,2.2888,2.3142,2.3804,2.3961,2.4385,2.5359,2.5544,2.5586,2.5622,2.5705,2.6042,2.6811,2.751,2.8094,2.8577,2.9419,2.9847,2.9813,3.0521,3.0797,3.0592,3.0397,3.0467,3.0803,3.0605,3.0506,3.0506,3.0589,3.0712,3.0952,3.1565,3.2039,3.2352,3.3012,3.3471,3.3755,3.3991,3.4063,3.4063,3.4063,3.392,3.3762,0.8399,0.8288,0.8288,0.8288,0.8725,0.9016,0.8886,0.9341,0.9709,0.9722,1.0176,1.0687,1.1149,1.168,1.2217,1.2733,1.3252,1.4026,1.5149,1.5853,1.6458,1.7011,1.7787,1.8099,1.7884,1.8136,1.847,1.8871,1.9521,2.0137,2.0717,2.0717,2.0717,2.0666,2.0075,1.9823,1.9773,1.9246,1.902,1.8983,1.8468,1.8242,1.8179,1.7614,1.7423,1.7322,1.6748,1.6525,1.6525,1.65,1.65,1.6586,1.7031,1.7441,1.7774,1.774,1.8066,1.8424,1.8424,1.9218,1.9902,1.9474,2.0147,2.0944,2.0959,2.0988,2.1177,2.183,2.196,2.2164,2.2765,2.2859,2.2873,2.2888,2.2888,2.3142,2.3804,2.4116,2.4764,2.6032,2.6401,2.7066,2.8353,2.732,2.6826,2.7525,2.8173,2.8577,2.8607,3.0163,3.1056,3.1056,3.2076,3.2624,3.2613,3.1912,3.1543,3.1565,3.0837,3.0506,3.0506,3.077,3.0892,3.0952,3.1878,3.23,3.2421,3.3912,3.4555,3.4627,3.5406,3.5731,3.5731,3.5731,3.4869,3.3835,0.9403,0.9366,0.9366,0.9366,0.9504,0.9617,0.9567,0.9716,0.9828,0.9828,0.995,0.0,0.0,0.0,0.0,0.0,1.2679,1.3294,1.4092,1.5114,1.5905,1.6446,1.725,1.7758,1.7941,1.8097,1.8268,1.8395,1.8632,1.8844,1.9032,1.9032,1.9032,1.902,1.8832,1.8744,1.8731,1.8555,1.8456,1.8444,1.8279,1.799,1.7624,1.7024,1.6584,1.6195,0.0,1.5894,1.65,1.65,1.65,1.6522,1.6693,1.7039,1.7455,1.772,1.7908,1.819,1.8893,1.9584,2.015,2.0405,2.1058,2.1656,2.1656,2.1968,2.233,2.2562,2.2606,2.2664,2.2859,2.2888,2.2888,2.2888,2.297,2.3424,2.4551,2.4802,2.5431,2.6836,2.7085,2.7845,2.9632,2.9063,2.8858,2.9475,3.0163,3.0704,3.1085,3.1987,3.2434,3.2352,3.3046,3.2961,3.1962,3.1714,3.135,3.087,3.0621,3.0506,3.0526,3.1004,3.1531,3.2068,3.302,3.3733,3.4283,3.5069,3.5388,3.5406,3.5695,3.5893,3.5991,3.5991,3.5891,3.5779,0.9905,0.9905,0.9905,0.9905,0.9905,0.0,0.0,0.0,0.0,0.0,0.0,0.0,0.0,0.0,0.0,0.0,0.0,1.2307,1.3253,1.4104,1.4888,1.5606,1.6333,1.686,1.7162,1.7387,1.7522,1.7555,1.7756,1.7833,1.7856,1.8092,1.8204,1.8204,1.8204,1.8204,1.8191,1.799,1.7903,1.7877,1.7476,1.7099,1.6732,1.6145,1.5706,0.0,1.5009,1.5428,1.6084,1.596,1.614,1.6376,1.6262,1.678,1.7537,1.8088,1.8432,1.8737,1.9256,2.0069,2.0816,2.1046,2.1722,2.2316,2.2316,2.2446,2.2577,2.2577,2.2425,2.2287,2.2287,2.2461,2.2629,2.2673,2.2922,2.358,2.4949,2.5206,2.5878,2.7565,2.7934,2.8672,3.0202,3.021,3.0487,3.1384,3.1873,3.2272,3.2668,3.3214,3.3489,3.3396,3.3665,3.3342,3.2415,3.1863,3.1255,3.0568,3.063,3.0849,3.1267,3.1691,3.241,3.3327,3.4093,3.4721,3.5255,3.5928,3.6236,3.6254,3.6622,3.6835,3.6966,3.7074,3.7345,3.759,0.9905,0.9905,0.9905,0.0,0.0,0.0,0.0,0.0,0.0,0.0,0.0,0.0,0.0,0.0,0.0,0.0,0.0,0.0,1.2601,1.2916,1.3488,1.4474,1.5089,1.55,1.5655,1.595,1.6188,1.6305,1.6828,1.709,1.7102,1.7731,1.8041,1.8041,1.8041,1.8041,1.8026,1.7521,1.7317,1.7216,1.6145,1.5691,1.5616,1.5048,1.4841,1.4815,1.479,1.5005,1.5274,1.498,1.5472,1.6151,1.5861,1.6701,1.7982,1.8865,1.9556,1.9984,1.9636,2.074,2.1903,2.1494,2.2143,2.2888,2.2859,2.2403,2.1989,2.196,2.1551,2.1205,2.1205,2.1672,2.211,2.226,2.2724,2.3545,2.4991,2.5325,2.6148,2.8111,2.889,2.9515,3.0217,3.0723,3.1609,3.3055,3.3145,3.3177,3.3235,3.379,3.4109,3.4086,3.3895,3.3756,3.3673,3.2282,3.1264,3.0692,3.0905,3.1559,3.2603,3.281,3.3528,3.4617,3.5083,3.5308,3.5449,3.6593,3.7067,3.7172,3.8123,3.851,3.8556,3.8818,3.9031,3.9112,0.0,0.0,0.0,0.0,0.0,0.0,0.0,0.0,0.0,0.0,0.0,0.0,0.0,0.0,0.0,0.0,0.0,0.0,1.1066,1.1974,1.2745,1.3306,1.4063,1.4606,1.4953,1.5037,1.5139,1.5271,1.5316,1.5391,1.5485,1.5655,1.5739,1.5739,1.5739,1.5868,1.6084,1.5963,1.6055,1.6249,1.5964,1.5589,1.5117,1.4541,1.4023,1.3572,1.3124,1.351,1.4278,1.4736,1.5556,1.6402,1.6723,1.7274,1.8003,1.9009,1.9438,1.9839,2.1011,2.1657,2.2084,2.2414,2.2704,2.2772,2.2316,2.2106,2.1859,2.1351,2.1231,2.1205,2.1205,2.1322,2.1606,2.208,2.2364,2.3143,2.5009,2.5426,2.6105,2.7624,2.8236,2.8998,3.0129,3.0648,3.1447,3.273,3.2542,3.2831,3.3809,3.4009,3.4031,3.386,3.3819,3.3276,3.2161,3.1335,3.0854,3.0712,3.1698,3.2315,3.264,3.3929,3.5013,3.5865,3.6354,3.6882,3.7458,3.7777,3.7901,3.7917,3.8342,3.8618,3.8833,3.9031,3.9283,3.9477,0.0,0.0,0.0,0.0,0.0,0.0,0.0,0.0,0.0,0.0,0.0,0.0,0.0,0.0,0.0,0.0,0.0,0.0,0.0,1.1206,1.179,1.2222,1.29,1.3401,1.3689,1.3828,1.4082,1.4456,1.415,1.4287,1.4819,1.4626,1.4676,1.4884,1.4651,1.4651,1.4811,1.4549,1.4613,0.0,0.0,1.4399,1.4135,1.3534,1.3092,1.2756,1.2421,1.2849,1.3789,1.5176,1.5896,1.6416,1.7437,1.8119,1.8657,1.9466,2.0106,2.0754,2.1722,2.2193,2.2475,2.2815,2.2888,2.2751,2.2149,2.1829,2.1457,2.0788,2.0572,2.0494,2.0494,2.0695,2.0984,2.1403,2.1934,2.2935,2.4749,2.5342,2.6165,2.7728,2.8367,2.9006,2.9929,3.0453,3.1139,3.2144,3.2606,3.3161,3.3917,3.3973,3.3937,3.3806,3.3176,3.2277,3.1135,3.1398,3.1533,3.155,3.2876,3.3794,3.4294,3.5244,3.6202,3.7163,3.7403,3.7792,3.8209,3.8209,3.8209,3.8224,3.8559,3.8773,3.8935,3.9256,3.947,3.9589,0.0,0.0,0.0,0.0,0.0,0.0,0.0,0.0,0.0,1.0456,1.0224,1.0146,1.0018,1.0006,0.0,0.0,0.0,0.0,0.0,0.0,1.0632,1.1111,1.1644,1.2011,1.2162,1.2518,1.299,1.3591,1.3119,1.335,1.4287,1.393,1.404,1.4487,1.4026,1.3882,1.3914,1.3365,1.3273,1.3405,1.2938,1.2771,1.2777,0.0,1.2061,1.2102,1.2346,1.2824,1.3649,1.5924,1.6413,1.6373,1.7991,1.8956,1.9579,2.009,2.1061,2.2033,2.2207,2.2562,2.2917,2.3004,2.2925,2.262,2.204,2.1464,2.0883,2.0231,1.983,1.9593,1.9593,1.9979,2.036,2.0616,2.1524,2.2748,2.4298,2.5205,2.6386,2.8182,2.8873,2.938,2.9895,3.0286,3.077,3.1416,3.2746,3.3541,3.3663,3.374,3.3707,3.3508,3.2226,3.1269,3.0763,3.204,3.2732,3.2874,3.4261,3.5438,3.6399,3.6576,3.7216,3.8209,3.8209,3.8209,3.8209,3.8209,3.8225,3.829,3.8732,3.8925,3.8993,3.9451,3.9589,3.9589,0.0,0.0,0.0,0.0,0.0,0.0,0.0,0.0,0.0,0.0,1.1892,1.1413,0.0,0.0,0.0,0.0,0.0,0.0,0.0,0.0,0.0,0.9724,1.0264,1.0681,1.0996,1.1442,1.1777,1.1999,1.1793,1.1843,1.2149,1.2065,1.2193,1.2502,1.2411,1.2633,1.3104,1.3008,1.2816,1.2594,1.2506,1.1864,1.0962,1.0859,0.0,0.0,1.2635,1.328,1.3753,1.6259,1.6861,1.6796,1.8101,1.9168,2.009,2.0663,2.138,2.2222,2.3281,2.3229,2.3018,2.3601,2.2933,2.2011,2.147,2.0834,2.0201,1.9652,1.9575,1.9593,1.9593,1.9678,1.9897,2.0374,2.1119,2.2211,2.3858,2.5352,2.694,2.8755,2.9393,2.9948,3.0635,3.0581,3.0555,3.0688,3.1482,3.2266,3.2868,3.3458,3.3243,3.2012,3.1408,3.1419,3.2063,3.2704,3.3408,3.4187,3.5491,3.6203,3.6434,3.7428,3.7997,3.8209,3.8209,3.8209,3.8209,3.8209,3.8289,3.8478,3.8773,3.9007,3.9183,3.9483,3.9589,3.9589,0.0,0.0,0.0,0.0,0.0,0.0,0.0,1.3769,1.4419,1.4238,1.407,1.3391,1.1863,1.1413,1.1057,0.0,0.0,0.0,0.0,0.0,0.0,0.0,0.0,0.0,0.9708,1.0238,1.0534,1.056,0.0,1.0676,1.0973,1.0689,1.0781,1.1162,1.0873,1.0907,1.1156,1.088,1.0754,1.0734,1.0734,1.0452,1.003,0.0,0.0,0.0,1.2308,1.309,1.3685,1.5574,1.6533,1.7176,1.8435,1.9613,2.0625,2.0915,2.1699,2.2591,2.3215,2.3142,2.2975,2.3302,2.2686,2.1851,2.1316,2.0739,2.0049,1.9169,1.9055,1.9039,1.8678,1.8867,1.9173,1.9471,2.0516,2.184,2.3407,2.4756,2.6392,2.8626,2.9436,3.0173,3.1166,3.1155,3.1068,3.1068,3.1399,3.1747,3.2116,3.2464,3.2232,3.132,3.1577,3.2029,3.2647,3.4066,3.4975,3.5455,3.6737,3.734,3.7357,3.7925,3.8209,3.8209,3.8209,3.8209,3.8209,3.8305,3.8417,3.8541,3.8902,3.9133,3.9224,3.9496,3.9589,3.9589,0.0,0.0,0.0,0.0,0.0,0.0,0.0,1.5249,1.6102,1.5844,1.5924,1.5336,1.3568,1.2582,1.1885,0.0,0.0,0.0,0.0,0.0,0.0,0.0,0.0,0.0,0.8816,0.0,0.0,0.9838,0.9882,0.0,0.0,0.0,0.0,0.0,0.9763,0.9538,0.9565,0.9152,0.9009,0.0,0.0,0.9109,0.9182,0.0,0.0,0.0,0.0,1.2628,1.3396,1.4819,1.5966,1.7073,1.8481,1.9788,2.0799,2.0799,2.1707,2.2751,2.2859,2.2888,2.2888,2.2888,2.2367,2.169,2.1152,2.049,1.9749,1.8802,1.8561,1.8311,1.7803,1.8252,1.8734,1.8771,2.017,2.171,2.3106,2.4253,2.5923,2.8549,2.9485,3.037,3.1489,3.1598,3.1532,3.1383,3.1366,3.1432,3.1598,3.1513,3.142,3.1294,3.2139,3.2934,3.3623,3.5456,3.6488,3.6719,3.7731,3.8209,3.8209,3.8209,3.8209,3.8209,3.8209,3.8224,3.829,3.843,3.8554,3.8676,3.9059,3.9237,3.9309,3.9508,3.9589,3.9627,0.0,0.0,0.0,0.0,0.0,0.0,0.0,1.537,1.6197,1.615,1.6686,1.6758,1.5961,1.4297,1.2825,0.0,0.0,0.0,0.0,0.0,0.0,0.0,0.0,0.0,0.0,0.0,0.0,1.0599,1.0611,0.0,0.0,0.0,0.0,0.0,0.0,0.9372,0.9595,0.9547,0.0,0.0,0.0,0.0,0.0,0.0,0.0,0.0,0.0,1.196,1.2775,1.466,1.5416,1.5901,1.777,1.922,2.0175,2.0175,2.109,2.2207,2.2765,2.2888,2.2888,2.2888,2.2076,2.1137,2.0597,1.9586,1.8743,1.8698,1.8207,1.7773,1.7697,1.8486,1.9126,1.9073,2.0519,2.2027,2.3139,2.4535,2.6409,2.9015,2.998,3.0745,3.1532,3.1598,3.1317,3.0654,3.0605,3.0886,3.1565,3.1262,3.1429,3.225,3.295,3.4162,3.5972,3.6449,3.7121,3.8032,3.8156,3.8209,3.8209,3.8209,3.8209,3.8209,3.8209,3.8305,3.8478,3.8494,3.8752,3.9142,3.9183,3.9349,3.9564,3.9589,3.9589,3.9702,0.0,0.0,0.0,0.0,0.0,0.0,1.4761,1.5979,1.6808,1.6808,1.704,1.7113,1.6837,1.5444,1.3996,1.2592,0.0,0.0,0.0,0.0,0.0,0.0,0.0,0.0,0.0,0.0,1.0398,1.0042,1.0398,0.0,0.0,0.0,0.0,0.0,0.0,0.8899,0.8973,0.8564,0.0,0.0,0.0,0.0,0.0,0.0,0.0,0.0,0.0,0.0,1.2636,1.3759,1.4745,1.5654,1.6795,1.8054,1.9207,1.9938,2.0808,2.1545,2.1699,2.175,2.1786,2.1865,2.1222,2.0572,2.0484,1.9508,1.8508,1.8175,1.7723,1.7273,1.6878,1.759,1.8375,1.8781,1.9957,2.1263,2.2571,2.383,2.5316,2.7226,2.9264,3.0621,3.0903,3.1752,3.1785,3.0588,3.0692,3.1176,3.2045,3.1914,3.2156,3.2814,3.4318,3.5581,3.652,3.7247,3.7798,3.8209,3.8209,3.8209,3.8209,3.8209,3.8209,3.8209,3.8209,3.8305,3.8525,3.8664,3.9209,3.9932,4.0104,4.0233,4.0309,4.0309,4.0021,3.9651,0.0,0.0,0.0,0.0,0.0,1.3759,1.4834,1.6097,1.6909,1.6909,1.7084,1.7127,1.6938,1.6095,1.4905,1.3257,1.269,0.0,0.0,0.0,0.0,0.0,0.0,0.0,0.0,0.0,1.0683,1.0432,1.0846,1.0846,0.0,0.0,1.0064,0.9836,0.0,0.0,0.0,0.0,0.0,0.0,0.0,0.0,0.0,0.0,0.0,0.0,0.0,0.0,0.0,0.0,0.0,1.5108,1.5904,1.695,1.8135,1.9302,2.024,2.0878,2.0788,2.0898,2.1035,2.0997,2.0626,2.0249,2.0091,1.9241,1.8337,1.7773,1.7149,1.6628,1.6375,1.6921,1.7731,1.8696,1.9696,2.0862,2.2328,2.3391,2.4547,2.602,2.8734,3.0406,3.0191,3.1406,3.1791,3.0803,3.1243,3.1898,3.2629,3.3231,3.3701,3.4034,3.5581,3.6646,3.7138,3.7852,3.8209,3.8209,3.8209,3.8209,3.8209,3.8209,3.8209,3.8209,3.8274,3.8417,3.8634,3.8892,3.9449,4.0189,4.0371,4.044,4.044,4.044,4.0096,3.9664,0.0,0.0,0.0,0.0,0.0,0.0,1.421,1.5385,1.6213,1.6213,1.6793,1.6953,1.6285,1.6213,1.5429,1.3569,1.3394,0.0,0.0,0.0,0.0,0.0,0.0,0.0,0.0,0.0,1.1783,1.2369,1.2383,1.2383,1.2369,1.1754,1.1129,1.0459,0.0,0.0,0.0,0.0,0.0,0.0,0.0,0.0,0.0,0.0,0.0,0.0,0.0,0.0,0.0,0.0,0.0,0.0,0.0,1.6114,1.6933,1.8003,1.9221,2.0211,2.0211,2.0693,2.1064,2.0543,2.0444,2.0236,1.9226,1.8602,1.8099,1.768,1.6494,1.5738,1.647,1.6815,1.7487,1.8968,2.0038,2.1201,2.2692,2.3537,2.4547,2.602,2.8734,3.0208,2.9479,3.0396,3.1095,3.1276,3.2271,3.2988,3.3281,3.5172,3.6257,3.6274,3.6556,3.7191,3.8156,3.8191,3.8209,3.8209,3.8209,3.8209,3.8209,3.8209,3.8209,3.8225,3.8417,3.8649,3.8906,3.9101,3.9367,3.9608,3.9608,3.9608,3.9608,3.9608,3.9608,3.9739,0.0,0.0,0.0,0.0,0.0,0.0,0.0,1.54,1.6213,1.6213,1.6371,1.6445,1.6227,1.5414,1.45,1.3481,1.3394,0.0,0.0,0.0,0.0,0.0,0.0,0.0,0.0,1.18,1.2209,1.2412,1.286,1.3076,1.3076,1.2885,1.2461,1.1847,1.1238,1.0362,0.0,0.0,0.0,0.0,0.0,0.0,0.7886,0.0,0.0,0.0,0.0,0.0,0.0,0.0,0.0,0.0,0.0,0.0,0.0,1.7455,1.8367,1.9181,1.9534,1.9809,2.0007,2.0158,1.9839,1.9489,1.9479,1.8608,1.7746,1.7627,1.703,1.6593,1.6831,1.7121,1.7798,1.9229,1.9742,2.0472,2.193,2.3222,2.4166,2.4646,2.7431,3.0054,3.1809,3.1695,3.1732,3.2343,3.3014,3.397,3.5279,3.6131,3.6503,3.6363,3.7249,3.7887,3.8209,3.8209,3.848,3.9024,3.9024,3.938,4.002,3.9493,3.9335,3.947,3.8979,3.8906,3.9101,3.917,3.9685,4.0422,4.0422,4.0422,4.0422,4.0422,4.0169,3.9864,0.0,0.0,0.0,0.0,0.0,0.0,0.0,1.4542,1.5183,1.5183,1.5168,1.5139,1.5139,1.4526,1.3861,1.3241,1.328,0.0,0.0,0.0,0.0,0.0,0.0,0.0,1.1896,1.2281,1.2719,1.3226,1.3897,1.41,1.3851,1.4115,1.3815,1.3037,1.2383,1.1576,0.0,0.0,0.0,0.0,0.0,0.0,0.8111,0.0,0.0,0.0,0.0,0.0,0.0,0.0,0.0,0.0,0.0,0.0,0.0,0.0,1.7622,1.8394,1.9217,1.9156,1.9036,1.9759,1.938,1.8904,1.9039,1.8381,1.7709,1.7591,1.7144,1.6856,1.7134,1.7333,1.7938,1.9369,1.9829,2.0539,2.1996,2.3238,2.4547,2.6064,2.8105,3.037,3.2819,3.2361,3.2262,3.321,3.42,3.5418,3.6932,3.7735,3.8077,3.7953,3.8415,3.879,3.9061,3.9061,3.9315,3.9822,3.9925,4.0116,4.0429,4.0031,3.9771,3.9608,3.9201,3.9073,0.0,3.9309,3.9744,4.0347,4.0347,4.0347,4.0359,4.0421,4.0223,3.9946,0.0,0.0,0.0,0.0,0.0,0.0,0.0,1.3128,1.3498,1.3498,1.3472,1.3433,1.3433,1.3632,1.3497,1.2881,0.0,0.0,0.0,0.0,0.0,0.0,0.0,0.0,1.2639,1.2775,1.3465,1.4747,1.5461,1.549,1.4895,1.552,1.5229,1.4151,1.3419,1.2774,0.0,0.0,0.0,0.0,0.8016,0.8126,0.0,0.0,0.0,0.0,0.0,0.0,0.0,0.0,0.0,0.0,0.0,0.0,0.0,0.0,0.0,0.0,0.0,1.8718,1.8298,1.939,1.9105,1.8469,1.8124,1.7998,0.0,1.7559,1.6967,1.6702,1.7437,1.7524,1.7959,1.9449,2.029,2.1265,2.2723,2.3668,2.563,2.9467,3.0226,3.1066,3.2678,3.2474,3.2755,3.4015,3.5731,3.7209,3.8301,3.9731,4.0528,4.0583,3.9912,3.9876,4.0492,4.0492,4.0546,4.0618,4.0878,4.061,3.993,4.0124,3.9782,3.9042,3.918,3.9224,3.9256,3.9514,3.9589,3.9589,3.9589,3.9602,3.9631,3.9826,3.9924,3.9989,0.0,0.0,0.0,0.0,0.0,0.0,0.0,0.0,0.0,0.0,1.3704,1.3777,1.3777,1.3529,1.3282,0.0,0.0,0.0,0.0,0.0,0.0,0.0,0.0,0.0,1.3206,1.458,1.5526,1.6051,1.729,1.7817,1.7661,1.7817,1.7208,1.5957,1.523,1.3386,0.0,0.0,0.0,0.0,0.8227,0.8253,0.0,0.0,0.0,0.0,1.239,1.2848,0.0,0.0,0.0,0.0,0.0,0.0,0.0,0.0,1.5924,1.6531,1.7668,0.0,1.8575,1.912,1.8696,1.8186,0.0,1.7992,1.76,1.7524,1.7354,1.7453,1.8141,1.8257,1.872,2.0191,2.1066,2.1936,2.3063,2.4982,2.7266,2.9884,3.0485,3.1357,3.303,3.2913,3.3654,3.5873,3.6596,3.7814,3.9858,4.0293,4.0782,4.1397,4.1252,4.0945,4.0492,4.0492,4.0907,4.1717,4.1785,4.1928,4.2124,4.1516,4.0919,4.0317,3.9751,3.9514,3.9514,3.9564,3.9589,3.9589,3.9589,3.9691,3.9845,3.9881,4.01,4.0364,0.0,0.0,0.0,0.0,0.0,0.0,0.0,0.0,0.0,0.0,0.0,1.3054,1.3157,1.3045,0.0,0.0,0.0,0.0,0.0,0.0,0.0,0.0,0.0,1.3608,1.4399,1.5709,1.6772,1.7555,1.863,1.8994,1.8707,1.9009,1.8468,1.7234,1.5972,1.3789,0.0,0.0,0.0,0.839,0.839,0.0,0.0,0.0,0.0,0.0,1.2166,1.2733,0.0,1.3066,1.303,1.3032,0.0,0.0,0.0,0.0,1.5424,1.6261,1.6839,1.7422,1.8017,1.8654,1.8525,1.8284,1.8467,1.8472,1.8468,1.8468,1.8493,1.8605,1.8936,1.931,1.9804,2.0569,2.1699,2.311,2.4878,2.6834,2.8733,3.0543,3.1603,3.2598,3.3668,3.4311,3.5421,3.7244,3.8141,3.9315,4.0963,4.1415,4.1796,4.2248,4.2248,4.2049,4.1615,4.1724,4.2066,4.2644,4.2531,4.2403,4.2288,4.1549,4.0868,4.0228,3.9796,3.9589,3.9589,3.9589,3.9589,3.9602,3.9703,3.9811,3.9924,4.011,4.0313,4.0504,0.0,0.0,0.0,0.0,0.0,0.0,0.0,0.0,0.0,0.0,0.0,0.0,0.0,0.0,0.0,0.0,0.0,0.0,0.0,0.0,0.0,0.0,1.3467,1.4503,1.5859,1.6773,1.7857,1.91,1.9776,1.9808,1.9276,1.984,1.9402,1.8072,1.6275,1.4189,1.194,1.1083,0.9949,0.8697,0.8577,0.0,0.0,0.0,0.0,0.0,0.0,0.0,0.0,1.3093,1.3093,1.3093,1.3093,0.0,0.0,0.0,0.0,0.0,1.6221,1.6645,1.7309,1.826,1.8505,1.8538,1.8654,1.9138,1.9598,1.9598,1.9651,1.9711,1.983,2.0359,2.0841,2.1057,2.2658,2.4713,2.7139,2.873,3.0092,3.136,3.2888,3.4066,3.4609,3.5884,3.721,3.8464,3.9767,4.089,4.1831,4.252,4.2901,4.2901,4.2939,4.2957,4.2957,4.3178,4.3283,4.3242,4.3021,4.2396,4.147,4.1006,4.0347,3.9589,3.9589,3.9589,3.9589,3.9589,3.9589,3.9614,3.9834,3.9924,3.9989,4.0356,4.0512,4.0576,0.0,0.0,0.0,0.0,0.0,0.0,0.0,0.0,0.0,0.0,0.0,0.0,0.0,0.0,0.0,0.0,0.0,0.0,0.0,0.0,0.0,1.39,1.4962,1.6061,1.7181,1.8874,1.9964,2.0407,2.1134,2.1447,2.1347,2.1447,2.0393,1.8376,1.6883,1.499,1.2802,1.1455,1.038,0.9554,0.8918,0.0,0.0,0.0,0.0,0.0,0.0,0.0,0.0,1.3093,1.3093,1.3093,1.3093,0.0,0.0,0.0,0.0,0.0,1.5469,1.6436,1.7604,1.8311,1.8505,1.8671,1.9287,1.9518,1.9628,1.9678,1.9651,1.989,2.0797,2.0816,2.1171,2.258,2.484,2.6881,2.8137,2.9972,3.1481,3.2374,3.341,3.4646,3.6173,3.6566,3.7661,3.9967,4.0365,4.1162,4.2629,4.2828,4.2901,4.2901,4.3105,4.3232,4.3232,4.3285,4.3197,4.2949,4.2914,4.2202,4.0915,4.0841,4.0347,3.9589,3.9589,3.9589,3.9589,3.9589,3.9589,3.9614,3.9834,4.0,4.0186,4.0406,4.0598,4.0759,0.0,0.0,0.0,0.0,0.0,0.0,0.0,0.0,0.0,0.0,0.0,0.0,0.0,0.0,0.0,0.0,0.0,0.0,0.0,0.0,1.3615,1.4735,1.6055,1.7157,1.8021,1.9668,2.077,2.1298,2.163,2.1812,2.1796,2.1398,2.0456,1.9022,1.7205,1.5398,1.3606,1.2124,1.084,0.9762,0.0,0.0,0.0,0.0,0.0,0.0,0.0,0.0,0.0,0.0,1.3093,1.3093,1.3093,0.0,0.0,0.0,0.0,0.0,1.579,1.6939,1.822,1.8919,1.9088,1.93,2.0042,2.0505,2.0801,2.0829,2.0844,2.1161,2.2155,2.2245,2.2893,2.5107,2.6335,2.7763,2.9908,3.122,3.2374,3.3582,3.4779,3.603,3.7387,3.8271,3.9426,4.1035,4.156,4.2122,4.2846,4.2901,4.2957,4.3105,4.3232,4.3442,4.3744,4.3303,4.3026,4.2902,4.2571,4.1855,4.0797,4.0347,3.9946,3.9589,3.9589,3.9589,3.9589,3.9589,3.9656,3.9789,3.9979,4.0186,4.04,4.0583,4.0713,4.0802,0.0,0.0,0.0,0.0,0.0,0.0,0.0,0.0,0.0,0.0,0.0,0.0,0.0,0.0,0.0,0.0,0.0,0.0,0.0,1.3093,1.3748,1.5236,1.6719,1.7888,1.8737,2.0191,2.1232,2.1812,2.1812,2.1812,2.1796,2.1216,2.0472,1.9502,1.7536,1.5845,1.436,1.2704,1.1346,1.0293,0.0,0.0,0.0,0.0,0.0,0.0,0.0,0.0,0.0,0.0,0.0,0.0,0.0,0.0,0.0,1.3987,1.4718,1.5502,1.642,1.7605,1.8797,1.9674,1.9876,2.0045,2.0801,2.1398,2.186,2.2115,2.2193,2.2545,2.3551,2.4064,2.5067,2.7319,2.7829,2.8891,3.1564,3.2425,3.3359,3.4898,3.6251,3.7496,3.8627,3.9985,4.1107,4.1922,4.2538,4.2901,4.2901,4.2957,4.3105,4.3285,4.3425,4.3584,4.383,4.3278,4.2883,4.2677,4.2037,4.1291,4.0497,3.989,3.9589,3.9589,3.9589,3.9589,3.9602,3.9662,3.9754,3.9916,4.0167,4.0397,4.0598,4.0739,4.0796,4.0792,0.0,0.0,0.0,0.0,0.0,0.0,0.0,0.0,0.0,0.0,0.0,0.0,0.0,0.0,0.0,0.0,0.0,0.0,0.0,1.3093,1.3748,1.5236,1.6719,1.812,1.9485,2.0969,2.1763,2.1812,2.1812,2.1812,2.1812,2.1763,2.0969,1.9535,1.8071,1.6603,1.5077,1.2928,1.1942,1.1727,1.0343,0.0,0.0,0.0,0.0,0.0,0.0,0.0,0.0,0.0,0.0,0.0,0.0,0.0,1.3242,1.3987,1.4718,1.5607,1.7034,1.8124,1.9172,2.0414,2.0663,2.0818,2.1547,2.1763,2.2084,2.3078,2.323,2.3585,2.4829,2.6189,2.7407,2.8355,2.979,3.123,3.2462,3.3504,3.4754,3.635,3.7458,3.8681,4.0184,4.1107,4.194,4.2737,4.2883,4.2901,4.2901,4.3142,4.3285,4.3303,4.3775,4.3691,4.2995,4.3175,4.2873,4.2053,4.1254,4.0459,3.9683,3.9627,3.9589,3.9589,3.9589,3.9589,3.9614,3.9811,3.9892,3.9937,4.0326,4.0602,4.0776,4.0784,4.0794,4.0807,0.0,0.0,0.0,0.0,0.0,0.0,0.0,0.0,0.0,0.0,0.0,0.0,0.0,0.0,0.0,0.0,0.0,0.0,0.0,1.3093,1.3748,1.5236,1.6719,1.8153,1.9568,2.1052,2.1812,2.1812,2.1812,2.1812,2.1812,2.1812,2.1002,1.9551,1.8555,1.7072,1.522,1.3913,1.2828,1.1959,1.1396,1.0624,0.0,0.0,0.0,0.0,0.0,0.0,0.0,0.0,1.1682,1.2107,1.234,1.2729,1.3334,1.4582,1.5532,1.6466,1.7819,1.9298,2.0667,2.1573,2.2204,2.2615,2.256,2.2672,2.3038,2.3855,2.4499,2.544,2.7136,2.8406,2.9482,3.0366,3.1409,3.2463,3.3538,3.4902,3.6059,3.679,3.8121,3.9351,4.0401,4.1234,4.2012,4.2847,4.2901,4.274,4.2431,4.2501,4.2451,4.2245,4.2426,4.2491,4.2338,4.1927,4.1586,4.1248,4.0947,4.0384,3.9589,3.9589,3.9589,3.9589,3.9589,3.9668,3.98,3.987,4.005,4.0342,4.1179,4.155,4.1662,4.2218,4.241,4.243,0.0,0.0,0.0,0.0,0.0,0.0,0.0,0.0,0.0,0.0,0.0,0.0,0.0,0.0,0.0,0.0,0.0,0.0,1.3093,1.3093,1.3748,1.5236,1.6486,1.7922,1.9551,2.082,2.1564,2.1812,2.1812,2.1812,2.1812,2.1812,2.1002,1.9568,1.8849,1.7477,1.5622,1.4639,1.3661,1.2748,1.2256,1.1338,0.0,0.0,0.0,0.0,0.0,0.0,0.0,0.0,1.1049,1.1524,1.1907,1.2373,1.3138,1.4963,1.6079,1.705,1.8716,2.0342,2.176,2.2613,2.3381,2.3991,2.4237,2.4298,2.4567,2.5571,2.6638,2.7849,2.938,3.0238,3.112,3.2277,3.2886,3.3648,3.4878,3.6059,3.6936,3.7323,3.8589,3.9604,4.0111,4.0854,4.1578,4.2232,4.2268,4.214,4.1832,4.1914,4.1846,4.1622,4.1675,4.1688,4.161,4.1079,4.0666,4.0422,4.0422,4.0134,3.9589,3.9589,3.9589,3.9589,3.9589,3.9859,4.0274,4.0349,4.0796,4.1489,4.2208,4.2507,4.2574,4.3178,4.3408,4.3396,0.0,0.0,0.0,0.0,0.0,0.0,0.0,0.0,1.3093,1.3093,1.3093,0.0,0.0,0.0,0.0,0.0,0.0,0.0,1.3093,1.3093,1.3748,1.5236,1.6005,1.7392,1.9535,2.0323,2.1066,2.1812,2.1812,2.1812,2.1812,2.1812,2.1002,1.9581,1.8913,1.7831,1.6414,1.4934,1.4392,1.4368,1.2839,1.1809,1.1127,0.0,0.0,0.0,0.0,0.0,0.0,0.0,1.0104,1.0333,1.1666,1.2096,1.2572,1.5004,1.6186,1.726,1.9728,2.1143,2.2192,2.3419,2.3958,2.4746,2.6694,2.6659,2.6723,2.8465,2.9783,3.0796,3.1395,3.1631,3.2257,3.3845,3.4241,3.4877,3.6476,3.6879,3.7303,3.8118,3.8898,3.9387,3.9404,4.0075,4.0616,4.0874,4.0891,4.0989,4.1172,4.1434,4.1585,4.158,4.1827,4.1591,4.0797,4.0797,4.0384,3.9608,3.9608,3.9608,3.9589,3.9608,3.9608,3.9608,3.9608,4.0179,4.1122,4.1341,4.2197,4.341,4.341,4.3408,4.341,4.3422,4.3427,4.3416,0.0,0.0,0.0,0.0,0.0,0.0,0.0,0.0,1.3093,1.3093,1.3093,0.0,0.0,0.0,0.0,0.0,0.0,0.0,1.3093,1.3093,1.3783,1.5294,1.6076,1.7241,1.8931,2.0194,2.118,2.1869,2.1911,2.194,2.194,2.194,2.1142,1.974,1.9727,1.8636,1.6717,1.5809,1.5155,1.4616,1.3555,1.2345,1.1179,0.0,0.0,0.0,0.0,0.0,0.0,0.0,0.0,0.0,1.1267,1.1899,1.2793,1.5263,1.6961,1.8396,2.0076,2.1698,2.3222,2.462,2.5508,2.6639,2.8953,2.8375,2.7997,3.0351,3.1234,3.1799,3.2494,3.3113,3.373,3.4362,3.5321,3.6204,3.6806,3.7451,3.7937,3.8172,3.8898,3.9473,3.9588,4.0333,4.0873,4.1082,4.1114,4.0966,4.0651,4.0719,4.057,4.0207,4.0265,4.0209,3.9965,3.9965,4.0115,4.044,4.044,4.0153,3.9627,4.019,4.044,4.0491,4.1234,4.1813,4.2256,4.2648,4.3047,4.3468,4.4067,4.4347,4.4452,4.5029,4.5223,4.5229,0.0,0.0,0.0,0.0,0.0,0.0,1.3138,1.3147,1.3147,1.3147,1.3137,1.3145,0.0,0.0,0.0,1.2688,1.2927,1.2977,1.2679,1.2961,1.3678,1.4864,1.5375,1.6447,1.8224,1.945,2.0408,2.1117,2.1714,2.2013,2.1996,2.1779,2.1063,1.9959,1.9908,1.8966,1.736,1.6397,1.5723,1.5219,1.411,1.2748,1.1399,0.0,0.0,0.0,0.0,0.0,0.0,0.0,0.0,0.0,1.1074,1.1679,1.2571,1.5327,1.7266,1.8843,2.035,2.2241,2.4049,2.5178,2.636,2.789,3.0395,3.0419,3.0424,3.2277,3.2855,3.3244,3.3923,3.4528,3.504,3.5478,3.6264,3.697,3.7413,3.7901,3.8209,3.8209,3.8692,3.9081,3.9209,3.9761,4.0178,4.0385,4.04,4.0313,4.0083,4.0077,3.9937,3.9608,3.9908,4.0078,4.0078,4.0384,4.0797,4.1285,4.1285,4.1022,4.0572,4.106,4.133,4.1492,4.2645,4.3216,4.3385,4.4109,4.4406,4.4494,4.5007,4.5243,4.5336,4.5827,4.6002,4.6002,0.0,0.0,0.0,0.0,0.0,0.0,1.3201,1.321,1.321,1.321,1.3208,1.3197,0.0,0.0,0.0,1.2058,1.2621,1.2721,1.205,1.2756,1.3498,1.4181,1.4355,1.5362,1.7361,1.8281,1.9058,1.9736,2.12,2.1941,2.1953,2.1454,2.0875,2.0233,1.9679,1.9,1.8172,1.6824,1.6212,1.6019,1.4596,1.3083,1.171,1.171,0.0,0.0,0.0,0.0,0.0,0.0,0.0,0.0,1.1082,1.1546,1.2157,1.5324,1.7285,1.8831,2.0558,2.2734,2.465,2.5262,2.6792,2.8808,3.1367,3.2611,3.3409,3.4017,3.4459,3.4886,3.5429,3.5742,3.6164,3.6886,3.7067,3.7357,3.81,3.8225,3.8242,3.8242,3.8417,3.8538,3.8554,3.877,3.9007,3.921,3.9237,3.9335,3.9596,3.9664,3.9702,3.9702,4.0478,4.091,4.091,4.1629,4.2042,4.2117,4.2117,4.2155,4.223,4.2162,4.2335,4.2753,4.3914,4.4424,4.4515,4.5499,4.5949,4.5997,4.6011,4.6002,4.6002,4.6002,4.6002,4.6002,0.0,0.0,0.0,0.0,0.0,0.0,1.3201,1.321,1.321,1.321,1.3208,1.3197,1.3197,1.2614,0.0,1.2008,1.219,1.2257,1.2098,1.2774,1.3553,1.4318,1.498,1.5549,1.6011,1.7499,1.8321,1.8492,2.0429,2.1477,2.1683,2.1511,2.1155,2.0649,2.0065,1.9367,1.8624,1.7798,1.7071,1.6409,1.5409,1.3665,1.171,1.171,1.0741,0.0,0.0,0.0,0.0,0.0,0.0,0.0,1.1331,1.1804,1.2448,1.5652,1.764,1.9155,2.0803,2.2818,2.4676,2.5385,2.7822,3.0683,3.318,3.4022,3.4328,3.4444,3.5051,3.5587,3.5718,3.6293,3.6796,3.6977,3.7538,3.8009,3.8191,3.8338,3.8449,3.8449,3.8667,3.8892,3.9027,3.9101,3.9242,3.9483,3.9496,3.954,3.9608,4.0209,4.0534,4.0534,4.1323,4.1742,4.1742,4.1911,4.2342,4.3013,4.3013,4.3351,4.3951,4.3473,4.3816,4.4843,4.5117,4.5356,4.5569,4.5809,4.5949,4.5997,4.6011,4.6002,4.6002,4.6002,4.6002,4.6002,0.0,0.0,0.0,0.0,0.0,0.0,0.0,0.0,1.2899,1.3253,1.3277,1.3243,1.3243,1.2531,0.0,0.0,1.1556,1.1564,1.1578,1.2288,1.3084,1.3885,1.4318,1.4745,1.5159,1.6024,1.6887,1.7713,1.9165,2.0315,2.1161,2.0877,2.0598,2.0336,1.978,1.9282,1.8807,1.812,1.7361,1.6479,1.5706,1.4179,1.2369,1.2369,1.1632,1.0558,1.0163,0.0,0.0,0.0,0.0,0.0,0.0,0.0,1.2366,1.4785,1.6843,1.8663,2.0222,2.2264,2.4532,2.6792,2.9044,3.1332,3.3746,3.4751,3.5279,3.5675,3.6073,3.649,3.6888,3.7286,3.7575,3.7575,3.7937,3.8209,3.8209,3.8368,3.851,3.851,3.8829,3.9073,3.9183,3.9322,3.9445,3.9577,3.9965,4.0171,4.0171,4.0947,4.1366,4.1366,4.2187,4.2618,4.2618,4.2999,4.3412,4.3876,4.3876,4.4212,4.4826,4.4513,4.4782,4.5518,4.5602,4.5745,4.5906,4.5905,4.5935,4.6,4.5997,4.6002,4.6002,4.6002,4.6002,4.6007,0.0,0.0,0.0,0.0,0.0,0.0,0.0,0.0,0.0,1.3328,1.3337,1.3295,1.3295,1.2471,1.1669,0.0,0.0,0.0,1.0836,1.1718,1.2617,1.3404,1.3454,1.3819,1.4537,1.4709,1.5505,1.6949,1.7864,1.8971,2.0213,1.9997,1.9919,1.995,1.9353,1.9035,1.8894,1.8338,1.7581,1.6684,1.6128,1.4951,1.3503,1.3359,1.2803,1.2006,1.1196,1.0821,1.0598,0.9933,0.0,0.0,0.0,0.0,1.2032,1.3712,1.5763,1.7857,1.9495,2.1829,2.467,2.8259,2.9976,3.1384,3.3628,3.5002,3.6021,3.6832,3.7104,3.7412,3.8082,3.8209,3.8209,3.8209,3.8209,3.8225,3.8241,3.8433,3.8569,3.8615,3.8998,3.9283,3.9283,3.9601,3.9815,3.9815,4.0553,4.1004,4.1004,4.1779,4.2211,4.2211,4.3069,4.3501,4.3501,4.4177,4.4501,4.4501,4.4537,4.4808,4.5244,4.5244,4.5362,4.5577,4.5757,4.5854,4.5917,4.5917,4.5953,4.6002,4.6002,4.6002,4.6002,4.6002,4.6012,4.6022,0.0,0.0,0.0,0.0,0.0,0.0,0.0,0.0,0.0,0.0,1.3337,1.3295,1.3295,1.2001,1.1138,1.1097,1.0494,1.0124,1.0123,0.0,0.0,1.3531,1.3688,1.3806,1.3926,1.477,1.5322,1.5577,1.7188,1.8072,1.8299,1.9387,2.0024,2.0201,1.9441,1.9087,1.9078,1.8978,1.8471,1.7703,1.762,1.6624,1.509,1.4408,1.363,1.2839,1.2024,1.1287,1.0671,1.058,1.0078,0.0,0.0,0.0,1.1305,1.3618,1.5422,1.7159,1.9443,2.2715,2.5968,2.8004,2.9669,3.1286,3.3099,3.47,3.6021,3.6832,3.7557,3.8082,3.8191,3.8209,3.8209,3.8209,3.8209,3.8257,3.8449,3.8664,3.8921,3.9087,3.9362,3.9552,3.9552,4.0203,4.0647,4.0647,4.1385,4.1835,4.1835,4.2656,4.3125,4.3125,4.3933,4.4332,4.4332,4.4444,4.4501,4.4501,4.4681,4.5011,4.5454,4.5454,4.5602,4.5847,4.586,4.5912,4.5991,4.5991,4.5989,4.6002,4.6002,4.6002,4.6002,4.6002,4.6036,4.6087,0.0,0.0,0.0,0.0,0.0,0.0,0.0,0.0,0.0,0.0,0.0,1.3363,1.3363,1.2384,1.1567,1.1149,1.0427,1.003,1.0111,1.1198,1.2016,1.2408,1.2477,1.2558,1.2626,1.3492,1.4215,1.4745,1.5962,1.7022,1.7918,1.8506,1.9083,1.9612,1.9258,1.9095,1.9095,1.9095,1.8642,1.79,1.79,1.7211,1.6135,1.578,1.5436,1.5001,1.4216,1.3395,1.2658,1.2205,1.1209,1.0227,1.058,0.0,0.0,0.0,1.4045,1.5994,1.9317,2.2389,2.5187,2.7307,2.9047,3.0789,3.2926,3.4627,3.6021,3.6832,3.7647,3.8209,3.8209,3.8209,3.8241,3.8354,3.8368,3.8449,3.868,3.8917,3.9087,3.9183,3.9445,3.9777,4.0228,4.0591,4.0985,4.1441,4.2248,4.2731,4.2731,4.352,4.397,4.397,4.4313,4.4501,4.4501,4.4501,4.4565,4.4681,4.4903,4.5184,4.5518,4.5661,4.5786,4.59,4.59,4.5938,4.5997,4.5997,4.5994,4.6002,4.6002,4.6002,4.6002,4.6002,4.6046,4.6105,0.0,0.0,0.0,0.0,0.0,0.0,0.0,0.0,0.0,0.0,0.0,1.3494,1.3494,0.0,0.0,0.0,1.0655,1.0149,1.0221,1.0793,1.1248,1.1532,1.1575,1.1647,1.174,1.2538,1.3292,1.3992,1.4999,1.611,1.7302,1.77,1.8226,1.8805,1.9005,1.9095,1.9095,1.9095,1.8751,1.8208,1.8208,1.7972,1.7599,1.74,1.7436,1.7501,1.6689,1.5766,1.4795,1.3974,1.264,1.1233,1.0839,1.0694,0.0,0.0,0.0,1.535,1.8761,2.155,2.3994,2.5986,2.7997,2.997,3.1781,3.3755,3.5367,3.5962,3.7049,3.7901,3.7901,3.8064,3.8274,3.8462,3.851,3.8618,3.8935,3.912,3.9224,3.9277,3.9658,4.0153,4.0741,4.1191,4.168,4.2286,4.3125,4.3595,4.3595,4.4177,4.4501,4.4501,4.4501,4.4501,4.4501,4.4546,4.4681,4.4896,4.5161,4.5381,4.5602,4.5819,4.5906,4.5925,4.5925,4.5956,4.6008,4.6008,4.6,4.6002,4.6002,4.6002,4.6002,4.6013,4.606,4.6137,0.0,0.0,0.0,0.0,0.0,0.0,0.0,0.0,0.0,0.0,0.0,1.3783,1.3783,1.3113,1.2653,1.2618,1.1247,1.0352,1.0301,1.0515,1.0952,1.1659,1.1806,0.0,1.1892,1.2683,1.3117,1.3159,1.4728,1.5542,1.565,1.7193,1.7918,1.799,1.8769,1.9095,1.9095,1.9095,1.9077,1.9041,1.9041,1.9476,2.0029,1.9276,1.9458,2.001,1.9196,1.79,1.6457,1.5657,1.4318,1.2713,1.1178,1.0694,1.0712,0.0,0.0,0.0,1.7555,2.0336,2.2952,2.3777,2.6337,2.8708,2.8817,3.126,3.3538,3.3574,3.5437,3.7067,3.7067,3.7701,3.8274,3.8462,3.851,3.8661,3.9129,3.9197,3.9277,3.9552,4.0253,4.0741,4.0797,4.2243,4.3182,4.3219,4.3989,4.4444,4.4444,4.4482,4.4501,4.4501,4.4501,4.4501,4.4501,4.4688,4.4927,4.5191,4.5381,4.5618,4.5886,4.5893,4.5932,4.5991,4.5991,4.6008,4.5997,4.5997,4.5997,4.6002,4.6002,4.6002,4.6012,4.6064,4.6137,4.6206,0.0,0.0,0.0,0.0,0.0,0.0,0.0,0.0,0.0,0.0,0.0,0.0,0.0,1.331,1.2967,1.2486,1.1573,1.0837,1.0324,1.0495,1.0517,1.0305,1.0335,1.0363,1.0363,1.1155,1.1812,1.2332,1.3413,1.4499,1.5506,1.6092,1.6642,1.7182,1.8516,1.9095,1.9095,1.9095,1.9403,1.9866,1.9866,2.0355,2.1043,2.0753,2.0825,2.1025,2.0735,1.9938,1.8896,1.8073,1.64,1.4445,1.3364,1.1957,1.0694,1.0694,1.2604,1.497,1.6056,1.8326,2.0825,2.2636,2.469,2.6699,2.8256,3.0681,3.2777,3.3284,3.5313,3.7043,3.7166,3.7854,3.8481,3.8728,3.8873,3.9073,3.9419,3.9458,3.9689,4.0309,4.0609,4.1229,4.2299,4.2938,4.3501,4.4026,4.4332,4.4501,4.4501,4.4501,4.4501,4.4501,4.4501,4.456,4.4688,4.477,4.5,4.539,4.5463,4.5634,4.59,4.5899,4.5937,4.5997,4.5994,4.5991,4.6002,4.6002,4.6002,4.6002,4.6002,4.6022,4.606,4.6091,4.6145,4.6208,0.0,0.0,0.0,0.0,0.0,0.0,0.0,0.0,1.4349,1.4432,0.0,0.0,0.0,0.0,1.4096,1.3065,1.2356,1.1529,1.0508,1.056,1.0284,0.9536,0.9504,0.9504,0.9504,1.0286,1.1088,1.1903,1.2713,1.3793,1.509,1.5361,1.5784,1.636,1.77,1.8443,1.8715,1.8987,1.9558,2.0318,2.059,2.1188,2.192,2.2184,2.2437,2.2709,2.298,2.2383,2.1351,2.0572,1.8707,1.6526,1.5447,1.3455,1.1396,1.0857,1.2224,1.401,1.4553,1.666,1.915,2.1025,2.3053,2.5027,2.6609,2.9052,3.1161,3.1774,3.4018,3.5948,3.6168,3.7353,3.8486,3.8923,3.9101,3.9277,3.9564,3.9589,3.9908,4.0703,4.1041,4.1755,4.3163,4.3538,4.3933,4.4463,4.4501,4.4501,4.4501,4.4501,4.4501,4.4501,4.456,4.4668,4.4788,4.4966,4.5195,4.5535,4.5602,4.573,4.5932,4.5937,4.596,4.5994,4.5991,4.6002,4.6002,4.6002,4.6002,4.6002,4.6002,4.6046,4.6102,4.6128,4.6167,4.6191,0.0,0.0,0.0,0.0,0.0,0.0,0.0,0.0,1.621,1.6469,0.0,0.0,0.0,0.0,0.0,1.445,1.3606,1.2472,1.0865,1.0743,1.0376,0.9576,0.9504,0.9504,0.9504,1.0268,1.1051,1.1861,1.2676,1.3485,1.4282,1.509,1.5451,1.5506,1.6287,1.7092,1.7918,1.8751,1.9576,2.0409,2.1206,2.2029,2.2843,2.3596,2.4375,2.5172,2.5986,2.5244,2.3795,2.3025,2.1188,1.8914,1.7237,1.5073,1.2857,1.1233,1.1885,1.3093,0.0,0.0,0.0,1.8868,2.1406,2.3726,2.3798,2.627,2.862,2.8833,3.1406,3.3693,3.391,3.6127,3.8186,3.8968,3.9154,3.9309,3.9564,3.9589,3.9908,4.0741,4.1516,4.2342,4.3238,4.4045,4.4501,4.4501,4.4501,4.4501,4.4501,4.4501,4.4501,4.4501,4.4707,4.48,4.48,4.5275,4.5543,4.5613,4.5812,4.5938,4.5997,4.5997,4.5994,4.6002,4.6002,4.6002,4.6002,4.6002,4.6002,4.6002,4.6002,4.605,4.6112,4.6189,4.6203,4.621,0.0,0.0,0.0,0.0,0.0,1.5675,1.5675,1.6174,1.6558,0.0,0.0,0.0,1.6903,1.6578,1.5924,1.4907,1.4742,1.4002,1.2401,1.1844,1.1214,1.0395,0.9802,0.9504,0.9504,0.9725,1.0227,1.1033,1.1849,1.264,1.3449,1.4264,1.4626,1.4644,1.4861,1.5726,1.7128,1.8516,1.9902,2.1242,2.2029,2.3169,2.4447,2.5244,2.6041,2.6844,2.764,2.7278,2.6204,2.4827,2.318,2.1115,1.7762,1.5834,1.4517,1.2912,1.2781,1.3163,1.3163,0.0,0.0,0.0,0.0,0.0,2.3759,2.5754,2.7402,2.8051,3.0269,3.217,3.2368,3.4475,3.6329,3.6749,3.8309,3.9527,3.9577,3.9589,4.0115,4.1498,4.1854,4.2567,4.4045,4.4369,4.4501,4.4501,4.4501,4.4501,4.4501,4.4501,4.4501,4.4501,4.4707,4.4884,4.5085,4.5409,4.5653,4.5819,4.5867,4.5937,4.5997,4.5997,4.5994,4.6002,4.6002,4.6002,4.6002,4.6002,4.6002,4.6007,4.6044,4.6115,4.6171,4.6183,4.623,4.6273,0.0,0.0,1.6062,1.6062,1.6727,1.7269,1.7269,1.7924,1.8439,0.0,0.0,0.0,1.8698,1.8225,1.7601,1.6788,1.6509,1.5559,1.3602,1.3118,1.2387,1.1251,1.0426,1.0005,1.0005,0.9671,0.9892,1.0694,1.116,1.1812,1.2622,1.3413,1.3793,1.3811,1.4155,1.5193,1.6802,1.8425,2.0029,2.1604,2.2709,2.3904,2.5117,2.6276,2.7206,2.8057,2.9192,2.9083,2.8214,2.6916,2.5009,2.2582,1.9284,1.7669,1.6642,1.4764,1.4226,1.4108,1.3464,1.4524,1.6125,1.7455,0.0,0.0,2.2399,2.4301,2.5836,2.6365,2.8429,3.0187,3.0348,3.2406,3.4121,3.428,3.6115,3.788,3.8913,3.9063,3.9671,4.1291,4.1498,4.2004,4.3337,4.3801,4.4008,4.4008,4.4313,4.4501,4.4501,4.4501,4.4537,4.4621,4.4843,4.5107,4.5371,4.5613,4.5812,4.5944,4.5943,4.5966,4.5994,4.5994,4.6005,4.6002,4.6002,4.6002,4.6002,4.6002,4.6002,4.6012,4.6068,4.6142,4.6207,4.6209,4.6245,4.63,0.0,0.0,1.6841,1.6936,1.8363,1.9556,1.9633,2.0348,2.0941,0.0,2.0829,2.0755,2.112,2.0722,2.0101,1.9313,1.8497,1.7084,1.4843,1.4445,1.3666,1.2224,1.1214,1.0694,1.0694,0.9911,0.9856,1.0562,1.0657,1.1069,1.1794,1.2676,1.3111,1.3147,1.3938,1.5193,1.6802,1.8425,2.0029,2.1631,2.318,2.4339,2.5316,2.6916,2.8147,2.9215,3.0822,3.0889,3.0038,2.8962,2.6572,2.3689,2.1516,2.0161,1.8958,1.6853,1.611,1.5655,1.4122,1.4748,1.6033,1.6813,1.8224,0.0,2.0446,2.2418,2.4109,2.4248,2.616,2.7877,2.7984,3.0039,3.1721,3.1721,3.3045,3.5007,3.7662,3.8037,3.8694,4.0459,4.0666,4.1022,4.1911,4.2712,4.3163,4.3163,4.3914,4.4407,4.4501,4.451,4.4621,4.4819,4.5096,4.5371,4.5605,4.5819,4.5938,4.5997,4.5997,4.5994,4.6002,4.6002,4.6002,4.6002,4.6002,4.6002,4.6002,4.6012,4.6017,4.6027,4.6084,4.615,4.6192,4.621,4.6244,4.63,1.6495,1.7067,1.7777,1.8381,1.8772,1.9234,1.9823,2.0783,2.1472,2.1491,2.1749,2.1804,2.1472,2.134,2.0934,2.0137,1.9331,1.8389,1.7265,1.5375,1.4155,1.3847,1.183,1.0694,1.0694,0.9911,0.9576,0.9725,1.0376,1.0784,1.0966,1.2423,1.3111,1.3147,1.3938,1.5193,1.6802,1.8425,2.0029,2.1631,2.318,2.4664,2.6138,2.7749,2.9668,3.1709,3.3321,3.3375,3.227,2.9523,2.7314,2.5459,2.393,2.2337,2.0761,1.9344,1.8397,1.7467,1.5976,1.588,1.6235,1.6406,1.7705,0.0,1.9958,2.1494,2.2776,2.279,2.4268,2.554,2.5588,2.7648,2.9368,2.9368,3.0139,3.2061,3.5852,3.6366,3.723,3.9552,3.9833,4.0403,4.1854,4.2155,4.2248,4.2248,4.305,4.382,4.4463,4.4655,4.4782,4.4891,4.5304,4.5552,4.5595,4.5861,4.5986,4.5997,4.6,4.5997,4.6002,4.6002,4.6002,4.6002,4.6002,4.6002,4.6007,4.6067,4.6076,4.6084,4.6153,4.6194,4.621,4.6261,4.6287,4.63,1.7253,1.795,1.8626,1.8861,1.9726,2.0492,2.0758,2.1688,2.2486,2.2883,2.3473,2.3683,2.3241,2.2999,2.2571,2.1901,2.1149,2.0236,1.9177,1.7584,1.6515,1.6117,1.3781,1.2495,1.2495,1.0915,1.01,1.01,1.0096,1.0096,1.0137,1.1753,1.2495,1.2568,1.4173,1.5791,1.74,1.9023,2.0843,2.2745,2.3922,2.5353,2.7025,2.9029,3.1057,3.3013,3.4609,3.441,3.3085,3.1075,2.9129,2.728,2.5734,2.4127,2.2594,2.1284,2.0264,1.9236,1.7825,1.7496,1.7445,1.7007,1.7873,0.0,0.0,2.0663,2.1849,2.1801,2.2798,2.3795,2.4218,2.5669,2.6957,2.7381,2.8067,2.9423,3.194,3.3283,3.494,3.7455,3.7749,3.8225,3.9445,3.9934,4.0503,4.1329,4.2581,4.3482,4.3876,4.4461,4.4884,4.5047,4.5418,4.5658,4.5789,4.5937,4.6003,4.6,4.5991,4.6002,4.6002,4.6002,4.6002,4.6002,4.6002,4.6002,4.6007,4.6068,4.6122,4.6153,4.6195,4.6209,4.6211,4.6273,4.63,4.63,1.78,1.858,1.919,1.9127,2.0579,2.1753,2.1738,2.2598,2.3551,2.4468,2.5178,2.5544,2.5397,2.4943,2.447,2.4124,2.3257,2.2221,2.0976,2.0056,1.9132,1.8171,1.5827,1.4463,1.43,1.2079,1.0857,1.0694,1.0042,0.9653,0.954,1.115,1.197,1.2224,1.4499,1.6472,1.8244,1.9847,2.1803,2.3904,2.519,2.6475,2.7894,3.0314,3.2325,3.4081,3.5677,3.5439,3.4154,3.306,3.1323,2.9373,2.7855,2.6284,2.4727,2.3334,2.2288,2.1231,1.9713,1.9188,1.8845,1.7987,1.8338,1.8885,0.0,0.0,0.0,2.098,2.1508,2.2223,2.3101,2.3917,2.458,2.496,2.5788,2.6647,2.74,2.9365,3.1835,3.4881,3.5187,3.557,3.6532,3.7373,3.8601,4.0422,4.1837,4.2835,4.3344,4.4208,4.4865,4.5266,4.5549,4.5773,4.6003,4.6003,4.5994,4.6002,4.6002,4.6002,4.6002,4.6002,4.6002,4.6002,4.6002,4.6002,4.6012,4.6084,4.615,4.6206,4.6209,4.6211,4.6229,4.6272,4.63,4.63,1.78,1.8409,1.9132,1.9761,2.0654,2.1491,2.2115,2.3062,2.4172,2.5448,2.601,2.65,2.7058,2.6534,2.6272,2.6577,2.521,2.3969,2.3102,2.19,2.0554,1.9041,1.6653,1.5035,1.4318,1.264,1.1414,1.0694,1.0617,1.0191,0.954,1.115,1.2278,1.3038,1.4746,1.678,1.9077,2.068,2.231,2.4049,2.7007,2.831,2.8726,3.1148,3.3502,3.5731,3.7341,3.781,3.7321,3.5148,3.3451,3.214,3.1474,2.9698,2.7573,2.6279,2.5164,2.387,2.1694,2.0532,1.9764,1.8947,1.8818,1.8894,1.889,0.0,1.9363,2.0074,0.0,2.0628,2.1496,0.0,0.0,2.1023,2.2062,2.3074,2.3201,2.4649,2.7475,3.2231,3.2645,3.3168,3.4812,3.5697,3.7155,3.9552,3.9981,4.1161,4.3521,4.4046,4.4685,4.56,4.5854,4.5966,4.5997,4.5997,4.5997,4.6002,4.6002,4.6002,4.6002,4.6002,4.6002,4.6002,4.6002,4.6002,4.6017,4.6137,4.6199,4.6206,4.6209,4.6246,4.6287,4.6302,4.63,4.63,1.7884,1.8853,1.9833,1.9972,2.1156,2.2112,2.2274,2.3907,2.5562,2.6687,2.7804,2.8702,2.9248,2.8446,2.8094,2.8703,2.731,2.6114,2.5463,2.4057,2.2812,2.1876,1.9105,1.7439,1.7095,1.4596,1.3129,1.2785,1.1843,1.1228,1.0915,1.2055,1.3038,1.3883,1.5972,1.7964,1.992,2.1966,2.4013,2.6131,2.8884,3.055,3.155,3.3031,3.5385,3.8029,3.9134,3.926,3.868,3.7209,3.5941,3.4635,3.2822,3.1502,3.0328,2.8774,2.7691,2.6614,2.4801,2.3695,2.2625,2.079,2.0356,2.0217,1.9716,1.9601,1.9563,1.9429,0.0,0.0,0.0,0.0,0.0,0.0,2.0636,2.1067,2.1098,2.2062,2.4628,2.9655,3.0182,3.078,3.2411,3.3809,3.5463,3.7473,3.9085,4.092,4.3011,4.3844,4.4696,4.5665,4.5912,4.5989,4.6002,4.6002,4.6002,4.6002,4.6002,4.6002,4.6002,4.6002,4.6002,4.6002,4.6002,4.6002,4.6012,4.6102,4.616,4.6206,4.6209,4.6245,4.63,4.63,4.63,4.63,1.851,1.9421,2.0228,2.0022,2.1437,2.2692,2.2991,2.4972,2.6914,2.8205,2.9714,3.093,3.1687,3.0723,3.0299,3.1057,2.9798,2.8664,2.7927,2.667,2.541,2.4183,2.1532,1.9884,1.944,1.6715,1.506,1.4626,1.3232,1.2332,1.1916,1.2948,1.398,1.5049,1.7247,1.9367,2.1405,2.3542,2.5842,2.8268,3.0695,3.2886,3.4806,3.5602,3.7631,4.0111,4.0637,4.0492,3.9912,3.9132,3.8104,3.6823,3.4902,3.3857,3.2978,3.1279,3.0269,2.9319,2.7547,2.6314,2.5038,2.2955,2.2076,2.1555,2.0938,2.0609,2.0289,1.9701,1.9395,0.0,0.0,0.0,1.8932,0.0,0.0,1.9288,1.9113,1.9945,2.2182,2.6503,2.763,2.8696,3.0269,3.18,3.3513,3.5427,3.7823,4.0068,4.2023,4.3339,4.4462,4.5414,4.5807,4.6,4.6002,4.6002,4.6002,4.6002,4.6002,4.6002,4.6002,4.6002,4.6002,4.6002,4.6002,4.6002,4.6007,4.6068,4.6139,4.6206,4.6209,4.6245,4.63,4.63,4.63,4.63,1.9934,1.998,2.0014,2.0002,2.1282,2.2898,2.4649,2.6256,2.8026,3.0131,3.1526,3.2868,3.4318,3.3459,3.3086,3.39,3.2871,3.1641,3.0457,2.9899,2.8232,2.5099,2.3423,2.1848,2.03,1.8624,1.7022,1.5451,1.4626,1.3431,1.1934,1.3521,1.5103,1.6693,1.8334,2.078,2.3777,2.5425,2.7526,2.9929,3.2343,3.5222,3.8136,3.8934,4.0238,4.1632,4.165,4.165,4.1524,4.0852,3.9688,3.8574,3.8809,3.7498,3.5557,3.3951,3.3042,3.2,2.9421,2.7578,2.616,2.5287,2.381,2.2543,2.2524,2.1918,2.1349,2.133,2.0652,2.0055,2.0055,0.0,0.0,0.0,0.0,0.0,0.0,1.7934,1.9922,2.2486,2.4975,2.7122,2.8804,2.9729,3.1266,3.3773,3.5686,3.7877,4.0526,4.2351,4.3792,4.4801,4.5589,4.6002,4.6002,4.6002,4.6002,4.6002,4.6002,4.6002,4.6002,4.6002,4.6002,4.6002,4.6002,4.6002,4.6007,4.6068,4.6139,4.6206,4.6209,4.6245,4.63,4.63,4.63,4.63,2.0331,2.0543,2.0788,2.0788,2.1634,2.2915,2.4715,2.6506,2.8322,3.0263,3.2246,3.4038,3.5561,3.5531,3.5782,3.6654,3.5888,3.4852,3.3687,3.2959,3.1495,2.9083,2.6439,2.452,2.3433,2.0825,1.896,1.7874,1.6541,1.5338,1.43,1.4836,1.5954,1.7563,1.9186,2.1351,2.394,2.6095,2.8395,3.0944,3.4966,3.8156,4.0546,4.0818,4.1252,4.1759,4.2303,4.2484,4.2375,4.1615,4.1344,4.1129,4.0093,3.9283,3.8484,3.7315,3.6131,3.4773,3.2783,3.1023,2.944,2.8001,2.6364,2.4975,2.444,2.3657,2.2734,2.1636,2.1173,2.0618,1.9506,0.0,0.0,0.0,0.0,0.0,0.0,0.0,1.7404,0.0,0.0,0.0,0.0,0.0,3.0552,3.3102,3.5019,3.7441,4.0629,4.1934,4.3252,4.4753,4.5574,4.6002,4.6002,4.6002,4.6002,4.6002,4.6002,4.6002,4.6002,4.6002,4.6002,4.6002,4.6002,4.6002,4.6007,4.6068,4.6139,4.6206,4.6209,4.6245,4.63,4.63,4.63,4.6298,2.1139,2.1334,2.1512,2.1373,2.2405,2.391,2.5838,2.7758,2.973,3.1864,3.3808,3.5587,3.7134,3.7463,3.79,3.8631,3.8245,3.7586,3.6752,3.5943,3.4533,3.2365,2.9753,2.7562,2.5896,2.3306,2.1169,1.953,1.8189,1.6849,1.5506,1.6092,1.7059,1.8407,2.001,2.2184,2.4791,2.6916,2.9391,3.227,3.7069,4.0111,4.1723,4.2012,4.214,4.2194,4.2701,4.2901,4.2829,4.2303,4.2315,4.2384,4.1292,4.0884,4.0631,3.9761,3.8686,3.7402,3.5741,3.3867,3.2038,3.0617,2.8994,2.7536,2.6695,2.6078,2.5116,2.3165,2.2745,2.2229,2.0523,1.9991,0.0,0.0,0.0,0.0,0.0,1.5347,0.0,0.0,0.0,0.0,0.0,0.0,0.0,3.1526,3.3691,0.0,3.9384,4.1228,4.2855,4.4287,4.5414,4.6002,4.6002,4.6002,4.6002,4.6002,4.6002,4.6002,4.6002,4.6002,4.6002,4.6002,4.6002,4.6002,4.6007,4.6068,4.6139,4.6206,4.6209,4.6245,4.63,4.63,4.6298,4.6292,2.2324,2.233,2.2244,2.1978,2.368,2.5805,2.7864,2.9859,3.2071,3.4712,3.6081,3.7388,3.8947,3.9182,3.9429,3.9852,3.9948,3.9854,3.9533,3.8807,3.7305,3.495,3.3266,3.0894,2.7713,2.5986,2.3596,2.0463,1.9594,1.7964,1.5705,1.7204,1.8353,1.924,2.0807,2.3252,2.6312,2.7966,3.0609,3.4099,3.87,4.1035,4.1831,4.2611,4.2901,4.2901,4.2919,4.292,4.2939,4.2939,4.2684,4.241,4.2548,4.2402,4.204,4.134,4.0718,3.9869,3.8233,3.6067,3.4044,3.3177,3.1694,3.0211,2.9294,2.9096,2.8383,2.5892,2.5382,2.4841,2.3059,2.2159,0.0,0.0,0.0,0.0,0.0,0.0,0.0,0.0,0.0,0.0,0.0,0.0,0.0,0.0,0.0,0.0,0.0,4.0266,4.25,4.3466,4.5084,4.5963,4.6002,4.6002,4.6002,4.6002,4.6002,4.6002,4.6002,4.6002,4.6002,4.6002,4.6002,4.6002,4.6017,4.6072,4.6145,4.6209,4.6209,4.6245,4.63,4.63,4.6294,4.6282,2.2929,2.3485,2.4524,2.6211,2.6629,2.6985,2.7771,2.9989,3.2286,3.438,3.5899,3.7371,3.8856,3.9529,4.0175,4.0993,4.1075,4.1108,4.1107,4.0908,4.0021,3.8228,3.6055,3.3647,3.1021,2.8219,2.5516,2.289,2.0952,1.9377,1.8163,1.799,1.8642,2.0047,2.1061,2.3252,2.6337,2.8558,3.2723,3.8065,4.0438,4.1886,4.2611,4.2829,4.2901,4.292,4.3142,4.332,4.3494,4.3494,4.3564,4.3664,4.38,4.3547,4.3199,4.3107,4.2631,4.1876,4.0797,3.9146,3.7502,3.6623,3.5152,3.3528,3.205,3.1725,3.1018,2.8478,2.7943,2.7262,2.4956,2.4415,2.3659,0.0,0.0,0.0,0.0,0.0,0.0,1.7482,0.0,0.0,0.0,0.0,0.0,0.0,0.0,0.0,3.6925,3.9159,4.1315,4.3428,4.4559,4.5394,4.5982,4.6002,4.6002,4.6002,4.6002,4.6002,4.6002,4.6002,4.6002,4.6002,4.6002,4.6027,4.6076,4.6145,4.6171,4.619,4.6244,4.6288,4.63,4.6292,4.6262,4.6211,2.3802,2.4824,2.6377,2.8229,2.9353,3.0072,3.0421,3.2318,3.4376,3.6259,3.7597,3.8808,3.9973,4.0643,4.123,4.176,4.1994,4.2143,4.2211,4.223,4.1687,4.0456,3.8754,3.6401,3.3321,3.0785,2.7797,2.432,2.2654,2.088,1.9095,1.9005,1.9431,2.0336,2.1151,2.3451,2.6971,3.0803,3.5113,3.9532,4.1071,4.2194,0.0,4.2901,4.305,4.3267,4.3425,4.3494,4.3545,4.3662,4.3921,4.4192,4.4279,4.4237,4.4199,4.4327,4.3833,4.3134,4.2708,4.1361,3.9986,3.947,3.84,3.6978,3.5259,3.4877,3.4055,3.1171,3.0553,2.9796,2.7281,2.6916,2.6203,2.3755,0.0,0.0,0.0,0.0,0.0,0.0,0.0,0.0,0.0,0.0,0.0,0.0,0.0,0.0,0.0,3.7974,4.0305,4.285,4.4151,4.5181,4.5982,4.6002,4.6002,4.6002,4.6002,4.6002,4.6002,4.6002,4.6002,4.6002,4.6002,4.6041,4.6105,4.6165,4.6201,4.6211,4.6274,4.6298,4.6292,4.6262,4.6233,4.6206,2.5327,2.6578,2.8171,2.9589,3.2001,3.3935,3.4552,3.5652,3.7063,3.8849,3.9896,4.071,4.1373,4.2051,4.2418,4.2397,4.2861,4.3152,4.3208,4.3227,4.2864,4.2049,4.1234,3.9008,3.5168,3.3393,3.0242,2.5624,2.4502,2.2491,1.9729,2.0228,2.0518,2.0644,2.1459,2.4121,2.8382,3.3686,3.7359,3.9677,4.1216,4.2285,4.2901,4.2901,4.3214,4.3646,4.3679,4.3595,4.3494,4.3728,4.4026,4.4336,4.4351,4.4602,4.4919,4.5068,4.4581,4.4024,4.4138,4.3023,4.182,4.182,4.1227,4.0196,3.8572,3.819,3.7273,3.4017,3.3349,3.2546,2.9884,2.9274,2.8493,2.6424,2.3897,0.0,0.0,0.0,0.0,0.0,0.0,0.0,0.0,0.0,0.0,0.0,0.0,0.0,0.0,0.0,3.9397,4.1961,4.3724,4.5025,4.5827,4.5944,4.6002,4.6002,4.6002,4.6002,4.6002,4.6002,4.6002,4.6002,4.6002,4.6046,4.6118,4.6189,4.6202,4.6229,4.6273,4.6294,4.6284,4.6211,4.6206,4.6203,2.9026,2.9568,3.0878,3.3851,3.5013,3.623,3.8213,3.7737,3.7572,3.886,4.0076,4.0912,4.1213,4.2653,4.3573,4.3527,4.3991,4.4474,4.4854,4.4874,4.4512,4.3715,4.29,4.0926,3.7647,3.5349,3.2469,2.8969,2.6149,2.4176,2.2944,2.1821,2.1631,2.23,2.3053,2.6349,3.16,3.5238,3.8138,4.0438,4.2049,4.2755,4.2901,4.2901,4.3105,4.3408,4.3612,4.3936,4.4292,4.4335,4.4411,4.4496,4.46,4.4757,4.4919,4.5068,4.5066,4.5046,4.5067,4.4341,4.3548,4.3548,4.2966,4.2087,4.1074,4.0826,4.0062,3.7387,3.6814,3.584,3.2623,3.0381,2.8945,2.8685,2.6494,2.4821,0.0,0.0,0.0,0.0,0.0,2.3906,0.0,0.0,0.0,0.0,0.0,0.0,0.0,0.0,3.8499,4.1043,4.283,4.4132,4.5006,4.5672,4.6002,4.6002,4.6002,4.6002,4.6002,4.6002,4.6002,4.6002,4.6002,4.6064,4.6173,4.62,4.6228,4.629,4.6303,4.6294,4.6284,4.6211,4.6201,4.6206,3.1913,3.2826,3.4091,3.6098,3.7023,3.7976,3.9376,3.9375,3.9672,4.0978,4.188,4.2653,4.3258,4.4103,4.4596,4.4575,4.4806,4.505,4.5289,4.5291,4.5128,4.4729,4.3951,4.2411,4.0075,3.7685,3.4896,3.1673,2.886,2.665,2.5027,2.3868,2.3524,2.4013,2.6439,2.9735,3.3665,3.687,3.9351,4.1252,4.2864,4.3516,4.357,4.3987,4.4399,4.476,4.4898,4.5015,4.5059,4.4632,4.4556,4.4632,4.4757,4.4846,4.4931,4.5148,4.5192,4.5203,4.5286,4.4991,4.4666,4.4666,4.438,4.3864,4.3004,4.2794,4.2202,4.01,3.9336,3.8167,3.5352,3.2793,3.1167,3.1255,2.9163,2.7504,0.0,0.0,0.0,0.0,0.0,0.0,0.0,0.0,0.0,0.0,0.0,0.0,0.0,3.4361,3.6945,3.9509,4.1704,4.3452,4.4792,4.5594,4.6002,4.6002,4.6002,4.6002,4.6002,4.6002,4.6002,4.6002,4.6036,4.6109,4.6206,4.6248,4.6265,4.63,4.63,4.6271,4.6236,4.6209,4.6192,4.6209,3.4565,3.5754,3.6909,3.7884,3.8688,3.9514,4.035,4.0948,4.175,4.2898,4.3632,4.4369,4.5147,4.5588,4.5757,4.5637,4.5737,4.5816,4.5816,4.5816,4.5725,4.5562,4.4947,4.3788,4.1976,3.9985,3.7359,3.4172,3.1759,2.9065,2.6192,2.5914,2.595,2.6421,2.9934,3.285,3.5313,3.8355,4.0437,4.1831,4.3444,4.4095,4.4186,4.4983,4.5643,4.6112,4.6112,4.6039,4.5885,4.5233,4.4866,4.4685,4.4827,4.487,4.4943,4.5181,4.5203,4.517,4.5275,4.5307,4.5307,4.5307,4.5307,4.5125,4.4437,4.4274,4.3864,4.2335,4.1275,3.9996,3.8009,3.5745,3.411,3.3945,3.182,3.0164,3.0126,0.0,0.0,0.0,0.0,0.0,0.0,0.0,0.0,0.0,0.0,0.0,3.0865,3.339,3.5974,3.86,4.114,4.3219,4.4773,4.5594,4.6002,4.6002,4.6002,4.6002,4.6002,4.6002,4.6002,4.6007,4.6064,4.6145,4.6217,4.6262,4.63,4.63,4.63,4.6269,4.6206,4.6206,4.6209,4.6199,3.7321,3.7732,3.8482,4.0245,4.0384,4.0896,4.277,4.2655,4.25,4.2857,4.4063,4.4918,4.5035,4.6484,4.7277,4.6784,4.7191,4.7482,4.7482,4.7482,4.7156,4.6432,4.6323,4.5182,4.2847,4.1868,3.984,3.6669,3.4244,3.0713,2.624,2.7622,2.9047,3.0527,3.2361,3.4516,3.6941,3.9369,4.089,4.1831,4.3444,4.4095,4.4186,4.4983,4.5643,4.6112,4.6112,4.6429,4.688,4.6805,4.5754,4.4537,4.4685,4.4796,4.4919,4.508,4.5192,4.5286,4.5297,4.5307,4.5307,4.5307,4.5307,4.5288,4.5201,4.5182,4.4914,4.3949,4.2584,4.1324,4.0571,3.8883,3.7421,3.6739,3.4449,3.2759,3.2749,0.0,3.0146,0.0,0.0,0.0,0.0,2.6789,0.0,0.0,0.0,0.0,0.0,3.428,3.6882,3.9509,4.2053,4.384,4.4792,4.5594,4.6002,4.6002,4.6002,4.6002,4.6002,4.6002,4.6002,4.6007,4.6064,4.6145,4.6211,4.6276,4.63,4.63,4.63,4.6269,4.6206,4.6206,4.6209,4.6199,3.9403,4.0232,4.1133,4.2376,4.2561,4.3019,4.4385,4.4585,4.5092,4.6449,4.6185,4.6407,4.7903,4.8716,4.8866,4.8163,4.8316,4.8224,4.7735,4.7717,4.7572,4.7246,4.6757,4.5816,4.4367,4.3081,4.1325,3.9097,3.6707,3.4335,3.1948,3.1622,3.2343,3.3936,3.5059,3.687,3.9188,4.0619,4.1958,4.3244,4.4367,4.511,4.5655,4.6617,4.7239,4.7608,4.7783,4.7804,4.7725,4.7725,4.7014,4.6045,4.5572,4.5501,4.5545,4.5201,4.5136,4.5192,4.5286,4.5307,4.5307,4.5307,4.5307,4.5307,4.5307,4.5307,4.5201,4.4857,4.3999,4.3119,4.2428,4.1352,4.0452,4.0126,3.8374,3.6852,3.6241,3.5232,0.0,3.2633,0.0,0.0,0.0,0.0,0.0,0.0,0.0,0.0,0.0,3.3643,3.6226,3.8848,4.1393,4.3394,4.4792,4.5594,4.6002,4.6002,4.6002,4.6002,4.6002,4.6002,4.605,4.6122,4.6147,4.62,4.6258,4.6287,4.63,4.63,4.63,4.6269,4.6206,4.6206,4.6209,4.6199,4.107,4.223,4.3276,4.3944,4.455,4.5225,4.616,4.6531,4.7357,4.9261,4.8358,4.8188,4.9915,5.0112,4.9854,4.9311,4.9257,4.9021,4.8442,4.8188,4.804,4.804,4.7283,4.6486,4.5671,4.4313,4.281,4.1216,3.9061,3.7142,3.5406,3.4045,3.4643,3.6888,3.7667,3.9206,4.127,4.2067,4.3208,4.4512,4.5327,4.6039,4.6721,4.7705,4.8364,4.8749,4.8923,4.8819,4.857,4.857,4.8269,4.7697,4.6622,4.6344,4.6297,4.5634,4.5453,4.543,4.5322,4.5307,4.5307,4.5307,4.5307,4.5307,4.5307,4.5307,4.5309,4.5409,4.5086,4.4568,4.3865,4.3319,4.2874,4.2568,4.1339,4.0189,3.948,3.87,3.7664,3.6207,3.5294,3.4361,3.3231,3.2322,0.0,0.0,0.0,0.0,0.0,3.4148,3.658,3.9436,4.151,4.3413,4.5142,4.573,4.6002,4.6002,4.6002,4.6002,4.6002,4.6013,4.6091,4.6204,4.6194,4.623,4.63,4.63,4.63,4.63,4.63,4.6425,4.6577,4.6577,4.6735,4.6956,4.236,4.3452,4.4509,4.49,4.6082,4.729,4.8318,4.8355,4.8815,5.0274,5.0339,5.0223,5.0118,5.0112,5.0112,5.0093,5.0093,5.0093,5.0075,4.9329,4.8873,4.8873,4.8094,4.7319,4.6504,4.5689,4.4476,4.2883,4.1252,3.8447,3.4606,3.3791,3.553,3.9387,4.013,4.1361,4.2919,4.3715,4.453,4.5363,4.616,4.6652,4.698,4.7785,4.8458,4.8991,4.8991,4.9211,4.949,4.949,4.9471,4.9201,4.7674,4.7188,4.7073,4.6472,4.6297,4.6142,4.5475,4.5307,4.5307,4.5307,4.5307,4.5307,4.5307,4.5307,4.538,4.5651,4.568,4.5505,4.4896,4.4773,4.4481,4.3622,4.2733,4.2175,4.2155,4.1393,4.0558,3.9737,3.8868,3.7664,3.5911,3.4964,0.0,0.0,0.0,0.0,3.5698,3.6576,3.8635,4.2058,4.3025,4.4287,4.5963,4.6002,4.6002,4.6002,4.6002,4.6002,4.6002,4.606,4.6137,4.6204,4.6208,4.6246,4.63,4.63,4.63,4.63,4.63,4.6793,4.7474,4.7474,4.8038,4.8768,4.4418,4.5029,4.573,4.6605,4.7631,4.8567,4.9384,5.0,5.0706,5.1723,5.1831,5.1788,5.1733,5.1737,5.1502,5.0981,5.0927,5.0691,5.0148,4.9854,4.9709,4.9709,4.9456,4.8695,4.7355,4.7083,4.616,4.453,4.3462,4.1759,3.9424,3.8609,3.9514,4.1814,4.2031,4.3027,4.4568,4.5054,4.5714,4.6426,4.6929,4.75,4.8108,4.8549,4.8818,4.9044,4.9262,4.9412,4.9509,4.9509,4.9509,4.9396,4.8931,4.8422,4.7862,4.7127,4.6619,4.6252,4.6051,4.5652,4.5307,4.5307,4.5307,4.5307,4.5307,4.537,4.5485,4.5648,4.5769,4.5796,4.565,4.5613,4.553,4.5239,4.4972,4.4603,4.4054,4.3724,4.3238,4.2379,4.151,4.0543,3.9392,3.8538,0.0,0.0,0.0,0.0,3.6731,3.8091,3.9897,4.2136,4.3627,4.4909,4.5982,4.6002,4.6002,4.6002,4.6002,4.6307,4.6915,4.7564,4.7875,4.7902,4.7947,4.7983,4.7998,4.7998,4.7998,4.7998,4.8008,4.815,4.8388,4.8398,4.8555,4.8806,4.5529,4.6372,4.7169,4.7885,4.9083,5.0154,5.0699,5.1239,5.1827,5.2426,5.2498,5.2498,5.2498,5.2498,5.2299,5.1792,5.1737,5.1538,5.1013,5.0728,5.0565,5.0565,5.0275,4.9641,4.8623,4.8025,4.721,4.6196,4.5091,4.4041,4.3026,4.2556,4.2846,4.3788,4.3788,4.453,4.5764,4.6079,4.6651,4.7384,4.7721,4.8215,4.8767,4.894,4.9077,4.923,4.9427,4.9509,4.9509,4.9509,4.9509,4.9509,4.9509,4.9175,4.8662,4.7872,4.7386,4.7049,4.6844,4.6233,4.5701,4.5744,4.5507,4.5307,4.5307,4.539,4.554,4.5676,4.5805,4.5912,4.5986,4.6002,4.6002,4.6002,4.6002,4.5827,4.5317,4.5239,4.5045,4.4501,4.3685,4.2966,4.2422,4.1607,4.0907,4.0364,0.0,4.065,3.9567,4.0228,4.1412,4.3127,4.4229,4.5181,4.5982,4.6002,4.6157,4.6482,4.6812,4.7266,4.785,4.8428,4.8706,4.874,4.8788,4.8797,4.8798,4.8798,4.8798,4.8796,4.8803,4.9006,4.9285,4.9289,4.9484,4.9742,4.6205,4.7657,4.8866,4.8866,5.0391,5.1715,5.1963,5.2054,5.2174,5.241,5.2475,5.2475,5.2475,5.2498,5.2498,5.2498,5.2498,5.2498,5.2498,5.1792,5.1375,5.1375,5.0651,5.0257,5.0184,4.8713,4.7935,4.788,4.6305,4.5544,4.5544,4.549,4.5472,4.5472,4.5472,4.5888,4.6597,4.6902,4.7457,4.8173,4.8532,4.8802,4.9025,4.9025,4.923,4.9509,4.9509,4.9509,4.9509,4.9509,4.9509,4.9509,4.9509,4.9509,4.937,4.8691,4.8433,4.8296,4.7795,4.7039,4.6427,4.6563,4.5984,4.5373,4.5373,4.5457,4.5558,4.5665,4.5805,4.5938,4.5986,4.6002,4.6002,4.6002,4.6002,4.6002,4.6002,4.6002,4.6002,4.6002,4.5336,4.4851,4.4812,4.4074,4.3563,4.3505,4.3563,4.3583,4.3583,4.2869,4.3185,4.4753,4.4851,4.5278,4.6079,4.6099,4.6521,4.7395,4.8269,4.8716,4.8787,4.8855,4.8913,4.8965,4.899,4.8974,4.8974,4.8974,4.8974,4.8972,4.8979,4.9474,5.0182,5.0183,5.0653,5.13,5.0461,5.0532,5.0523,5.0523,5.0791,5.1035,5.1096,5.1495,5.1815,5.1889,5.2078,5.2198,5.2198,5.2382,5.2498,5.2498,5.2498,5.2498,5.2498,5.2317,5.2208,5.2208,5.2027,5.1629,5.1013,5.0633,5.0144,4.9528,4.855,4.8061,4.8022,4.7428,4.7138,4.7138,4.7138,4.7246,4.7451,4.7993,4.8311,4.8532,4.9062,4.9329,4.9377,4.9377,4.9427,4.9509,4.9509,4.9509,4.9509,4.9509,4.9509,4.9509,4.9509,4.9509,4.9471,4.9292,4.8836,4.8381,4.8369,4.7833,4.7315,4.746,4.6863,4.6214,4.6214,4.5918,4.5668,4.57,4.5848,4.5975,4.5997,4.6002,4.6002,4.6002,4.6002,4.6002,4.6002,4.6002,4.6002,4.6002,4.5827,4.5472,4.4851,4.4617,4.4229,4.3544,4.4112,4.4481,4.4481,4.487,4.5011,4.4812,4.5394,4.6133,4.6987,4.6987,4.7434,4.8308,4.9182,4.9607,4.9644,5.0358,5.0697,5.0708,5.0754,5.0789,5.0789,5.0789,5.0785,5.0777,5.0781,5.0884,5.1025,5.1023,5.1148,5.13,5.1503,5.1748,5.1888,5.1758,5.1931,5.2065,5.2065,5.2352,5.2606,5.2735,5.2566,5.2476,5.2599,5.2438,5.2382,5.2498,5.2498,5.2498,5.2498,5.2498,5.2498,5.2498,5.2498,5.2299,5.1846,5.1484,5.0904,5.0112,4.9655,4.9456,4.9438,4.9003,4.8804,4.8804,4.8804,4.8804,4.8829,4.9428,4.9473,4.9215,4.9807,4.9828,4.9509,4.9509,4.9509,4.9509,4.9509,4.9509,4.9509,4.9509,4.9509,4.9509,4.9509,4.9509,4.9509,4.9509,4.9258,4.9023,4.9157,4.8682,4.8095,4.7861,4.7444,4.7081,4.7081,4.6666,4.6259,4.6259,4.6119,4.6002,4.6002,4.6002,4.6002,4.6002,4.6002,4.6002,4.6002,4.6002,4.6002,4.6002,4.6002,4.5827,4.5394,4.5356,4.5142,4.4676,4.5084,4.5356,4.5356,4.5769,4.5808,4.5356,4.6152,4.6812,4.7293,4.8094,4.8735,4.9202,5.0076,5.0505,5.0556,5.1079,5.1315,5.1348,5.1372,5.1394,5.1394,5.1394,5.1408,5.1396,5.14,5.1366,5.1291,5.1308,5.13,5.13,5.1651,5.2438,5.3038,5.2822,5.3197,5.3545,5.3545,5.3572,5.3681,5.3922,5.3413,5.3138,5.3383,5.2774,5.2426,5.2656,5.257,5.2498,5.2498,5.2498,5.2498,5.2498,5.2498,5.2498,5.2498,5.1828,5.114,5.0474,5.0474,5.0474,5.0474,5.0474,5.0401,5.0293,5.0293,5.022,5.0156,5.0732,5.0599,5.0028,5.063,5.0391,4.9678,4.9678,4.9602,4.9509,4.9509,4.9509,4.9509,4.9509,4.9509,4.9509,4.9509,4.9509,4.949,4.9521,4.9623,4.9764,4.9871,4.9467,4.8881,4.8319,4.8094,4.8009,4.8009,4.753,4.71,4.71,4.6616,4.6196,4.6196,4.6099,4.6002,4.6002,4.6002,4.6002,4.6002,4.6002,4.6002,4.6002,4.6002,4.606,4.6177,4.6196,4.6254,4.639,4.639,4.639,4.639,4.639,4.639,4.639,4.6987,4.7434,4.7686,4.9279,5.0101,5.012,5.0853,5.123,5.1286,5.1293,5.1344,5.1403,5.1396,5.1394,5.1394,5.1394,5.1408,5.1394,5.14,5.1362,5.1307,5.1308,5.13,5.13,5.4626,5.4402,5.4063,5.4034,5.3594,5.3257,5.3257,5.3435,5.3599,5.3654,5.3991,5.4245,5.4295,5.3791,5.3465,5.3512,5.2878,5.2498,5.2498,5.2498,5.2498,5.2498,5.2498,5.2498,5.2498,5.2371,5.2245,5.2118,5.2118,5.2118,5.2118,5.2118,5.1756,5.1104,5.1104,5.0723,5.0156,5.0732,5.0932,5.086,5.1471,5.1236,5.0519,5.0519,5.0091,4.9509,4.9509,4.9509,4.9509,4.9509,4.9509,4.9509,4.9509,4.9509,4.9521,4.9638,4.9759,4.9885,4.9879,4.9981,5.0049,4.9927,4.9404,4.8888,4.8888,4.8423,4.7995,4.7995,4.7526,4.7104,4.7104,4.6502,4.6002,4.6002,4.6002,4.6002,4.6002,4.6002,4.6002,4.6002,4.6002,4.6288,4.7026,4.7104,4.7395,4.8133,4.8191,4.8191,4.8191,4.8191,4.8191,4.8191,4.7609,4.8017,4.9479,5.0503,5.1008,5.1008,5.1144,5.1215,5.1222,5.1279,5.1337,5.1405,5.1408,5.1394,5.1394,5.1394,5.1401,5.1397,5.1394,5.1356,5.1304,5.13,5.13,5.13,5.4974,5.5014,5.4963,5.4963,5.4665,5.4494,5.4631,5.4772,5.4894,5.5077,5.4973,5.4932,5.5086,5.4528,5.42,5.4321,5.3603,5.315,5.315,5.2733,5.2498,5.2498,5.2498,5.2498,5.2498,5.2498,5.2498,5.2498,5.2498,5.2498,5.2498,5.2498,5.2299,5.1937,5.1937,5.1737,5.142,5.2036,5.204,5.1691,5.2331,5.21,5.1349,5.1349,5.0842,5.0147,5.0147,4.9865,4.9509,4.9509,4.9509,4.9509,4.9509,4.9509,4.9505,4.9563,4.9736,4.992,5.0082,5.0158,5.0207,5.0278,5.0015,4.9748,4.9748,4.9307,4.8902,4.8902,4.8417,4.7997,4.7997,4.7667,4.724,4.6773,4.6696,4.654,4.6079,4.6002,4.6177,4.6638,4.6696,4.7045,4.792,4.7997,4.8172,4.8561,4.8599,4.8599,4.8599,4.8599,4.8599,4.8599,4.8677,4.9318,5.0581,5.1008,5.1202,5.1202,5.1205,5.1226,5.1263,5.1328,5.1367,5.1396,5.1396,5.1406,5.1406,5.1399,5.1383,5.1343,5.1343,5.1326,5.13,5.13,5.13,5.13,5.4852,5.5221,5.5507,5.5507,5.5507,5.5578,5.5861,5.5975,5.6116,5.6437,5.6018,5.5729,5.5955,5.5296,5.4921,5.5136,5.4436,5.3892,5.3711,5.3114,5.2697,5.2498,5.2498,5.2498,5.2498,5.2498,5.2498,5.2498,5.2498,5.2498,5.2498,5.2498,5.2498,5.2498,5.2498,5.2498,5.2526,5.3138,5.3038,5.2542,5.321,5.2963,5.2193,5.2193,5.1686,5.0935,5.0782,5.0297,4.9753,4.9565,4.9509,4.9509,4.9509,4.9509,4.9509,4.9509,4.9682,4.9912,5.0182,5.0207,5.017,5.0278,5.0302,5.0302,5.0302,5.0015,4.9737,4.9772,4.9287,4.8862,4.891,4.8735,4.8386,4.7706,4.7609,4.7376,4.6696,4.6604,4.6851,4.7531,4.7609,4.7939,4.8813,4.8891,4.8988,4.9182,4.9202,4.9202,4.9202,4.9202,4.9202,4.9202,4.9654,5.0309,5.1183,5.1202,5.1202,5.1202,5.1195,5.1242,5.1299,5.1364,5.1402,5.1394,5.1403,5.1399,5.1396,5.14,5.1366,5.1294,5.1294,5.13,5.13,5.13,5.13,5.13,5.5341,5.5478,5.5507,5.5507,5.5507,5.5578,5.5861,5.6144,5.6465,5.6742,5.6948,5.7065,5.7091,5.6367,5.5921,5.5921,5.5233,5.4508,5.3748,5.3639,5.3277,5.2516,5.2498,5.2498,5.2498,5.2498,5.2498,5.2498,5.2498,5.2498,5.2498,5.2498,5.2498,5.2498,5.2498,5.2498,5.2526,5.3138,5.337,5.3374,5.4033,5.3827,5.3111,5.3111,5.2569,5.1705,5.0954,5.067,5.0501,4.9753,4.9509,4.9509,4.9509,4.9509,4.9509,4.9509,4.9593,4.9759,5.0044,5.0194,5.029,5.0302,5.0302,5.0302,5.0302,5.0372,5.0461,5.0592,5.007,4.9653,4.9773,4.9143,4.858,4.8502,4.8502,4.8483,4.8425,4.8405,4.8425,4.8502,4.8502,4.8852,4.9712,4.9809,5.0134,5.095,5.1008,5.1008,5.1008,5.1008,5.1008,5.1008,5.0289,5.0309,5.1183,5.1202,5.1202,5.1202,5.1195,5.1242,5.1299,5.1364,5.1402,5.1394,5.1403,5.1399,5.1396,5.14,5.1366,5.1294,5.1294,5.13,5.13,5.13,5.13,5.13,5.5448,5.5507,5.5507,5.5507,5.5507,5.5578,5.5861,5.6172,5.6492,5.6768,5.7028,5.7188,5.7188,5.6935,5.6736,5.6736,5.6029,5.545,5.5142,5.4237,5.3331,5.2534,5.2498,5.2498,5.2498,5.2498,5.2498,5.2498,5.2498,5.2498,5.2498,5.2498,5.2595,5.2802,5.2802,5.2802,5.2846,5.3445,5.3585,5.3467,5.4126,5.4221,5.3939,5.3939,5.3433,5.2679,5.236,5.1909,5.1311,5.0522,5.0241,5.0147,4.9659,4.9509,4.9509,4.9509,4.9593,4.975,4.9925,5.0082,5.0194,5.0278,5.0302,5.0302,5.0302,5.0399,5.0547,5.067,5.0592,5.0556,5.0679,5.0445,5.0037,4.9493,4.9421,4.9221,4.8677,4.8599,4.8794,4.9343,4.9421,4.9745,5.0619,5.0717,5.0833,5.1183,5.1202,5.1202,5.1202,5.1202,5.1202,5.1202,5.0872,5.0872,5.1202,5.1202,5.1202,5.1202,5.1234,5.1279,5.1299,5.1366,5.14,5.1403,5.1364,5.1333,5.133,5.133,5.1319,5.1292,5.1292,5.1308,5.13,5.13,5.13,5.13,5.5507,5.5507,5.5507,5.5507,5.5507,5.5578,5.5861,5.6106,5.6383,5.6742,5.6977,5.7105,5.7188,5.7188,5.7188,5.7188,5.6699,5.6265,5.6011,5.478,5.3603,5.2552,5.2498,5.2498,5.2498,5.2498,5.2498,5.2498,5.2498,5.2498,5.2498,5.2498,5.2686,5.2999,5.2999,5.3045,5.3154,5.3662,5.3776,5.3604,5.4162,5.4409,5.4409,5.4409,5.4052,5.3543,5.3299,5.2829,5.2175,5.1349,5.0898,5.0598,5.0053,4.9696,4.9509,4.9509,4.9567,4.9682,4.9857,4.9978,5.0082,5.0255,5.0302,5.0302,5.0302,5.0374,5.0486,5.0661,5.0811,5.0978,5.1159,5.1202,5.1008,5.0406,5.0309,5.0095,4.9493,4.9415,4.9648,5.0231,5.0309,5.0542,5.1144,5.1202,5.1202,5.1202,5.1202,5.1202,5.1202,5.1202,5.1202,5.1202,5.1202,5.1202,5.1202,5.1202,5.1202,5.1202,5.1262,5.1297,5.1299,5.1378,5.1399,5.1396,5.1327,5.1294,5.1291,5.1308,5.13,5.13,5.13,5.13,5.13,5.13,5.13,5.13,5.5507,5.5507,5.5507,5.5507,5.5507,5.5578,5.5861,5.5918,5.6116,5.6715,5.6794,5.6899,5.7163,5.7188,5.7188,5.7188,5.7188,5.6862,5.6047,5.5305,5.42,5.257,5.2498,5.2498,5.2498,5.2498,5.2498,5.2498,5.2498,5.2498,5.2498,5.2498,5.2686,5.2999,5.2999,5.3154,5.3427,5.3757,5.3907,5.3926,5.4269,5.4409,5.4409,5.4409,5.4409,5.4296,5.3506,5.3205,5.3092,5.2193,5.1386,5.0726,5.0707,5.0147,4.9509,4.9509,4.9509,4.9567,4.983,4.9912,4.9959,5.0243,5.0302,5.0302,5.0302,5.0302,5.0385,5.0642,5.0705,5.08,5.1146,5.1202,5.1202,5.1202,5.1202,5.1202,5.1202,5.1202,5.1202,5.1202,5.1202,5.1202,5.1202,5.1202,5.1202,5.1202,5.1202,5.1202,5.1202,5.1202,5.1202,5.1202,5.1202,5.1202,5.1202,5.1202,5.1202,5.1202,5.1262,5.1297,5.1299,5.1378,5.1399,5.1396,5.1327,5.1294,5.1291,5.1308,5.13,5.13,5.13,5.13,5.13,5.13,5.13,5.13,5.5507,5.5507,5.5507,5.5507,5.5507,5.5537,5.5607,5.5793,5.606,5.6465,5.6662,5.6899,5.7163,5.7188,5.7188,5.7188,5.7188,5.6862,5.6047,5.5794,5.4961,5.3403,5.3331,5.3078,5.2516,5.2498,5.2498,5.2498,5.2498,5.2498,5.2498,5.2498,5.2783,5.3283,5.3283,5.3465,5.3776,5.4108,5.4108,5.3926,5.4269,5.4409,5.4409,5.4409,5.4409,5.4371,5.4127,5.4033,5.3921,5.3092,5.266,5.2247,5.1083,5.0538,5.0222,4.9678,4.9509,4.9536,4.9707,4.983,4.9959,5.0243,5.0302,5.0302,5.0302,5.0302,5.0385,5.0642,5.0705,5.08,5.1146,5.1202,5.1202,5.1202,5.1202,5.1202,5.1202,5.1202,5.1202,5.1202,5.1202,5.1202,5.1202,5.1202,5.1202,5.1202,5.1202,5.1202,5.1202,5.1202,5.1202,5.1202,5.1202,5.1202,5.1202,5.1202,5.1202,5.1202,5.1262,5.1297,5.1301,5.1372,5.1403,5.14,5.1326,5.1289,5.1308,5.1304,5.13,5.13,5.13,5.13,5.13,5.13,5.13,5.13,5.5507,5.5507,5.5507,5.5507,5.5507,5.5507,5.5507,5.5637,5.5908,5.6328,5.6546,5.6768,5.7163,5.7188,5.7188,5.7188,5.7188,5.6989,5.65,5.6464,5.5921,5.4653,5.4617,5.3947,5.2516,5.2498,5.2498,5.2498,5.2498,5.2498,5.2498,5.2498,5.2809,5.3407,5.3407,5.3662,5.4108,5.4321,5.4268,5.4108,5.4321,5.4409,5.4409,5.4409,5.4409,5.4409,5.4409,5.4409,5.4334,5.3827,5.3468,5.2961,5.1593,5.0954,5.0598,5.0109,4.9753,4.9521,4.9648,4.9788,4.9946,5.017,5.0267,5.0302,5.0302,5.0302,5.0385,5.0642,5.0705,5.08,5.1146,5.1202,5.1202,5.1202,5.1202,5.1202,5.1202,5.1202,5.1202,5.1202,5.1202,5.1202,5.1202,5.1202,5.1202,5.1202,5.1202,5.1202,5.1202,5.1202,5.1202,5.1202,5.1202,5.1202,5.1202,5.1202,5.1202,5.1202,5.1262,5.1297,5.1301,5.1369,5.1394,5.1391,5.1335,5.13,5.13,5.13,5.13,5.13,5.13,5.13,5.13,5.13,5.13,5.13,5.5507,5.5507,5.5507,5.5507,5.5507,5.5507,5.5507,5.5507,5.5724,5.6318,5.6428,5.6626,5.7138,5.7188,5.7188,5.7188,5.7188,5.7188,5.7188,5.7188,5.6826,5.6029,5.5993,5.4961,5.2752,5.2643,5.257,5.2498,5.2498,5.2498,5.2498,5.2498,5.2809,5.3407,5.3407,5.3776,5.4409,5.4409,5.4409,5.4409,5.4409,5.4409,5.4409,5.4409,5.4409,5.4409,5.4409,5.4409,5.4409,5.4409,5.3902,5.3167,5.2287,5.1499,5.0914,5.0855,5.0294,4.9727,4.978,4.9901,5.0014,5.0076,5.0194,5.0302,5.0302,5.0302,5.0385,5.0642,5.0705,5.08,5.1146,5.1202,5.1202,5.1202,5.1202,5.1202,5.1202,5.1202,5.1202,5.1202,5.1202,5.1202,5.1202,5.1202,5.1202,5.1202,5.1202,5.1202,5.1202,5.1202,5.1202,5.1202,5.1202,5.1202,5.1202,5.1202,5.1208,5.12,5.1265,5.1299,5.1306,5.1367,5.1394,5.1391,5.1335,5.13,5.13,5.13,5.13,5.13,5.13,5.13,5.13,5.13,5.13,5.13,5.5507,5.5507,5.5507,5.5507,5.5507,5.5507,5.5507,5.5695,5.5947,5.6346,5.6573,5.6847,5.7163,5.7188,5.7188,5.7188,5.7188,5.7188,5.7188,5.7188,5.6826,5.6029,5.5993,5.5486,5.4399,5.3766,5.3132,5.2498,5.2498,5.2498,5.2498,5.2498,5.2809,5.3407,5.3407,5.3776,5.4409,5.4409,5.4409,5.4409,5.4409,5.4409,5.4409,5.4409,5.4409,5.4409,5.4409,5.4409,5.4409,5.4409,5.4277,5.3996,5.3186,5.2811,5.2562,5.203,5.1629,5.1268,5.076,5.0733,5.0694,5.009,5.0114,5.0302,5.0302,5.0302,5.0385,5.0642,5.0705,5.08,5.1146,5.1202,5.1202,5.1202,5.1202,5.1202,5.1202,5.1202,5.1202,5.1202,5.1202,5.1202,5.1202,5.1202,5.1202,5.1202,5.1202,5.1202,5.1202,5.1202,5.1202,5.1202,5.1202,5.1202,5.1202,5.1202,5.1208,5.1194,5.1266,5.1295,5.1308,5.1373,5.1369,5.1317,5.1312,5.13,5.13,5.13,5.13,5.13,5.13,5.13,5.13,5.13,5.13,5.13,5.5507,5.5507,5.5507,5.5507,5.5507,5.5537,5.5666,5.5822,5.606,5.6546,5.6715,5.6899,5.7163,5.7188,5.7188,5.7188,5.7188,5.7188,5.7188,5.7188,5.7007,5.6591,5.6573,5.621,5.5432,5.5015,5.4218,5.3078,5.2679,5.2498,5.2498,5.2498,5.2809,5.3407,5.3407,5.3776,5.4409,5.4409,5.4409,5.4409,5.4409,5.4409,5.4409,5.4409,5.4409,5.4409,5.4409,5.4409,5.4409,5.4409,5.4409,5.4334,5.3902,5.3524,5.3128,5.2793,5.2375,5.1946,5.1494,5.1603,5.1592,5.0689,5.0698,5.0818,5.0397,5.0302,5.0385,5.0642,5.0705,5.08,5.1146,5.1202,5.1202,5.1202,5.1202,5.1202,5.1202,5.1202,5.1202,5.1202,5.1202,5.1202,5.1202,5.1202,5.1202,5.1202,5.1202,5.1202,5.1202,5.1202,5.1202,5.1202,5.1202,5.1202,5.1202,5.1202,5.123,5.1255,5.1284,5.1299,5.1305,5.1367,5.1366,5.1291,5.1308,5.13,5.13,5.13,5.13,5.13,5.13,5.13,5.13,5.13,5.13,5.13,5.5507,5.5507,5.5507,5.5507,5.5507,5.5578,5.5793,5.5861,5.607,5.6582,5.6742,5.6873,5.7105,5.7163,5.7188,5.7188,5.7188,5.7188,5.7188,5.7188,5.7188,5.7188,5.7188,5.688,5.621,5.6066,5.5233,5.3693,5.3023,5.2625,5.2498,5.2567,5.2875,5.3407,5.3467,5.3833,5.4409,5.4409,5.4409,5.4409,5.4409,5.4409,5.4409,5.4409,5.4409,5.4409,5.4409,5.4409,5.4409,5.4409,5.4409,5.4409,5.4409,5.3939,5.3412,5.3459,5.3066,5.256,5.2316,5.2531,5.2593,5.1597,5.1586,5.162,5.0894,5.0512,5.0374,5.0625,5.0678,5.0792,5.1102,5.119,5.1202,5.1202,5.1202,5.1202,5.1202,5.1202,5.1202,5.1202,5.1202,5.1202,5.1202,5.1202,5.1202,5.1202,5.1202,5.1202,5.1202,5.1202,5.1202,5.1202,5.1202,5.1202,5.1202,5.1202,5.1234,5.1297,5.1297,5.1302,5.132,5.1362,5.1366,5.1307,5.1308,5.13,5.13,5.13,5.13,5.13,5.13,5.13,5.13,5.13,5.13,5.13,5.5507,5.5507,5.5507,5.5507,5.5507,5.5507,5.5566,5.5764,5.5947,5.6014,5.6474,5.6821,5.6847,5.7079,5.7188,5.7188,5.7188,5.7188,5.7188,5.7188,5.7188,5.7188,5.7188,5.7152,5.7043,5.6355,5.5233,5.3693,5.3585,5.3186,5.2521,5.2798,5.3112,5.3407,5.37,5.4035,5.4409,5.4409,5.4409,5.4409,5.4409,5.4409,5.4409,5.4409,5.4409,5.4409,5.4409,5.4409,5.4409,5.4409,5.4409,5.4409,5.4409,5.4334,5.4288,5.4579,5.4465,5.417,5.3742,5.3683,5.3501,5.2612,5.252,5.2614,5.248,5.1334,5.034,5.0497,5.0625,5.0767,5.0986,5.1128,5.1202,5.1202,5.1202,5.1202,5.1202,5.1202,5.1202,5.1202,5.1202,5.1202,5.1202,5.1202,5.1202,5.1202,5.1202,5.1202,5.1202,5.1202,5.1202,5.1202,5.1202,5.1202,5.1202,5.1202,5.1234,5.1297,5.1297,5.1327,5.1389,5.14,5.1356,5.1304,5.13,5.13,5.13,5.13,5.13,5.13,5.13,5.13,5.13,5.13,5.13,5.13,5.5507,5.5507,5.5507,5.5507,5.5507,5.5566,5.5706,5.5804,5.5975,5.6144,5.6528,5.6794,5.6794,5.7054,5.7188,5.7188,5.7188,5.7188,5.7188,5.7188,5.7188,5.7188,5.7188,5.7188,5.7188,5.6844,5.612,5.4979,5.4128,5.3512,5.315,5.2858,5.2962,5.3407,5.3546,5.3907,5.4409,5.4409,5.4409,5.4409,5.4409,5.4409,5.4409,5.4409,5.4409,5.4409,5.4409,5.4409,5.4409,5.4409,5.4409,5.4409,5.4409,5.4409,5.4441,5.4683,5.4742,5.4712,5.452,5.4599,5.4503,5.3566,5.3429,5.3397,5.29,5.2315,5.1749,5.1404,5.0998,5.0784,5.1069,5.1153,5.1202,5.1202,5.1202,5.1202,5.1202,5.1202,5.1202,5.1202,5.1202,5.1202,5.1202,5.1202,5.1202,5.1202,5.1202,5.1202,5.1202,5.1202,5.1202,5.1202,5.1202,5.1202,5.1202,5.1202,5.1234,5.1297,5.1297,5.1347,5.1394,5.1394,5.1356,5.13,5.13,5.13,5.13,5.13,5.13,5.13,5.13,5.13,5.13,5.13,5.13,5.13]}]]